GFSSE_con_mucape_012.txt.gz
CAPE
172 173 388 367 436 842 1583 2123 2480 2636 2956 2954 3133 3233 3216 3260 3286 3073 2935 3057 3056 2896 2761 2745 2609 2074 1768 1756 1657 1556 1571 1741 1533 1492 1237 1291 1143 695 886 656 575 983 1591
165 240 562 1116 703 1093 2026 2350 2598 2727 2866 2911 3056 3068 3024 3109 3175 2970 2871 2876 2868 2713 2583 2541 2333 1843 1741 1588 1501 1352 1189 979 1396 1334 1215 1104 760 1023 1055 1095 1233 1037 1185
151 157 413 1211 1306 1328 1912 2331 2517 2563 2657 2754 2852 2866 2965 3073 2961 2829 2717 2433 2513 2380 2162 1934 1961 1906 1945 1642 1435 1338 1088 972 849 598 1052 1006 780 1123 1145 1201 1482 1424 1263
85 97 279 1611 1674 1812 2199 2225 2174 2268 2237 2538 2555 2607 2857 2986 2799 2425 1984 1916 1888 1937 1743 1694 1801 1820 1944 1884 1600 1297 1106 991 1012 1081 1143 738 178 1235 1274 1455 1469 1185 1375
169 359 647 1709 1856 1912 2005 2283 2250 2218 2124 2386 2437 2428 2727 2782 2460 1933 1938 1852 1731 1674 1666 1702 1781 1780 1808 1933 1506 1523 1284 1034 1390 1609 1325 907 248 1084 1274 1415 1109 1230 1643
472 353 1146 1798 1613 1992 2231 2150 2150 2413 2276 2277 2193 2365 2595 2318 1754 1984 1861 1581 1507 1537 1638 1824 1771 1796 1753 1851 1656 1517 1480 1328 1355 1713 1311 1648 492 1362 1433 1567 1361 1034 1283
544 397 712 1882 1971 2093 2380 2477 2179 2249 1994 2214 2188 2244 2006 1802 1675 1998 1599 1407 1465 1646 1828 1921 1514 1604 1487 1631 1642 1487 1477 1472 1609 1512 1392 963 1113 1966 1186 1443 1137 1193 1288
419 241 564 1610 2024 2243 2307 2367 2492 2076 1955 2098 1956 2062 1833 1705 1759 1708 1348 1395 1525 1753 1962 1821 1471 1529 1513 1380 1495 1604 1632 1593 864 526 1095 896 1693 1724 1290 686 1099 1320 1326
391 636 901 975 1512 1889 2640 2257 2104 2008 2184 2026 1963 1974 1758 1714 1675 1584 1339 1285 1605 1679 1712 1762 1404 1480 1516 1470 1677 1679 2198 2661 1306 634 1167 1330 2199 1805 1601 732 637 1486 938
894 863 1341 1501 1301 1701 1726 2102 1913 1924 1795 1823 1849 1733 1542 1699 1737 1779 1619 1813 1527 1407 1568 1619 1440 1455 1410 1625 1748 1795 2279 2351 1072 16 740 1318 2165 1989 1701 1591 1602 1271 1107
990 987 1113 1228 2073 2305 1970 1639 2003 1799 1413 1524 1581 1756 2170 1592 1759 2011 1906 1765 1656 1578 1447 1552 1710 1776 1890 2035 2628 3000 2821 1837 1084 318 981 1544 1917 2088 1747 1588 1696 1558 1417
736 1100 995 1579 1902 1920 1197 2273 2311 1502 864 1198 1419 1990 1644 1076 1769 1816 1786 1595 1971 1765 283 1182 2163 1747 1842 1994 2170 2620 1407 1063 1440 1250 871 272 2116 2095 2004 1902 1999 1641 1614
969 987 1404 1701 2135 1667 2231 1972 1624 1282 1290 1469 2781 1875 2198 1353 2844 850 1028 1385 1456 948 445 1075 2061 1534 1699 1402 1135 1048 750 706 888 1508 1206 1916 2487 2060 1970 2224 1968 1845 1442
1310 1580 1626 1686 2457 2503 1644 1222 1590 1469 1556 1479 2006 3056 3092 2816 2179 1053 737 1342 711 793 1114 1922 1595 1844 1707 1409 606 503 619 189 66 927 1722 2231 2184 1883 2052 2212 1928 1971 1834
1209 1534 1716 2157 2979 3501 2976 2142 1269 2199 1157 1017 2340 2614 2079 2883 2494 967 2632 2794 1974 1138 2174 2634 1990 2510 2370 1572 1266 984 214 242 243 180 1705 2196 2269 1983 2282 2166 2067 2050 2075
803 1568 2108 2353 3158 3159 3116 3476 3701 1846 1839 1870 1016 2463 3092 3021 3257 3031 3016 2333 1871 2012 2781 2332 2649 2522 2640 1874 1602 500 141 297 360 411 444 2011 2557 2357 2771 2340 2504 2314 2031
1266 1580 1979 2147 2146 2751 3584 3397 3385 2294 1415 1171 1887 2427 2983 3300 3352 3331 2849 2857 2332 2192 2382 2123 1628 2491 892 1362 1015 292 309 289 581 227 355 603 1946 2662 2660 3004 2575 2411 2526
1066 1813 2033 1093 2017 2052 2852 3477 2369 1768 1806 1552 2709 1251 2964 3386 3043 3457 2817 1418 2226 1620 2175 1812 1945 1845 499 605 402 535 154 268 230 391 365 147 1032 1336 2382 2616 2584 2383 2260
1605 2276 2164 2193 2253 2396 3140 2563 2810 2495 2282 1693 2174 2572 1797 1925 3353 2662 2769 1675 2534 2693 1926 2040 1749 1723 1119 556 55 199 263 343 305 60 257 274 393 1072 1421 1976 2349 2339 2088
1538 2225 2214 2266 3416 2915 2903 2799 2846 1945 1869 1862 3626 1397 2281 2920 2968 2680 2722 2816 2871 2732 1120 2082 989 757 629 394 83 15 386 406 192 561 87 77 45 380 1294 1198 1663 1621 1964
1558 2302 2371 2519 3530 3639 3353 2316 2423 2645 2271 2184 2365 3042 2876 3110 3232 3021 3013 2431 2316 2053 882 962 1057 598 807 536 367 198 472 374 443 347 0 0 1 19 273 419 1069 1344 1472
1612 1984 2710 2785 3784 3468 3258 2963 2420 2373 2426 1770 2342 2971 3328 3216 3685 2642 2717 2936 2207 2093 1783 1108 625 663 517 912 261 334 121 269 173 11 10 0 0 2 18 200 646 508 1280
1548 2269 2792 3190 3456 3271 3333 2869 3070 2732 3246 2748 2724 3277 3083 3397 2827 1899 2737 2535 2539 1312 1300 1307 966 671 339 960 370 400 348 135 357 225 110 0 0 0 0 60 0 0 0
1530 2250 2864 3264 3418 3641 3190 2980 2793 2161 2430 2292 2223 2291 2943 3128 3084 3279 3073 2881 2248 1263 1846 1239 847 386 1004 463 597 225 233 103 157 218 282 70 47 0 5 0 11 0 0
1591 2130 2650 3537 3631 3475 3455 3024 2944 2776 2057 2330 2030 3380 3040 3229 2962 2743 3084 2585 1758 777 1837 927 858 583 824 701 307 677 732 532 246 26 59 85 87 71 68 3 0 0 3
1517 2170 2228 3724 3822 3719 3953 3252 3668 2594 2308 2335 2335 2919 2773 2789 2570 2874 2266 2137 1686 911 1487 1082 938 725 496 862 608 785 555 294 71 236 128 55 51 101 94 54 79 44 5

GFSSE_con_mucape_015.txt.gz
CAPE
109 99 414 480 729 985 1782 2715 2783 2889 3031 3137 3188 3319 3162 3023 2906 3126 3134 2937 2789 2794 2268 1887 1725 1643 1697 1658 1578 1537 1752 1524 1494 1217 1232 918 691 976 949 923 1517 1261 1017
18 141 531 631 928 1659 1991 2717 2766 2852 3065 3147 3111 3208 3097 2796 2552 3041 3057 2679 2715 2659 1991 1912 1833 1705 1575 1515 1405 1354 1269 1470 1446 1337 1116 777 855 1091 1176 972 1382 835 694
110 213 552 1374 1732 1725 2190 2447 2611 2713 3004 3025 3093 3098 3144 2627 2624 2880 2471 2376 2581 2447 1815 1811 1863 1948 1742 1478 1354 1118 1136 997 932 1152 1114 757 923 1277 1560 1366 1456 1072 1122
73 174 601 1618 1917 2166 2434 2609 2569 2345 2257 2782 2893 3121 3019 2650 2769 2467 2019 1987 1961 2223 1722 1786 1761 1823 1918 1693 1496 1226 1131 1053 1003 1035 995 865 735 1068 1493 1611 1496 982 823
49 207 747 1913 2082 2248 2191 2489 2483 2435 2221 2587 2700 3067 2965 2818 2375 1987 1936 1823 1739 2106 1830 1767 1801 1790 1841 1735 1483 1495 1464 1472 1399 1374 798 404 697 1218 1495 1282 1339 1352 1553
149 555 1628 1994 1814 2115 2366 2415 2234 2301 2260 2501 2588 2920 2817 2608 1992 1910 1685 1594 1543 1656 1834 1969 1770 1668 1709 1847 1540 1506 1596 1564 1472 1244 578 711 693 1176 1184 1019 1465 1423 1317
289 715 1273 2225 2506 2476 2366 2365 2509 2101 1984 2481 2671 2772 2712 2529 2028 1786 1539 1402 1477 1628 1820 1752 1451 1661 1507 1626 1635 1513 1545 1516 365 798 908 569 1255 2115 1702 1430 1230 1320 1425
327 634 961 1970 2405 2729 2259 2129 2726 2360 2079 2558 2697 2586 2507 2513 2528 2058 1614 1379 1521 1707 1764 1667 1527 1581 1620 1550 1557 1726 1735 719 143 92 422 767 1880 1798 1428 1166 1265 1357 1356
206 429 916 1133 1591 2164 2814 2324 2367 2507 2477 2505 2718 2563 2305 2023 1922 1630 1423 1417 1550 1527 1657 1695 1454 1595 1713 1996 2246 2074 1620 748 185 177 9 322 1530 1785 640 1175 1330 1265 1413
290 558 733 1088 1360 1902 1779 2141 1957 2162 2146 2101 2375 2084 2012 1649 1626 1627 1692 1712 1441 1372 1527 1648 2040 1845 1831 2386 2296 1983 1806 1176 320 109 0 330 1581 1985 993 870 1371 1159 1138
567 615 742 1017 1295 1587 1461 1620 2025 1894 1949 2085 1966 2235 2009 1374 1239 1412 806 1686 1601 1633 1633 1193 2591 2378 2471 2910 2552 2043 1736 561 445 243 379 449 2101 1869 1712 1650 1458 1324 1223
711 825 880 976 1149 1209 1344 1561 1517 1414 1088 1156 1289 1194 1308 733 878 1628 1103 1409 1530 1554 859 463 1662 2897 2085 1437 1715 1820 1042 655 684 439 776 1732 2139 1998 1908 1567 1703 1522 1442
657 787 1005 1253 1371 1056 996 1192 1372 1258 751 560 803 1043 883 1153 1027 862 347 796 681 68 187 779 1012 1622 1229 767 670 465 234 894 926 839 478 1022 2148 2387 2093 1746 1790 1370 1657
659 917 906 1198 1250 1152 1181 1065 1259 1059 550 587 976 1302 1577 1052 743 472 542 863 648 420 710 868 581 1096 1320 729 457 346 32 0 1217 845 939 1508 2291 2470 2378 2276 1937 1749 1408
855 883 1003 1249 1182 1438 1129 697 958 884 740 777 1021 1492 1051 1184 922 748 799 887 646 512 730 881 1020 1160 1166 1065 926 383 2 3 40 882 1060 2526 2327 2546 2775 2276 2079 2052 1873
939 971 957 1208 1479 1685 1527 1463 1111 1171 948 1008 1399 1382 1065 1419 1506 1396 1421 1236 1249 1102 1353 1550 964 871 1210 799 1057 872 12 30 22 256 1090 1410 2050 2123 2326 2656 2312 2118 2153
976 1023 1159 1266 1747 1550 1836 1435 1665 814 568 370 1013 1631 1439 1527 1582 1566 1251 1564 969 1525 1601 945 1024 991 413 342 182 130 6 15 14 0 88 1118 1413 1916 2771 2573 2398 2346 2531
939 1124 1371 1300 1565 1465 1642 1868 1526 955 870 865 1477 1515 1586 1610 1607 1753 1603 1186 951 1022 1172 1099 1165 944 518 121 0 2 0 15 20 20 50 826 1099 1172 1711 2082 2185 2136 2057
813 1326 1348 1179 1158 1372 1399 1882 1358 1098 1687 1058 1391 1349 1971 1711 1718 1237 1692 1378 1126 1221 980 1033 658 455 30 0 0 0 9 3 31 41 98 22 191 909 1165 1631 1860 1827 1499
1019 1191 1180 1273 1114 1040 1779 1392 1275 1342 1528 1403 1228 838 1428 1490 1932 1479 1135 1414 1322 1302 753 489 353 100 0 0 0 0 0 6 12 34 19 2 296 1114 986 796 860 1029 1583
1209 1073 1052 1461 1340 1171 1709 1367 1373 1556 1673 1112 1045 1066 1522 1386 1507 1496 1607 1351 1697 1183 641 483 139 0 0 0 0 9 16 32 9 15 11 10 4 2 612 603 859 919 992
1128 986 894 953 2284 1592 1518 1362 1390 1638 1608 1104 897 1640 1597 1481 1786 1528 1278 1311 1428 1192 595 140 4 0 0 30 0 0 24 25 39 14 7 3 7 0 66 0 53 566 607
832 1166 1129 913 2304 2032 1943 1395 1378 1623 1834 1870 1451 2207 1932 1944 1826 1189 1508 1370 1119 869 486 192 0 0 0 64 0 0 14 12 14 21 24 5 0 0 0 0 0 4 571
870 1322 1250 1403 2124 1976 1942 1576 1322 1109 1108 1331 1533 1518 2100 2178 1844 1306 1500 1444 1065 886 522 23 45 0 104 0 2 0 0 9 15 39 40 9 10 0 0 0 0 0 266
776 1040 1722 1577 1728 1961 2013 1498 1413 1308 1039 1284 1691 1613 2080 2204 1782 1717 1636 1545 939 372 266 118 29 13 91 115 32 60 4 0 5 1 30 34 43 19 12 0 8 0 0
890 1388 1825 1965 1914 2306 1720 1977 1689 1680 1601 1359 1070 1829 1951 1833 1570 1964 1613 1297 764 42 138 77 82 79 84 38 0 3 0 0 0 0 1 0 13 22 21 32 14 1 0

GFSSE_con_mucape_018.txt.gz
CAPE
50 83 516 639 1004 2253 2632 2633 2984 3028 3095 3173 3092 2887 2622 2663 2626 2655 2667 2234 2123 2061 1906 1866 1850 1839 1729 1560 1728 1584 1484 1613 1270 1237 772 773 1057 1125 1370 1406 1521 732 686
50 79 811 832 1226 2461 2544 2597 2932 3073 3029 3104 3022 2711 2314 2269 2287 2294 2455 1997 2052 1947 1997 2002 1867 1735 1644 1569 1566 1434 1509 1464 1514 1226 806 665 989 1037 1239 1406 1087 372 617
53 125 566 1396 2024 2189 2415 2771 2849 2915 2666 3086 3176 2706 2218 2252 2323 2289 2085 2040 1981 1847 1824 1870 2115 1920 1682 1535 1463 1252 1107 1036 1227 1285 982 764 1002 1047 1560 1309 710 1169 1190
142 312 797 1829 2090 2030 2451 2713 2788 2445 2339 3099 2999 2689 2318 2270 2252 2027 1957 1862 1795 1810 1871 1840 1809 1947 1921 1732 1639 1359 1208 1151 1002 1090 716 710 558 1415 1326 1333 1032 1001 1049
144 533 933 2059 2236 2159 2323 2539 2659 2553 2062 2605 2667 2159 2059 2083 1961 1856 1785 1722 1749 1808 1830 1830 1805 1824 1895 1731 1674 1471 1313 1859 1558 1602 866 650 881 1494 1360 1381 713 1189 1449
208 630 1469 2073 1558 1947 2191 2285 2064 2031 2043 2351 2789 2171 2024 2069 1877 1681 1593 1546 1688 1868 1896 1662 1684 1610 1764 1958 1689 1621 2047 1724 1097 718 456 1056 1056 1340 1131 1426 1273 1288 1389
405 800 1070 1973 2211 2287 2120 2005 2067 1871 1768 2315 2725 2065 1915 1988 1786 1622 1447 1496 1680 1791 1867 1611 1451 1653 1551 1735 1457 1856 1590 1159 639 567 943 669 1040 1945 1402 1617 1394 1289 666
617 972 1235 1938 2316 2259 2009 1807 2062 1734 1730 2150 2387 2217 2104 2052 1902 1492 1421 1500 1681 1859 1834 1628 1520 1666 1767 1523 1658 1680 721 790 577 507 522 843 1479 2079 1671 1470 1227 1434 629
701 1023 1335 1461 1341 1686 2475 2008 1987 1843 1758 1968 2164 2097 2235 1940 1782 1340 1250 1447 1584 1636 1682 1732 1594 1770 1702 1553 1752 2088 1019 460 87 153 230 135 1875 1904 1413 1390 1374 1401 882
536 823 1207 1428 1464 1930 1933 2184 2176 2073 1886 1954 2109 1950 1833 1748 1617 1575 1425 1530 1579 1342 1676 1833 1874 2262 1732 1814 1437 1891 993 785 194 143 77 254 1810 1107 1232 1414 1382 1488 1271
366 742 1018 1308 1554 1806 1704 1641 2113 2148 2045 2038 1982 1999 2113 1323 1192 1467 1119 1506 1544 1697 1097 494 1606 2539 2357 2217 2519 1661 2087 711 409 256 136 237 1649 1512 1029 1367 1519 1003 1491
398 483 882 1232 1460 1482 1484 1375 1552 1544 1651 1704 1686 1487 1532 850 906 1578 1366 1220 1517 1443 715 1401 1900 2323 1652 844 961 1200 857 450 469 305 177 417 1613 1987 1570 1585 1399 1300 1425
450 579 656 930 1190 1209 1124 1361 1266 1188 993 990 956 740 838 796 1080 1145 681 821 573 37 192 520 859 837 1092 935 402 146 494 449 430 422 632 1589 2383 2064 2030 1662 1765 1508 1506
582 725 710 794 893 883 798 1350 1081 915 668 322 426 698 717 737 809 727 388 643 658 248 597 499 573 981 1154 634 222 140 218 492 424 550 393 1314 2111 2222 2055 1880 1824 1540 1725
650 788 814 919 921 792 782 678 714 936 591 280 354 699 1007 861 708 496 658 704 729 487 532 743 845 1091 1093 986 1065 593 35 329 800 618 412 1591 1740 2455 2385 2163 2017 1707 1569
676 727 892 972 954 783 911 725 593 781 651 398 483 863 1078 882 804 644 759 1037 925 938 802 1121 947 666 624 271 313 483 690 29 744 573 585 1218 1955 2342 2736 2407 2145 2070 1997
651 785 778 977 982 881 1078 914 571 667 723 717 662 1103 1129 1217 1107 1117 1235 1181 985 1192 1263 763 890 823 181 25 1 89 23 26 37 365 706 749 1198 2218 2370 2732 2655 2385 2035
654 780 792 1030 964 1074 1069 525 1236 1178 663 804 877 1095 1031 1104 1290 1226 1284 769 878 919 911 889 870 863 125 15 0 0 12 32 37 18 119 242 941 982 1725 2065 2131 2198 1918
765 767 732 925 948 890 1104 1260 1161 1032 827 1006 1062 1028 1019 1073 1432 1249 1098 1000 919 978 810 925 702 378 18 3 0 2 19 26 39 56 68 531 698 868 814 1426 1692 2005 1476
771 793 833 741 855 890 1049 1603 1030 951 906 950 974 1104 1289 1412 1298 732 1077 1133 904 1104 884 733 239 98 0 0 7 0 13 16 31 32 13 387 730 888 738 678 911 865 1608
674 822 994 863 819 861 1004 1426 999 668 792 992 1075 884 1485 1479 1458 941 888 1290 1193 1045 620 401 86 0 0 0 0 0 20 17 17 17 18 567 236 535 658 540 940 1028 1166
645 949 1001 868 727 753 1006 1037 949 726 852 970 1092 906 884 1020 1233 1007 1051 1153 1184 1099 641 442 9 0 0 0 0 0 3 19 2 19 22 41 197 235 265 387 455 488 362
742 849 920 938 833 925 1016 944 947 892 1309 1416 1355 957 1067 1034 1145 1248 1357 931 942 1124 889 280 17 0 0 30 0 0 0 0 23 15 12 11 4 6 13 15 271 272 132
608 776 744 1124 1088 1065 1123 1006 1004 777 1205 1402 1468 1227 1529 1304 1219 1402 903 1012 803 804 629 448 0 1 3 4 0 0 0 0 1 0 5 0 0 0 0 0 0 110 222
545 621 683 866 1450 1357 1244 1116 1008 873 1043 1064 1115 1282 1577 1594 1407 1323 1019 1001 857 741 600 207 29 3 33 0 0 1 0 0 0 0 0 0 0 0 0 0 0 4 239
369 692 637 562 1582 1642 1473 1281 1122 1016 898 722 759 1210 1428 1712 1671 1311 1172 1218 886 662 257 23 1 0 57 69 6 37 0 0 0 0 0 0 0 0 0 0 0 0 0

GFSSE_con_mucape_021.txt.gz
CAPE
70 92 348 934 1188 1957 2587 2632 2828 2956 2988 2930 2786 2647 2287 2051 2144 2239 2188 2045 1959 1939 1898 1896 1927 1707 1556 1680 1557 1665 1502 1281 1092 638 843 1165 1408 1512 1193 1368 875 669 1558
15 93 695 972 1737 2331 2456 2566 2677 2962 2719 2482 2502 2368 1934 2044 2210 2175 1992 2015 1987 2056 2019 1890 1860 1783 1694 1659 1476 1574 1424 1417 1168 696 615 1004 1102 1288 1418 1268 528 445 899
0 140 558 1254 1877 1990 2336 2600 2435 2482 2285 2406 2246 2100 2004 2111 2132 2062 2013 1937 1856 1806 1797 2161 2008 1833 1669 1560 1422 1296 1001 1082 1415 889 1151 880 655 1434 1458 677 834 1086 1263
79 224 654 1361 2203 1866 2233 2412 2579 2247 2268 2231 2137 2200 2156 2159 1985 1895 1830 1744 1786 1845 1820 1830 1905 2054 1753 1596 1472 1298 1222 1156 1328 1050 694 515 832 1562 1306 818 1201 1080 1180
170 413 730 1577 2218 1800 1986 2240 2448 2644 2117 2024 2031 2077 2117 1979 1822 1733 1675 1708 1774 1797 1864 1887 1841 1831 1735 1627 1131 1187 1384 1566 1626 1004 484 497 1110 1326 1354 862 834 1295 1309
379 674 1123 1875 1652 1669 1791 1842 1918 2059 2197 2076 1995 2020 2065 1895 1748 1615 1576 1598 1778 1846 1885 1663 1753 1677 1802 1542 1417 1362 1713 954 1065 729 498 1016 1132 1269 1420 875 1310 1422 1491
583 846 1108 2093 2109 1904 1690 1665 1613 1717 2121 2275 2007 1952 2060 1811 1681 1519 1397 1547 1668 1933 1927 1614 1616 1673 1527 1438 1678 1489 1819 1588 352 530 681 725 959 1452 1419 1489 1522 1310 1447
546 907 1221 1655 1777 1787 1684 1740 1646 1620 1920 2181 2054 1930 2017 1943 1629 1524 1462 1541 1760 1776 1827 1682 1626 1660 1404 1423 1867 1487 1246 1275 444 181 539 758 1312 1588 1442 1520 1221 609 1134
741 918 1112 1033 1163 1597 1845 1685 1695 1596 1770 2089 1981 1975 1921 1997 1673 1452 1258 1489 1405 1598 1663 1755 1678 1549 1483 1514 1716 1521 1101 1463 307 336 231 982 2227 1833 1419 1200 1422 783 704
895 1084 1157 1033 991 1292 1411 1678 1692 1643 1691 1912 1917 1916 1863 1749 1607 1616 1289 1490 1622 1417 1751 1845 1725 1692 1553 1462 1796 1993 1164 523 119 156 79 437 2280 1646 1296 1076 1342 1263 525
726 1113 1283 1222 1075 1595 1620 1635 1916 1873 1735 1836 1851 1862 2080 1487 1283 1433 1336 1370 1553 1697 1205 1018 1181 2090 1846 1564 2192 2277 1624 536 138 56 51 359 1913 1053 1118 1448 1270 1402 1105
479 866 1166 1317 1371 1578 1620 1650 1702 1643 1551 1660 1647 1618 1709 989 859 1375 1364 1603 1526 1807 438 1446 1986 1921 1389 641 478 1514 1628 834 207 89 106 254 1506 1289 1285 1417 1295 1279 1539
384 586 900 1277 1450 1432 1378 1376 1501 1538 1575 1617 1461 1227 1117 766 624 1611 773 611 781 30 132 429 653 731 990 640 99 69 526 348 325 123 97 854 1409 1919 1604 1576 1500 1333 1559
307 414 691 1025 1238 1242 1103 1226 1319 1315 1190 965 826 697 419 640 751 1174 446 366 488 319 359 443 506 850 867 601 296 48 247 300 263 304 304 1360 1956 2008 1781 1802 1955 1549 1492
331 400 512 811 945 1047 761 1089 1002 960 810 486 180 334 595 629 619 789 401 437 561 298 435 446 629 970 1003 851 492 650 217 313 378 439 329 1202 1907 2209 1746 1639 1976 1569 1551
443 545 543 594 672 773 512 558 836 693 581 308 142 483 661 858 671 486 395 689 753 775 693 792 929 694 546 198 181 342 351 241 336 559 442 554 1955 2216 2484 1600 1808 1804 1581
515 631 647 628 586 557 418 390 307 333 493 403 269 790 607 844 983 706 645 946 912 922 847 737 688 698 181 40 39 70 27 10 153 613 420 491 879 1842 2497 2501 2185 1937 1591
540 617 679 843 737 572 537 562 404 244 384 493 518 490 821 831 976 915 961 1083 673 1075 909 786 810 729 195 7 12 0 9 21 23 141 303 517 558 700 1130 2112 2255 2169 1614
552 601 658 811 777 677 636 744 846 982 1025 709 706 766 842 935 1055 1045 991 709 822 800 752 822 735 477 163 3 0 0 12 20 30 27 33 332 489 729 569 1455 1381 1994 1420
551 568 657 749 791 762 654 806 1036 1060 776 448 646 782 869 1008 1076 1199 957 884 815 886 809 776 732 151 4 0 0 0 16 16 50 49 35 224 478 662 597 508 873 974 1502
424 574 592 702 796 740 757 874 672 748 938 802 899 882 954 934 1042 1142 702 980 815 925 859 655 330 21 0 0 0 0 11 14 31 21 280 495 593 604 455 442 549 844 1112
394 568 579 653 653 781 615 839 941 914 850 715 856 826 947 1084 1163 1122 769 987 1009 1086 753 441 187 7 0 0 0 0 5 0 12 13 202 110 248 442 307 496 768 691 440
339 539 597 618 605 541 506 711 1067 905 693 602 630 1012 757 1166 1330 1206 912 916 1065 1063 838 520 231 8 0 12 0 0 0 0 0 0 25 45 49 109 75 131 374 278 140
365 463 590 657 616 542 482 580 691 691 634 710 722 831 948 815 806 1022 946 1107 985 820 762 764 264 0 0 10 0 0 0 0 0 0 0 1 6 2 1 2 159 231 125
342 508 659 679 646 637 456 580 591 535 491 610 1091 1206 1223 973 935 967 957 1127 722 738 1015 698 299 0 0 0 0 0 0 0 0 0 0 0 0 0 0 0 0 10 197
357 494 657 681 687 685 552 666 737 738 601 587 961 1247 1281 1266 1349 1235 1070 1091 826 625 525 418 94 5 6 0 0 0 0 0 0 0 0 0 0 0 0 0 0 0 10

GFSSE_con_mucape_024.txt.gz
CAPE
33 98 443 481 1348 1649 2224 2094 2684 2924 2839 2826 2898 2631 2076 1904 1998 2063 2002 1911 1897 1882 1969 1964 1540 1600 1568 1368 1663 1265 1198 975 638 825 1009 1508 1487 1244 1335 954 1225 1370 1813
18 153 601 497 1325 2144 2441 2533 2821 2721 2562 2636 2630 2387 2097 2119 1998 1929 1912 1953 2119 2091 1807 1813 1684 1677 1449 1430 1469 1515 1340 1118 562 800 1112 1199 1334 1266 1422 589 739 1248 1581
14 206 440 1229 1917 2240 2452 2674 2422 2214 2057 2362 2371 2100 1947 1910 1919 1931 1865 1779 1711 1720 1895 1871 1735 1603 1527 1479 1209 1074 1173 1253 810 1020 1162 856 1185 1404 849 484 670 834 1155
41 255 350 1027 2231 2152 2265 2548 2529 1878 1907 2063 2179 2197 2093 1949 1825 1763 1712 1725 1887 1879 1804 1753 1611 1651 1538 1410 1323 1255 1113 1372 978 1103 786 730 1100 1373 715 1498 1205 1368 1436
73 316 466 1669 2311 2051 2062 2436 2712 2330 1910 1984 2029 2088 1934 1823 1694 1631 1669 1773 1792 1876 1844 1739 1692 1358 1500 1222 1143 1230 1390 1411 1448 785 419 901 1237 1290 1051 1126 1215 1275 1359
196 463 1167 1809 1742 1919 2072 2246 2227 1877 1793 1856 1973 1982 1875 1755 1623 1592 1636 1736 1865 1958 1682 1641 1574 1607 1346 1271 1249 1418 1399 1329 1420 586 408 1463 1307 1471 661 1181 1619 1615 1420
444 594 965 2098 2089 1883 1845 2037 2012 2004 1910 1930 1979 2044 1859 1711 1580 1456 1511 1689 1890 1926 1710 1590 1621 1484 1404 1451 1241 1553 1606 1429 830 568 893 970 1197 1754 1205 1423 1476 1496 1510
522 776 1212 1845 1755 1724 1664 1618 1696 1945 2115 1956 1899 2018 1907 1728 1586 1509 1540 1698 1836 1861 1754 1578 1641 1521 1354 1705 1665 1605 1499 880 191 757 760 905 1665 1642 1426 1507 1195 1351 1459
729 920 1166 1167 1452 1653 1615 1559 1531 1690 2001 2019 1976 1887 2005 1872 1548 1389 1379 1602 1525 1720 1731 1613 1596 1506 1476 1533 1877 1421 1631 1558 343 507 548 1024 1771 1748 1598 1119 841 699 1334
754 894 1005 1046 1150 1272 1351 1658 1581 1535 1821 1942 1969 1907 1885 1746 1587 1617 1264 1621 1785 1606 1181 1646 1662 1535 1484 1488 1652 2006 1187 1284 293 327 253 982 2213 1748 1539 855 1440 432 1435
808 909 951 892 977 1177 1258 1312 1622 1580 1587 1790 1781 1828 1832 1501 1241 1503 1492 1422 1680 1787 1397 1099 1460 1909 1649 1665 2047 1830 1554 506 85 49 42 514 1758 1467 1329 1239 1211 665 854
540 897 917 895 906 1233 1468 1343 1358 1337 1339 1392 1558 1525 1754 1115 803 1572 1694 1679 1571 1788 310 1417 1966 1727 1191 536 153 1715 1540 757 97 33 55 309 1688 1292 1091 1540 1218 1376 1063
409 739 957 987 989 1234 1430 1475 1567 1505 1491 1391 1444 1390 1244 846 478 1196 1082 574 927 345 262 456 546 780 919 267 1 107 620 661 155 42 64 394 1396 1551 1334 1367 1273 1299 1318
310 581 866 1026 1087 1182 1259 1330 1414 1379 1436 1351 1270 1088 716 611 655 900 865 442 415 353 230 535 718 840 750 409 55 58 101 150 127 167 127 946 1286 1461 1298 1568 1424 1473 1464
240 435 682 945 1106 1114 1059 1125 1130 1160 1167 1043 824 556 374 344 402 654 780 255 426 382 370 366 648 860 1067 702 450 161 110 169 223 214 392 841 1535 1739 1547 1328 1957 1605 1332
179 282 453 730 991 1063 973 833 908 924 846 671 349 124 346 567 611 529 560 403 553 591 569 635 842 701 594 201 126 261 319 177 214 404 433 277 1579 1774 1851 1580 1363 1786 1501
173 184 322 485 689 812 811 535 588 673 536 404 201 147 531 590 739 780 400 516 755 803 777 546 645 744 102 13 61 25 8 21 42 537 534 400 758 1140 1843 1523 1622 1240 1412
243 306 351 403 462 539 508 395 151 390 373 260 243 295 536 562 576 915 733 703 875 774 838 670 657 805 409 19 9 6 6 24 26 379 390 545 630 793 1034 1533 1774 1989 1266
305 407 463 434 412 373 317 249 212 79 37 157 375 365 491 651 700 768 799 786 848 749 742 701 693 459 308 21 10 0 9 15 32 23 30 218 342 922 708 990 1358 1679 1153
311 404 485 542 531 413 258 275 291 307 345 315 539 611 613 681 835 847 833 859 560 755 710 620 692 421 0 2 1 0 6 22 24 35 71 213 497 840 728 788 1230 1225 1239
291 400 472 565 607 582 394 398 441 469 791 1003 678 427 580 674 872 883 896 835 690 603 764 664 455 93 0 0 0 0 5 12 38 17 160 375 667 676 483 510 718 943 1257
271 352 447 491 576 625 450 467 550 586 775 848 524 680 737 734 830 875 932 841 741 640 832 592 317 105 0 0 0 0 0 0 12 12 153 159 216 357 395 527 859 915 757
139 294 375 469 521 603 524 492 634 688 625 591 765 683 683 785 895 850 823 910 785 851 925 687 365 116 0 0 0 0 0 0 0 2 17 37 58 70 35 178 455 384 168
250 182 299 359 454 527 565 472 534 574 533 526 772 683 733 731 852 879 999 1036 773 949 867 675 588 194 0 0 0 0 0 0 0 0 0 33 20 24 0 0 129 356 141
449 289 236 306 383 410 523 513 461 556 593 560 594 503 468 717 682 1021 1160 1090 886 945 767 565 658 335 0 0 0 0 0 0 0 0 0 0 0 0 0 0 0 42 309
450 474 343 303 339 389 438 522 398 400 407 465 456 464 424 638 774 789 771 829 908 1004 549 676 771 311 0 0 0 0 0 0 0 0 0 0 0 0 0 0 0 0 7

GFSSE_con_mucape_027.txt.gz
CAPE
194 268 547 711 919 1249 1830 2358 2581 2846 2817 2668 2760 2480 2044 1874 1940 1918 1922 1915 1965 2005 2024 1661 1842 1714 1471 1644 1285 1270 1016 711 901 1021 1472 1420 1123 1094 1311 1587 1474 1253 1814
197 292 595 953 1264 1845 1967 2355 2407 2872 2728 2653 2365 1965 1973 1953 1897 1906 1924 2159 2119 1884 1794 1726 1697 1508 1441 1613 1617 1439 1269 710 653 1207 1247 1384 1290 1464 756 1099 1314 1656 1696
83 281 453 1308 1678 1863 2065 2516 2651 2515 2192 2263 2317 2177 1891 1863 1905 1876 1803 1692 1804 1931 1820 1775 1683 1639 1489 1382 1414 1194 1310 943 799 1227 978 859 1016 1181 463 590 1308 1541 1421
102 159 389 1542 2040 1891 2286 2696 2606 1996 1971 2055 2032 1973 1845 1861 1826 1725 1755 1945 2039 1955 1649 1631 1640 1518 1519 1376 1178 1123 1330 1168 995 1258 900 879 920 679 1145 946 1353 1229 1107
129 316 661 1838 2415 2266 2391 2487 2547 2330 1976 2031 2028 1955 1826 1721 1629 1660 1792 1915 2092 1981 1768 1806 1526 1437 1383 1224 1226 1120 1469 1567 1063 552 1143 1269 1040 846 1385 1350 1460 1475 1013
182 315 1275 2010 1787 2227 2363 2377 1971 1935 1957 1971 2050 1858 1741 1579 1588 1699 1778 2013 2103 1897 1656 1653 1657 1563 1314 1251 1050 1005 1099 1268 1147 498 1013 1238 1172 1011 996 1310 1247 1428 1255
167 515 1230 2139 2312 2342 2335 2252 1876 1780 1890 1995 1980 1897 1797 1588 1525 1550 1718 1889 1962 1805 1654 1652 1530 1494 1505 1649 1257 1618 1327 1231 1102 799 1045 1290 1324 1001 1488 1711 1507 1518 1538
248 599 1082 1925 2121 2167 2244 1996 1965 1847 1931 1982 2033 1947 1818 1699 1599 1579 1702 1891 1884 1750 1601 1637 1567 1364 1498 1785 1694 1567 1519 769 915 1043 956 1287 1251 1395 1601 1487 1489 1563 1534
374 658 855 1174 1540 1734 1821 1790 1890 1983 1978 1934 1913 1990 1971 1696 1533 1372 1592 1594 1679 1700 1581 1607 1555 1490 1452 1833 1698 1636 1648 681 795 1037 595 1165 1485 1423 1565 1099 1226 1536 1159
545 709 886 917 1069 1200 1416 1530 1601 1819 1936 1981 1908 1816 1839 1677 1578 1678 1267 1791 1576 1427 1384 1599 1462 1387 1412 1460 1930 1712 1726 1244 688 744 975 1085 1725 1632 1174 1412 514 1129 778
644 741 750 880 1359 1610 1447 1404 1493 1500 1739 1840 1759 1787 1643 1577 1708 1633 1665 1454 1720 1582 1505 1328 1615 1706 1461 1647 1746 1796 1579 1151 349 229 374 893 1637 1668 1253 1522 1044 1151 571
614 765 701 701 1043 1273 1047 1529 1650 1322 1022 1207 1332 1727 1710 1747 1733 1820 1876 1713 1851 831 566 1537 1653 1712 1360 855 364 1745 1493 1372 414 172 184 391 1428 1429 1206 1199 1587 646 932
323 467 672 795 1122 1060 897 1228 1477 1371 1417 1399 1768 1791 1633 1594 1496 1606 1776 1362 1576 593 422 1172 1340 1503 1324 524 224 259 1469 1466 638 299 124 339 1280 1195 1214 1530 1172 1327 1206
318 356 496 697 1086 1131 1115 1120 1320 1381 1363 1269 1227 1852 1621 1371 1621 1782 1822 1396 1556 1237 1078 1531 1525 1781 1519 1395 472 242 529 614 601 560 308 433 984 1077 1166 1442 1533 1265 1424
287 337 523 771 1108 1244 1373 1128 1285 1596 1297 1127 1341 1277 1130 911 1313 1566 1932 1497 1340 1493 1170 1373 2075 1655 1783 1192 864 648 403 638 733 788 755 896 1312 1486 1140 1402 1519 1715 1284
291 381 545 804 1030 1206 1256 1364 1369 1531 1259 1355 964 834 1138 1145 1546 1528 1734 1514 1406 1680 1586 1408 1946 1701 529 282 388 1041 927 424 763 992 866 665 976 1385 1364 1215 1332 1635 1332
405 544 713 880 1064 1410 1362 1296 1259 1185 994 882 741 954 835 1207 1754 1943 1658 1371 1526 1909 1972 1521 1551 1610 507 16 41 216 225 264 308 899 987 739 716 970 1300 1243 1180 1197 1639
486 638 756 662 888 1248 1351 1368 1117 872 792 653 595 632 817 1049 1711 1935 1860 1517 1647 1772 2047 1662 2009 1752 1076 24 45 66 133 237 344 762 842 928 935 582 817 1241 1193 1052 1103
686 672 715 773 769 1004 1231 1157 1052 728 741 558 607 693 879 1238 1645 1820 1835 1832 2008 1716 1718 1566 1448 1218 398 59 173 64 163 217 120 166 355 750 977 965 724 708 972 1239 1036
742 816 789 792 860 1059 1004 1024 789 613 389 421 512 619 1215 1496 1717 1967 1782 2069 1890 1520 1588 1436 1522 560 96 141 7 50 37 284 308 311 368 593 1195 1276 1040 1114 1046 884 884
732 905 1072 1147 1311 1066 929 787 622 477 432 730 1104 1300 1413 1656 1861 2150 1877 2135 1875 1654 1736 1685 1038 612 54 33 0 68 34 59 47 101 697 500 1068 1026 966 1141 1046 1005 1041
780 1029 1389 1454 1647 1471 1132 1178 720 766 513 1189 1649 1767 1705 1753 2013 2117 2140 2056 1910 1582 1815 1611 997 240 38 55 24 53 13 44 17 8 500 395 752 310 157 212 1234 1480 1081
861 1179 1525 1911 2078 1805 1724 1197 1042 1061 1248 1441 1636 1668 1690 1958 2121 2221 2222 2043 2031 1900 1716 1724 937 419 54 161 60 52 16 1 62 0 221 266 450 174 66 195 479 851 901
1097 1041 1616 1766 2097 1674 2058 1614 1813 1117 873 1117 1501 1642 1768 1932 2070 2164 2262 2025 2113 1846 1948 1705 819 420 131 95 40 4 66 232 0 0 0 130 118 85 47 34 153 290 511
751 795 1268 1882 2052 2095 2178 2041 1704 1791 1213 1294 1335 1993 2708 2193 2038 2042 2238 2176 2213 2044 2015 1560 782 503 240 39 80 1 0 0 0 0 2 0 30 22 22 47 38 114 353
679 549 901 1704 1891 2065 1992 2069 2302 2307 1903 1381 1459 1402 1409 1546 1645 1996 2186 2444 2461 2142 2130 1782 1103 752 376 134 174 119 3 0 0 0 1 0 0 0 0 6 25 51 68

GFSSE_con_mucape_030.txt.gz
CAPE
0 219 500 663 895 1371 2119 2300 3044 3066 2514 2189 2233 2170 1904 1956 1974 1935 1914 1868 1573 1762 1826 1754 1726 1513 1728 1322 1362 1110 802 893 977 1492 1497 1328 1429 1481 1615 1592 1597 1165 1916
218 432 518 780 986 1593 1647 2660 2829 2702 2285 2387 2115 1869 1941 1883 1932 2007 1781 1909 1960 1811 1867 1823 1633 1508 1712 1700 1600 1500 890 711 1093 1401 1380 1333 1448 1091 1386 1466 2289 1774 1859
87 422 772 1493 1553 1567 2327 2517 2683 2351 2142 2019 1991 2022 1889 1955 1923 1864 1677 1837 1981 1901 1856 1810 1712 1500 1444 1571 1344 1467 1221 873 1344 1109 1185 792 1117 722 659 1606 1829 1739 1768
317 199 836 1508 1985 1980 2170 2679 2672 2002 1981 2106 2066 1974 1976 1959 1857 1777 1906 1955 1573 1823 1771 1691 1595 1536 1499 1239 1219 1433 1388 928 1375 1106 1083 669 287 538 611 1339 1413 1563 1766
58 554 1081 1549 2092 2127 2367 2608 2637 2202 1953 2074 1999 1942 1908 1792 1774 1795 1824 2045 1917 1818 1893 1748 1451 1510 1364 1185 1111 1304 1514 1054 1093 1090 1020 1461 359 1256 1292 1247 1507 1187 985
439 600 1320 1898 2006 2233 2266 2188 1965 1970 2010 2070 1956 1831 1705 1688 1793 1827 2126 1997 1986 1728 1753 1688 1652 1535 1376 1130 1045 1016 1124 1250 1062 395 1144 969 744 1297 1332 1138 1431 1080 911
499 633 1230 2295 2438 2473 2191 2071 2014 2007 2055 2068 1922 1858 1703 1644 1666 1780 2005 1914 1860 1710 1668 1598 1538 1554 1639 1513 1511 1505 1172 1006 1049 409 1020 1315 525 1206 1165 1410 1482 1409 1384
532 490 892 2053 2316 2679 2273 1942 1877 1925 2038 2076 2035 1905 1804 1676 1677 1745 1900 1899 1823 1640 1618 1593 1469 1472 1801 1717 1648 1750 1235 773 1189 491 748 1190 1365 1418 1492 1648 1627 1578 1458
485 328 528 793 1675 2108 2189 1968 1899 1935 2006 2084 2078 1952 1754 1607 1530 1524 1662 1659 1753 1648 1663 1620 1551 1505 1607 1762 1706 1719 951 661 1206 936 638 654 1220 1336 1563 1564 1695 1560 1683
443 301 466 682 985 1361 1596 1935 1989 1995 2010 1963 1891 1900 1862 1721 1645 1712 1474 1810 1608 1390 1496 1634 1558 1438 1464 1620 1834 1758 1868 1084 960 1056 584 1365 1527 1487 1263 717 1439 1108 889
389 276 364 522 836 1109 992 1343 1679 1804 1863 1875 1835 1758 1645 1940 1856 1774 1517 1696 1642 1401 1393 1804 1774 1737 1474 1828 1878 1941 2003 788 594 574 945 1450 1511 1439 1396 1163 625 1080 472
515 303 284 431 648 866 613 1064 1087 749 602 952 994 1381 1793 1960 1987 1640 1796 1650 1881 287 1237 1655 1517 1606 1557 173 377 1755 1354 852 429 445 623 1232 1492 1554 996 1684 972 1404 522
777 353 273 490 770 762 687 998 998 852 752 1094 1560 1838 1935 1767 1808 1817 1742 1407 1455 582 1217 1543 1526 1314 495 174 45 45 367 266 148 153 242 469 1199 1309 1068 1208 1465 879 920
826 517 345 445 782 780 693 755 750 696 736 548 671 1586 1791 1811 1813 1933 1533 1402 1330 1099 1479 1420 1222 1329 878 663 382 51 50 71 134 117 460 682 1083 876 1335 1494 1355 1434 1364
710 674 600 631 938 906 930 566 462 714 689 431 682 1097 1434 1460 1716 1769 1883 1484 1628 1514 1355 1290 1026 1199 1241 1237 824 197 100 117 146 157 623 994 1075 1115 974 1260 1635 1332 1567
573 512 513 679 964 1052 1092 1142 993 1070 766 772 480 485 1274 1435 1804 1721 1618 1470 1488 1609 1615 1783 1194 1337 762 448 903 593 54 87 79 117 285 741 1079 1238 957 1145 1330 1636 1508
503 461 508 724 840 1177 1334 1504 1399 931 868 654 408 685 1105 1570 2171 2527 2149 1604 1486 2021 1470 1549 1123 1024 530 133 418 48 60 128 141 83 273 531 646 951 1127 915 1171 1458 1722
493 581 704 638 801 1176 1309 1469 1097 879 839 469 224 539 1109 1332 2051 2457 1741 1349 1828 2063 1387 1489 1079 784 399 125 83 45 40 143 222 168 247 504 298 501 764 775 780 1127 1071
640 797 1031 1045 982 1290 1606 1511 1335 1081 865 326 213 558 1011 1392 1773 2375 2081 1870 2304 1714 1687 1253 1149 1040 269 164 159 53 31 85 202 52 78 269 444 279 431 722 770 745 837
1001 1037 1286 1281 1347 1592 1580 1732 1316 896 541 337 365 513 912 1520 1718 2383 2010 1625 1604 1532 1446 1373 1094 849 356 166 21 3 47 71 73 65 43 71 446 395 396 717 860 780 828
1066 1250 1373 1430 1829 1695 1602 1374 1048 590 379 287 425 782 1310 1939 2271 2720 2203 1964 2158 1633 1536 1387 1247 1089 226 131 3 27 46 51 54 51 54 53 56 57 44 201 381 478 672
1025 1221 1603 1602 2092 2039 1629 1728 901 585 321 342 552 1237 1932 2149 2544 2654 2738 2092 2072 1721 1985 1903 1449 627 228 2 22 38 43 38 31 47 46 36 23 24 3 3 706 693 642
958 1247 1705 2099 2336 2204 2216 1600 1204 755 618 629 932 1737 2324 2504 2523 2890 2515 1792 2301 2338 1833 2165 1792 1161 139 21 156 118 18 30 30 18 122 44 34 27 14 26 34 306 248
1015 1247 1675 2372 2408 2480 2375 2170 2674 992 657 662 1134 1525 1788 2292 2420 2524 2570 2486 2862 2091 2012 2639 1821 1242 1153 12 54 4 253 546 26 39 12 36 19 27 17 16 30 37 44
1011 1183 1499 2473 3190 3191 2974 2882 2084 2123 930 704 852 2667 3344 2636 2425 2170 2592 2836 2852 2643 2336 2610 2033 1887 1062 54 1 0 16 0 58 14 46 34 74 27 43 33 36 51 61
1056 1245 1418 2832 3255 3271 2926 2526 3228 3362 2578 1229 1722 1467 1510 1655 2036 2375 2400 2881 2912 2707 2640 2716 2470 1931 1611 515 16 80 0 0 0 5 5 18 36 88 44 19 35 42 55

GFSSE_con_mucape_033.txt.gz
CAPE
8 112 239 821 1282 1520 2092 2301 2301 2430 2096 2005 2330 1918 2011 2037 1885 1964 1648 1790 1865 1829 1811 1800 1590 1833 1388 1553 1350 764 768 973 1579 1651 1631 1681 1667 1546 1537 1590 1978 1295 1905
0 100 576 933 1366 1752 2228 2856 2593 2317 2083 2359 1972 2026 1889 1973 2065 1936 1903 1975 1784 1821 1779 1687 1557 1736 1705 1694 1518 935 780 1172 1360 1365 1303 1414 1239 1421 1577 1619 2284 1912 1996
18 244 448 1556 1787 1665 2233 2674 2233 2039 2220 1992 2054 1932 1939 2044 1774 1721 1904 1963 1938 1857 1853 1796 1542 1479 1603 1480 1506 1337 957 1398 1187 1165 1171 869 479 642 1590 1817 1931 1913 1877
75 218 305 1870 2047 2037 2331 2458 2461 2018 2026 2167 1991 2040 2084 1980 1796 1879 1936 1721 1915 1840 1747 1640 1564 1521 1307 1218 1445 1483 930 1361 1109 756 1254 333 0 483 1287 1638 1782 1815 1750
183 646 1064 1752 1930 2151 2235 2270 2260 1923 2074 2000 1926 1978 1870 1852 1681 1764 1677 1880 1834 1911 1824 1494 1547 1415 1207 1044 1194 1516 1191 938 983 1051 914 1162 1032 1246 1029 1331 1113 1442 1247
467 538 1236 1668 1889 2005 2021 2088 1866 1829 2033 1980 1788 1683 1734 1923 1963 1981 1765 1950 1679 1758 1712 1708 1667 1531 1378 1209 1098 1094 1013 1091 1063 1171 1260 973 1136 1147 1042 1121 1375 955 1197
645 817 1321 2074 2305 2241 1997 1909 1861 1936 2073 1847 1736 1652 1725 1753 1781 2041 2022 1863 1725 1669 1653 1579 1580 1683 1684 1595 1523 1149 960 977 783 910 1192 602 784 1438 1503 1553 1340 1378 1163
545 376 1330 2004 2281 2237 1882 1886 1948 1975 1964 1912 1833 1742 1721 1732 1798 1950 2017 1909 1694 1635 1607 1540 1503 1729 1739 1716 1645 1273 829 982 734 656 1554 868 1672 1597 1565 1622 1585 1488 1423
245 348 879 1161 1639 1895 2063 1794 1826 1885 1950 2010 1919 1809 1681 1617 1584 1697 1735 1833 1770 1724 1696 1651 1545 1566 1787 1694 1718 1304 655 850 1751 460 558 980 1849 1490 1578 1644 1645 1590 1557
303 163 327 593 975 1225 1336 1702 1750 1848 1904 1997 1996 1888 1820 1763 1787 1521 1830 1728 1609 1539 1495 1623 1471 1466 1635 1859 1793 1894 1437 1139 1265 336 849 1227 1508 1490 1107 1705 1474 1364 1535
272 140 109 354 770 1120 1037 1563 1767 1778 1821 1784 1755 1825 1740 2325 2056 1937 1847 1588 1396 1378 1440 1712 1789 1692 1684 1858 2181 1994 1933 1115 630 1045 1122 1958 1696 1445 1225 521 1645 666 1265
270 153 164 339 506 693 428 1110 1036 838 821 1073 1303 1398 1279 1971 1783 1653 1458 1661 1760 623 1356 1512 1249 1659 2081 1051 1328 2376 1816 601 388 767 901 2060 1746 1457 1588 819 1465 527 490
355 251 284 376 557 467 1021 469 640 444 651 1065 1572 1860 1423 1653 1800 794 1099 1052 1438 940 848 1116 1207 1524 303 487 69 1057 692 483 166 414 696 1402 1361 1520 1114 1650 1109 1142 528
574 278 253 407 760 505 661 486 490 465 522 589 1083 1879 2302 1508 1538 1378 1637 1568 1440 1538 1557 1514 1257 1373 1422 1037 336 40 52 175 69 493 455 964 777 1192 1133 1348 1363 1173 1093
618 357 276 469 1341 1307 923 534 528 465 379 327 766 1503 1669 1957 2001 1822 1624 1754 1614 1741 2019 1795 1352 1444 1093 878 902 979 100 3 44 420 257 895 946 919 1277 1465 1445 1390 1458
725 520 400 504 918 1022 1382 1147 645 575 564 440 435 862 1657 1701 1630 1950 1654 1926 1919 2043 1308 1287 1359 1260 1128 750 380 433 68 65 18 321 346 688 1406 1109 1028 1138 1609 1628 1408
765 645 634 687 882 1047 1193 1230 1048 711 574 493 446 711 1305 1646 2074 2187 1665 1528 2105 2532 1609 1640 1362 1611 577 251 168 16 47 89 30 37 644 370 668 1551 1035 1082 1244 1631 1772
734 886 758 558 792 1099 1287 1450 1117 758 609 519 318 536 1232 1665 2186 2445 1784 1436 2049 1846 951 2006 740 380 735 29 44 46 178 28 78 2 143 618 616 290 1207 1191 1092 1284 1402
793 984 887 779 707 1097 1929 1496 1310 1820 806 514 229 301 1718 1548 1848 2493 1214 1177 2288 1963 1404 653 1077 756 46 48 39 53 58 22 257 34 27 45 368 491 357 1410 1400 1059 1029
728 807 1369 967 2108 2608 1859 2275 1308 873 794 499 215 209 2150 1614 1804 2390 2334 2091 1592 1901 1831 1370 1262 272 389 18 28 8 51 57 58 68 23 284 49 41 451 947 618 820 1282
658 886 1868 1960 2830 2158 1653 1410 1267 818 890 350 288 909 1117 1398 2003 2487 2324 2759 1864 2488 1684 1351 1306 914 688 25 11 27 42 26 32 41 54 54 47 62 19 134 986 598 604
993 1745 2552 2813 3513 2966 1970 2285 1523 1531 418 251 205 1481 1190 1616 2150 2557 2953 2358 2226 1648 1886 1936 1420 1253 37 0 182 39 38 30 37 45 34 22 31 20 7 12 82 1067 920
1158 2049 2590 3218 3524 3159 2930 2569 2345 1649 1281 389 457 629 1455 1989 2232 3457 2545 2250 2464 2560 3146 2250 1603 1042 265 0 413 273 191 99 18 1 17 36 5 15 4 4 31 83 339
1045 1520 2755 3397 3571 3383 3477 2262 2604 1175 625 406 653 533 1423 2762 2280 2473 2477 2032 2848 2162 2768 2244 1784 1605 1262 60 0 21 602 652 452 124 45 24 20 14 4 38 31 23 38
851 1107 1975 3512 3768 3534 3464 3256 2158 2075 640 470 484 1862 2456 3676 2594 2041 3206 2890 3157 2774 3384 2420 2358 2162 1094 529 0 0 0 0 0 118 181 263 20 21 52 26 64 116 80
677 931 1967 3500 4094 4069 4080 3645 4043 2723 2229 815 907 977 1214 1381 2328 3464 2722 3743 3848 3516 2553 2756 2856 2406 2096 898 194 49 23 41 65 44 17 442 272 307 26 32 27 32 77

GFSSE_con_mucape_036.txt.gz
CAPE
60 179 453 1203 1980 2163 2421 2240 2385 2448 2439 2639 2496 2531 2350 2495 2547 2442 2420 2390 2336 2252 2267 1846 1783 1451 1648 1646 741 581 894 1510 1632 1671 1739 1728 1624 1598 1627 1500 2114 1523 2285
32 203 620 1261 1718 2196 2593 2510 2481 2533 2681 2494 2586 2378 2371 2146 1919 2565 2427 1992 2074 2117 1703 1561 1718 1717 1737 1571 1018 984 1218 1295 1373 1391 1270 1429 1517 1682 1667 2130 1978 1824 1810
43 202 657 1659 1675 2290 2496 2498 2450 2642 2414 2552 2436 2315 2514 2179 2357 2403 1927 2057 2072 1930 1799 1556 1548 1645 1578 1549 1381 845 1437 1281 1099 929 890 746 722 1533 1406 1582 2078 2026 1681
0 103 397 1827 2177 2195 2482 2483 2468 2086 2157 2464 2102 2587 2495 2093 2305 1944 1797 1934 1785 1730 1680 1607 1544 1373 1270 1446 1533 975 1107 1213 935 600 905 586 39 1250 1287 1778 1784 1844 1896
0 77 1174 2124 2123 2048 2313 2478 2428 2445 2236 2045 2097 2235 2056 2026 2004 1744 1875 1779 1846 1790 1516 1573 1485 1295 1148 1192 1280 1356 948 901 944 1095 1306 1063 164 968 1241 1347 1452 1374 1694
54 384 1437 1847 1901 2232 2484 2377 2295 2232 1962 2205 1965 1690 1924 1897 1907 1801 1920 1670 1745 1731 1763 1764 1673 1557 1321 1224 1180 1128 956 972 1025 1037 1132 1373 932 1237 1213 1633 1259 1331 1429
404 863 952 2379 2538 2494 2365 2263 2210 2002 1805 1885 1764 1711 1760 1799 2018 2037 1828 1753 1707 1723 1665 1695 1795 1760 1647 1535 1176 1117 1022 1057 663 833 555 1105 1561 1944 1519 1148 1101 1082 1469
532 688 1064 2100 2380 2388 2166 2176 2325 2004 1680 1713 1653 1669 1688 1831 2047 2097 1962 1768 1694 1657 1612 1579 1686 1768 1752 1575 1405 1148 901 1167 848 1611 917 1196 2106 2039 1583 1566 1413 1332 1370
323 729 1073 1558 1779 2010 2317 1967 1878 1805 1762 1833 1717 1703 1707 1646 1777 1900 2137 2031 1788 1743 1650 1521 1511 1650 1667 1714 1569 1315 1074 967 1049 1357 978 1481 2238 1921 1752 1652 1611 1532 1475
174 396 1074 1428 1033 1207 1384 1717 1679 1695 1816 1862 1788 1696 1618 1563 1431 1671 2555 2337 1786 1653 1499 1459 1362 1379 1734 2016 1970 1513 1007 1196 1346 1090 1169 1576 2177 1510 1737 1575 1630 1608 1623
329 305 460 406 1129 1654 1496 1491 1628 1617 1734 1820 1678 1634 1576 2293 2084 1614 2350 2104 1380 1401 1317 1430 1414 1596 2224 2301 2276 2112 1796 1108 705 842 846 1865 2112 1030 921 1602 884 1609 1649
40 47 199 422 870 1109 544 1686 1829 1317 1294 1573 1215 103 521 1724 1636 1711 1712 2276 1621 903 1154 1746 1379 1758 2027 1418 1796 2589 1571 1818 991 878 1182 2287 2137 1553 820 1009 796 656 1244
96 0 207 748 1138 780 1055 1229 1207 1139 1236 1234 557 434 234 984 1149 2026 1350 1399 1880 1326 933 11 309 1153 1643 1353 1013 1269 1168 1712 582 361 1542 2289 2202 1426 1684 1170 1277 443 499
115 161 226 790 1331 1087 1000 516 900 728 795 1456 1285 1099 919 852 815 921 2024 2033 1810 987 664 787 1093 1635 822 737 930 1150 547 120 290 317 1497 1983 2080 1870 1475 1593 1247 1105 681
359 302 428 860 1585 2295 2119 708 728 1321 932 1108 2023 2555 927 1219 1446 1364 1787 745 1838 1385 873 1351 1862 1301 2121 1047 957 938 128 41 313 95 551 1663 1561 1947 1583 1559 1417 1419 1361
684 413 964 1065 1541 2524 2352 2923 1843 2169 845 1289 948 1916 2759 1781 1985 2290 2711 1655 1834 1436 880 1879 2934 2029 542 1099 1119 947 103 451 177 216 427 1168 1766 1695 1888 1859 1651 1538 1497
795 630 973 1166 1201 2252 2274 2157 2281 2028 490 1039 1429 2483 2231 2543 3019 1369 2646 2426 2483 3008 2891 2671 794 1087 772 255 697 723 302 43 418 97 250 291 1250 1825 1791 1852 2105 2161 1660
715 977 914 307 908 1298 1751 2206 2037 1273 1543 1645 1557 1743 2270 2299 2951 3494 2387 1653 963 1699 2694 1027 2237 1101 1207 1030 280 205 196 252 206 389 288 469 630 595 1448 1840 1986 1922 1429
1000 1344 1275 999 1065 1245 2075 1944 1631 1903 2081 1865 1874 1726 2589 2762 2748 2950 2211 947 2343 2656 2239 2099 1878 1094 1212 709 27 517 519 31 42 52 480 547 687 259 383 1720 1965 1976 1411
1390 1574 1577 1303 1999 1846 1760 2012 1764 1494 1840 1697 1873 1665 2519 2691 2739 3205 2303 2520 3000 2759 1740 1726 2341 1569 1044 696 12 128 70 271 62 331 140 184 668 563 289 572 1324 1148 1676
1287 1636 1499 1859 2435 1938 1705 1685 1749 1244 1592 1701 1840 2216 2906 2769 2991 3644 2161 1141 2410 2550 2692 2530 2014 1330 891 276 681 296 252 46 50 39 66 51 199 211 207 924 953 547 1196
1097 1547 1703 1810 2429 2297 1925 1898 1706 1990 1461 1311 1393 2457 2532 2448 3187 3365 2908 2527 2614 1149 2680 2188 2155 1666 1113 328 867 189 178 207 43 41 118 44 117 37 15 782 510 1083 676
1204 1517 1758 1943 2739 2631 2292 2534 2835 2739 2771 1581 1150 1650 1897 2528 2958 3077 2890 2845 2636 2619 2227 2270 2434 2551 1069 271 1385 1215 138 30 255 139 59 18 62 7 9 328 534 1097 583
1092 1373 1947 2185 2498 2782 2774 2229 2557 1499 1188 1152 1089 1279 1614 2079 2820 2861 2891 3504 3389 2579 2717 2893 3121 2718 1987 320 260 567 1142 1105 369 18 305 110 189 13 229 41 97 248 596
1029 1637 2049 2436 2614 2915 2258 2983 2265 2039 1404 1099 1519 1917 2305 2635 3006 3050 3031 3322 3690 3350 2962 2500 3222 2920 2675 1846 507 387 747 990 819 916 199 253 183 177 195 244 77 44 322
1081 1785 2124 2741 2717 3026 2931 2407 3322 2186 2018 1176 1183 1735 2144 2801 2708 3467 3234 3162 3598 3343 3478 2953 3417 3512 3115 2751 1686 1046 499 329 569 520 654 326 343 502 326 94 206 181 258

GFSSE_con_mucape_039.txt.gz
CAPE
34 337 1667 2124 2081 2151 1865 1801 2078 2174 2521 2616 2533 2681 2439 2178 2264 2524 2781 2329 2232 2567 2360 1556 1686 1876 1649 697 609 956 1454 1645 1739 1760 1719 1718 1830 1744 1757 1809 1918 1714 2087
11 396 1782 2254 2040 2010 2383 2351 2171 2652 2597 2415 2731 2660 2247 2106 2338 2445 2516 2057 2075 2327 1755 1868 1838 1732 1664 981 1387 1333 1348 1398 1359 1211 1657 1728 1696 1609 2221 1631 1934 1786 1838
48 580 1456 2113 2320 2129 2498 2536 2345 2478 2273 2436 2697 2452 2192 2098 2333 1903 2032 1991 2056 1756 1654 1723 1794 1683 1697 1376 970 1485 1247 1144 1179 1288 1075 1051 1276 1451 1354 1882 1960 1895 1837
92 556 1275 2098 2298 2415 2492 2749 2463 2126 1743 2325 2802 2525 2283 2356 2333 1966 1953 1887 1819 1828 1731 1645 1501 1431 1578 1608 1077 1092 1274 1055 938 915 585 249 832 1224 1568 1810 1821 1824 1622
71 520 1168 2324 2454 2405 2594 2530 2638 2464 2014 2545 2639 2314 2305 2568 2056 1858 1885 1974 1810 1880 1732 1600 1418 1307 1262 1259 1301 989 984 982 1048 1072 366 94 812 1102 1348 1682 1568 1688 1741
81 873 1994 2195 1889 2405 2241 2260 2134 1889 2033 2286 2354 2377 2260 2561 1953 1840 1832 1891 1887 1924 1884 1764 1643 1356 1238 1202 1177 1212 936 988 1048 676 674 1121 1121 1756 1786 1735 1563 1679 1704
583 991 1471 2542 2509 2584 2149 2020 2266 1907 1717 2132 2396 2107 2074 2136 2046 1883 1850 1876 1880 1805 1819 1850 1779 1694 1582 1247 1153 1126 1003 1135 626 853 1040 1131 1248 2092 1209 1246 1064 1740 1644
556 819 1457 2293 2391 2517 1859 1810 2350 1737 1716 2198 2319 1827 1881 2108 2565 2146 1913 1857 1811 1739 1679 1768 1837 1719 1552 1315 1241 1258 1069 1449 764 734 905 1353 2164 2053 1579 1442 1268 1586 1684
491 894 1441 1597 1549 1800 2296 1882 1987 1704 1876 2044 2086 1906 1882 1802 1890 2137 2201 2411 1831 1786 1681 1630 1688 1777 1620 1522 1314 1363 1282 1755 713 1000 1319 1572 2372 1924 1726 1660 1586 1532 1483
635 917 1393 1388 1276 1472 1634 1843 1729 1707 1910 1833 1790 1702 1626 1489 1556 1771 2224 2426 1920 1757 1643 1628 1816 1558 1757 1615 1612 1170 970 1710 841 870 1094 1585 2276 1800 1789 1765 1746 1561 1671
539 761 1130 1133 1028 1145 1227 1367 1652 1720 1868 1948 1884 1494 1092 1071 1242 1354 1872 2239 1586 1510 1457 2002 2253 1940 2041 1798 1925 1979 1308 765 811 751 1118 2024 1962 1636 1525 1205 1720 1669 1633
416 567 828 669 646 773 907 1182 1231 1300 1486 1549 1325 9 357 571 1004 1455 1691 2164 1656 1165 1548 1777 1415 1361 1223 1382 1352 1844 1549 956 604 481 1047 2233 1712 861 1214 856 1079 1672 1705
226 269 278 391 595 541 775 910 1041 972 1091 1023 163 0 83 336 675 895 887 1428 1281 1075 743 269 420 715 1162 813 806 1168 836 1224 450 567 1655 2290 2249 1231 1012 1181 484 932 1184
43 32 65 468 599 461 434 589 864 786 785 833 392 55 184 7 490 648 936 976 1101 601 408 547 705 909 464 611 726 794 759 538 317 953 1897 2390 2260 1987 1377 1484 833 510 614
0 0 16 345 493 536 227 241 600 539 480 845 597 385 276 408 714 814 1140 766 785 565 550 918 923 1004 576 474 87 40 285 119 136 644 1393 2233 2080 2144 1954 1422 1314 1158 1014
9 0 153 271 659 351 282 86 86 726 347 1181 1037 836 630 628 958 1059 1387 1135 932 720 646 1074 1094 985 460 437 60 133 82 60 93 209 558 1101 2096 2146 1911 1904 1466 1520 1526
120 0 141 154 805 577 733 708 909 630 229 651 1029 1455 1285 1327 1027 1034 844 1168 919 944 916 1316 138 680 378 329 59 42 43 64 66 94 282 686 1343 2101 2195 2286 2340 2197 1739
279 234 191 167 816 798 828 574 943 562 696 589 968 942 1069 1214 1826 1173 1117 966 1036 1389 1479 1305 991 305 412 170 76 72 50 54 45 126 210 293 730 915 1911 2185 2259 2028 1776
219 298 284 210 557 960 687 841 570 726 819 874 967 803 872 1041 1761 1648 836 788 994 1450 1118 575 1159 636 327 294 47 53 48 54 54 135 151 272 322 510 675 1777 1983 1792 1456
121 281 296 319 233 521 752 1084 494 417 777 899 743 705 1027 1163 1555 1572 1204 809 1319 1030 960 464 300 128 111 17 22 58 25 28 48 183 208 294 197 169 302 719 1063 1065 1402
359 253 119 438 490 279 1021 789 1024 464 638 787 361 1124 1297 1388 1592 1502 1442 955 1256 1133 1001 992 422 459 115 0 3 33 44 40 32 37 150 248 149 166 109 173 464 539 1009
488 504 332 789 812 493 827 524 768 1063 620 766 335 1352 1479 1566 1631 1556 1461 1101 1370 1255 1268 1166 1023 528 405 0 63 54 9 6 15 25 32 121 156 68 84 167 302 390 751
532 490 599 598 1074 723 807 842 911 989 846 827 444 350 1543 1437 1886 1640 1430 1463 1457 1162 1007 1196 1012 1009 0 0 41 180 27 5 8 18 6 28 35 14 4 500 326 219 261
683 602 507 732 1518 1006 1136 1096 931 777 913 1060 405 237 892 1239 1399 1761 1587 1312 1530 1329 1148 1018 1193 955 59 0 0 37 134 146 0 0 0 4 1 8 155 335 279 134 182
546 766 610 724 1256 1401 1188 1159 1269 1070 1074 632 517 248 798 733 1229 2109 1648 1771 1579 1790 1305 1072 1835 871 758 196 0 0 0 0 16 0 4 1 0 0 0 0 255 132 50
604 826 866 770 979 1382 1359 1449 1117 1342 916 861 341 214 1084 1038 1380 1892 2151 1816 1726 1765 1423 1495 1708 1229 993 1234 135 17 0 0 0 0 11 7 0 0 0 0 0 31 8

GFSSE_con_mucape_042.txt.gz
CAPE
129 460 1813 2111 1700 1712 1562 2048 2097 2558 2479 2603 2498 2351 2396 2454 2622 2604 2660 2503 2280 2336 1919 2002 2041 1219 661 856 1482 1480 1553 1807 1896 1879 1998 2023 2006 1870 2404 2066 1978 1713 1870
252 825 2042 2127 1896 1678 1730 2173 2342 2438 2159 2375 2515 2228 2493 2196 2195 2352 2599 2127 1976 2367 2057 2142 1917 1578 1204 1445 1212 1495 1614 1498 1957 1810 1770 1849 1803 1784 1981 1993 1954 1785 1995
691 1092 1550 2241 2335 1991 2082 2412 2502 1996 2018 2415 2237 2472 2535 2066 2213 2271 2337 1957 1820 1889 1938 2039 1932 1878 1131 1491 1388 1254 1460 1477 1373 1348 1675 1064 1150 1593 1709 1972 1964 1904 1843
882 1135 1303 2339 2343 2209 2272 2342 2481 1993 2342 2233 2207 2539 2415 2151 2419 2003 2044 1983 1959 1870 1861 1785 1755 1848 1628 1006 1324 1195 1313 1146 1357 1130 701 577 698 1696 1717 1934 1836 1690 1757
779 1210 1377 2407 2402 2385 1981 2297 2118 2141 2005 2056 2026 2137 2516 2337 2020 2168 1984 1902 1926 1845 1759 1649 1596 1521 1500 1245 847 1086 1169 1240 1415 766 504 661 825 1310 1674 1756 1707 1596 1644
688 1109 2137 2348 1857 2006 1863 2181 1814 1902 1834 2076 2151 2303 2435 2249 1947 2038 2019 2001 2000 1909 1769 1708 1457 1371 1404 1253 1120 1123 1023 1494 726 423 732 1231 908 1828 1895 1598 1645 1689 1629
789 1364 1720 2471 2576 1982 1961 1725 1786 1720 1703 2000 2218 2158 2361 2101 2000 2055 2080 2008 1982 1954 1928 1821 1721 1590 1362 1364 1243 1327 1247 1454 669 700 933 1284 1555 2007 1578 1281 1675 1657 1668
909 1432 1655 2362 2466 1988 1632 2014 1712 1623 1763 1933 1986 2078 2336 2266 2106 2051 1998 1969 1901 1844 1856 1826 1747 1501 1382 1417 1263 1329 1558 1462 855 963 1194 1439 1989 1644 1179 1128 1789 1694 1656
940 1457 1656 1714 1523 1629 1876 1994 1686 1732 1797 1902 1899 1947 2013 2059 2050 2034 2108 1984 1891 1792 1696 1639 1629 1670 1599 1282 1300 1658 1834 1265 655 1006 1289 1517 2182 1621 1383 1371 1627 1709 1673
928 1332 1517 1356 1242 1504 1526 1911 1700 1883 1812 1854 1801 1710 1659 1674 1749 1928 2185 2266 1919 1734 1658 1602 1556 1619 1573 1264 1230 1314 1842 1519 857 1112 1344 1715 2247 1737 1617 1538 1507 1570 1654
978 1267 1290 1121 1261 1384 1459 1443 1620 1921 1824 1844 1836 1833 1063 1100 1078 1399 1710 1925 1664 1461 1590 1804 1960 2067 1770 1481 1365 1535 1238 724 705 1043 1342 2084 2286 1513 1545 1693 1772 1729 1574
783 1111 1129 1002 1055 1185 1311 1272 1283 1484 1584 1486 1186 619 614 838 1005 1250 1614 1745 1539 1044 1475 1083 1069 1657 1344 1255 1011 1457 735 647 601 862 1274 2142 2201 1320 1119 1688 1619 1734 1649
662 960 913 759 865 918 855 1138 1106 1202 1272 1200 691 152 370 578 762 899 1072 1276 966 807 535 164 477 643 759 835 581 978 1019 576 312 701 1554 1860 1605 1118 1032 762 1534 1778 1566
608 809 702 479 663 655 712 795 750 798 856 804 108 0 45 249 435 672 474 550 920 368 334 436 610 860 590 489 719 840 511 568 245 819 1645 2468 1846 1265 1242 594 557 975 1255
365 492 350 256 497 492 428 282 598 573 633 775 212 13 27 199 321 441 642 808 677 691 387 681 771 784 638 68 105 732 696 449 478 1049 1436 2173 2427 1980 1525 1199 712 566 774
157 195 129 277 419 368 276 34 405 515 457 603 476 197 320 404 568 628 706 551 648 469 482 730 737 615 313 67 77 307 601 244 213 929 1298 1665 2265 2511 2074 1431 1393 1282 1328
52 32 49 274 407 247 281 11 254 328 351 575 562 249 286 492 823 775 880 871 570 638 513 765 680 385 50 116 52 135 135 40 67 266 661 844 1608 2408 2395 2021 1861 1764 1590
27 0 38 207 350 143 325 143 556 331 326 729 816 771 780 792 797 879 796 813 685 903 943 1075 544 210 100 80 67 43 44 48 46 69 244 407 769 1139 2174 2140 1873 2013 1582
9 0 52 100 508 129 689 450 399 447 490 449 859 945 1058 1304 1259 599 754 778 720 908 951 666 789 566 217 139 74 47 69 71 58 76 153 118 318 696 1132 1686 1466 1926 1440
89 35 23 16 582 176 475 202 227 254 301 656 679 695 849 1376 1367 1179 693 500 789 984 930 646 241 55 108 96 40 47 53 64 56 67 86 125 116 288 388 786 772 1125 1254
280 201 105 0 378 333 418 256 119 107 110 339 578 507 488 840 1297 1250 1057 945 1091 1062 848 235 171 49 9 0 34 32 43 34 39 64 95 182 149 98 176 324 479 527 810
201 239 85 0 191 362 219 280 246 55 65 214 493 489 619 873 1157 1094 1026 833 853 945 919 761 690 244 8 0 24 3 4 0 4 72 94 185 60 105 63 71 117 219 670
162 199 112 33 0 95 268 240 533 500 294 302 487 569 760 960 1170 1155 979 829 1042 1214 981 893 834 328 0 0 16 15 1 0 3 14 39 167 59 78 36 86 190 158 488
239 157 106 141 103 54 345 155 288 433 738 520 384 346 882 1000 1173 1336 1072 1021 1368 1261 1086 854 854 662 0 0 0 34 62 2 0 0 0 15 37 72 43 161 223 119 126
351 262 153 388 246 209 461 293 216 268 661 884 586 485 533 977 1216 1184 1243 1303 1039 1403 1024 851 1034 921 0 0 0 0 0 0 0 0 0 0 0 0 4 62 261 176 58
476 399 291 611 458 393 533 471 367 290 395 615 710 622 306 857 870 1159 1303 1296 1245 1226 1378 1168 1078 1261 718 0 0 9 0 0 0 0 0 0 0 0 0 123 192 224 78

GFSSE_con_mucape_045.txt.gz
CAPE
124 470 1873 1906 1642 1961 2086 2070 2194 2348 2285 2306 2267 2121 1928 1896 1980 2039 2221 1853 1767 1755 1990 1482 926 677 1133 1527 1263 1350 1634 1935 2135 2117 2087 2121 2207 2134 2064 2015 1821 1542 1800
227 886 1976 2301 1662 2037 1816 2238 2103 2320 2124 2378 2036 1911 1890 1911 2147 2255 2074 2132 1775 1954 2107 1802 1218 1231 855 1226 1431 1602 1686 1757 1801 1790 1745 1828 1961 2190 1914 1957 1963 1706 1769
590 1114 1655 2144 1842 1931 2093 2277 2114 2430 2273 2372 2457 2251 2130 2109 2196 2008 1815 1975 2052 2103 2024 1888 1482 1261 1604 1356 1328 1274 1477 1521 1524 1672 1706 1225 1425 1848 1967 1944 1916 1796 1734
891 1269 1719 2179 2277 1839 2073 2025 2190 1869 1971 2198 2280 2280 2135 2123 2048 2029 1958 1887 1953 2026 2044 1872 1741 1218 1285 1140 1153 1330 1515 1563 1326 1216 656 846 981 2019 2000 1975 1905 1721 1726
1119 1237 1601 2266 2389 1763 1904 2005 2374 2142 1892 2230 2299 2321 2214 2383 2027 2005 2041 1973 1957 1858 1622 1629 1623 1412 1039 1216 1239 1257 1301 1426 1164 538 686 1035 1211 1714 1913 1738 1657 1637 1670
1089 1170 2015 1868 1983 1734 1891 2099 2316 1886 1908 2127 2659 2228 2216 2076 2153 2113 2020 2052 2026 1874 1771 1578 1401 1406 1339 1101 1079 1208 1502 1556 778 540 793 1084 1342 1769 1854 1801 1715 1527 1739
1048 1393 1496 2324 2173 2123 1778 1871 1981 1847 2090 2346 2573 2194 2276 2117 2118 2248 2253 2204 2081 1994 1913 1743 1666 1403 1394 1191 1297 1448 1544 988 489 783 1124 1354 1765 2255 1474 1775 1808 1777 1677
1268 1595 1543 2088 1832 2067 1677 1775 1735 1891 2139 2109 2267 2410 2257 2222 2240 2250 2195 2056 1957 1957 1974 1713 1578 1296 1411 1393 1371 1551 1603 1293 930 1051 1361 1335 1881 1688 1269 1793 1742 1774 1706
1297 1526 1613 1643 1315 1715 1944 1712 1687 1947 2010 2047 2144 2343 2255 2238 2188 2027 2123 2030 1917 1823 1737 1763 1313 1265 1139 1275 1374 1585 1836 1343 832 1111 1214 1361 1988 1111 1278 1863 1842 1726 1689
1317 1420 1663 1445 1193 1433 1746 1693 1788 1924 1996 1969 1935 1924 1922 2015 2090 1836 2492 2398 1884 1771 1684 1659 1559 1667 1488 1439 1304 1772 1554 1427 983 1185 1322 1426 1927 1353 1074 1676 1739 1563 1644
1271 1437 1491 1286 1294 1333 1566 1422 1781 1897 1947 1888 1749 2057 1399 1193 1320 1616 1825 1978 1612 1622 1801 1982 1811 1811 1814 1838 1807 1982 1623 623 909 1199 1437 1947 2023 1645 1521 1526 1679 1706 1616
913 1293 1304 1175 1231 1333 1473 1325 1584 1613 1592 1620 1431 847 833 836 986 1290 1545 1722 1485 1240 1765 496 1358 1547 1365 664 953 1550 713 552 788 1097 1357 1987 1958 1333 1665 1856 1670 1556 1693
778 1136 1158 990 1061 1221 1293 1278 1323 1526 1553 1365 783 303 620 728 824 1006 1010 1402 1037 760 513 261 478 640 679 845 660 971 489 530 593 946 1428 2043 1878 1091 1373 1291 1742 1764 1782
797 965 1050 827 840 973 936 1126 1012 1189 1215 1106 523 272 396 560 576 692 614 423 616 332 341 437 532 837 395 682 533 609 773 484 393 822 1372 1916 1727 1213 694 1290 1646 1584 1498
633 791 798 630 613 650 504 853 718 742 810 772 273 0 109 275 410 603 551 458 590 657 393 559 626 652 213 56 481 608 496 491 285 797 1384 1724 1768 1659 813 542 689 977 1146
498 618 555 401 473 482 423 341 364 435 580 758 327 101 146 211 368 420 491 589 604 482 344 468 718 471 100 44 116 690 447 506 425 833 1187 1649 2110 2039 1540 1059 796 672 842
359 400 315 140 268 350 369 125 142 370 417 443 593 387 339 541 559 614 615 572 583 540 417 464 243 160 49 36 92 391 438 182 210 695 896 1154 1677 1738 1636 1415 1354 1241 1420
239 133 81 108 174 256 327 212 18 232 348 338 425 496 223 533 669 573 782 808 546 578 649 835 547 155 50 36 48 81 136 36 36 254 535 745 1161 1398 1910 1839 1626 1662 1539
143 52 0 84 187 202 191 251 20 142 274 436 469 530 375 609 639 675 823 895 692 856 713 853 598 390 97 83 33 46 42 45 42 58 117 209 429 731 1053 1510 1730 1695 1435
73 11 0 25 152 208 104 170 316 334 492 332 614 696 621 1027 1032 490 645 686 623 941 763 388 481 195 158 63 30 36 52 61 50 92 120 45 128 347 562 642 752 751 1123
27 6 0 0 54 173 107 206 380 289 356 609 596 769 799 1225 1115 736 585 465 734 830 613 341 43 19 54 51 32 25 32 49 46 83 75 149 72 99 121 286 351 409 503
168 58 0 0 0 201 73 332 379 209 86 272 547 656 625 857 1288 1175 799 798 903 804 701 413 197 82 9 7 23 19 21 14 12 44 90 148 133 85 93 78 128 147 290
188 173 53 0 0 137 86 167 130 114 26 82 357 407 471 533 935 986 851 741 831 930 751 589 563 40 0 0 4 0 0 0 3 11 63 80 165 102 94 20 42 60 228
52 190 75 0 46 55 137 121 119 52 6 1 54 391 491 587 795 959 816 562 853 929 730 851 726 482 0 0 0 65 11 0 0 0 0 34 147 70 56 39 61 95 120
67 75 171 156 129 17 94 87 33 7 0 78 93 225 392 643 767 977 1021 814 871 1193 1092 949 569 434 32 0 0 0 11 0 0 0 0 0 22 23 13 31 63 150 114
160 87 68 108 124 72 18 48 0 9 65 338 378 254 300 614 702 926 1081 981 912 945 1151 1023 665 485 334 0 0 0 2 1 0 0 0 0 0 0 0 0 6 168 155

GFSSE_con_mucape_048.txt.gz
CAPE
105 550 1660 1531 1897 1581 2158 2099 2131 2162 2159 2022 1925 1733 1846 1971 2039 2137 2036 1854 1563 1825 1215 929 779 1130 1358 1574 1693 1701 1904 2310 2270 2227 2401 2536 2084 2212 2171 1999 1588 1484 1823
143 982 1761 1863 1770 1791 1989 2215 2140 2187 2244 2285 2060 1957 1894 1934 2004 2079 1827 1715 1748 2009 1356 1206 953 916 1216 1182 1386 1518 1714 1949 2044 2103 2170 2273 2202 1963 2070 1955 2018 1588 1920
389 1110 1330 2007 2007 2057 1803 2330 2025 2171 2163 2168 2129 2010 1995 2006 1871 2032 1936 1817 2010 2052 1734 1357 1558 1419 1085 1278 1398 1813 1739 1759 1573 1688 2112 1657 1864 2055 2084 2048 1866 1853 1677
821 1246 1247 1905 2240 1841 1898 2335 2073 2216 2215 2279 1894 1722 1872 1956 1983 1714 1951 2018 1541 1602 1795 1453 1294 1269 1270 1324 1493 1582 1320 1448 1668 1331 1097 1115 1729 2054 2085 2014 1725 1805 1719
1019 1412 1196 1935 2235 1742 2110 2233 1868 2159 2207 2119 1967 2114 1981 2053 2029 2057 1956 1970 1655 1686 1234 1531 1364 1145 916 1023 1148 1365 1585 1333 1213 751 1086 1364 1821 1844 1894 1834 1722 1727 1815
1155 1328 1687 1950 1597 1672 2123 2043 1795 2041 2086 2082 2136 1973 2040 2113 2001 2054 1977 1890 1767 1836 1679 1427 1425 1214 1260 1316 1178 1347 1520 1504 840 764 1224 1649 1497 1904 1672 1621 1383 1775 1746
1102 1175 1219 2209 2062 1574 2087 2032 1718 1844 1866 2148 2097 2251 2209 1944 1905 2139 2187 2078 1971 1901 1693 1385 1338 1101 1152 1155 1628 1438 1675 1442 699 918 1071 1485 1958 2163 1939 1851 1729 1729 1736
1052 1137 1350 1704 2034 1657 1754 1782 1715 2048 1838 2157 2200 2354 2301 2309 2127 2113 1995 1970 1885 1753 1558 1272 1120 1090 1231 1145 1432 1451 1327 1031 945 1198 1429 1598 2041 1659 1835 1792 1676 1694 1658
1196 1136 1362 1119 1817 1434 1557 1524 1774 1972 2004 2258 2151 2325 2301 2221 2205 2056 1975 1825 1776 1661 1379 1042 1104 1091 1256 1208 1447 1674 1512 1307 952 1254 1180 1464 1810 1485 1717 1765 1699 1701 1599
1266 1259 1322 1081 1242 1336 1207 1486 1513 1870 1920 2070 2141 2164 2183 2110 2063 2033 1601 1850 1582 1636 1421 1006 1205 1524 1354 1392 1775 1817 1501 1402 1086 1296 1395 1363 1337 1158 1745 1718 1655 1712 1759
1165 1293 1400 1063 1078 1424 1201 1312 1649 1884 1882 1879 1790 1950 1507 1577 1511 1522 1852 1724 1519 1587 1624 1597 1543 2040 1883 1481 1765 1695 1377 899 1062 1219 1362 1435 1548 1313 1491 1635 1793 1773 1685
919 1154 1324 1063 1111 1275 1396 1347 1451 1608 1503 1463 1527 842 665 717 995 1175 1690 1664 1334 1613 889 1538 1665 1563 1068 1055 1863 1759 654 762 1084 1208 1371 1693 1891 1686 1433 1764 1678 1747 1620
475 1072 1230 1050 1018 1182 1328 1279 1451 1458 1414 1239 708 570 707 734 921 1042 955 1416 882 717 282 348 582 758 791 913 1055 593 516 646 956 1131 1361 1617 1536 1258 953 1562 1655 1700 1718
511 866 1111 987 890 1041 1141 1100 1257 1337 1304 1022 368 245 474 519 624 685 694 454 636 305 374 435 572 687 439 719 459 863 563 492 645 948 1491 1786 1579 836 1098 1631 1686 1463 1474
424 774 965 840 723 841 829 953 876 1005 986 868 577 286 324 401 496 542 429 202 592 613 379 513 643 468 122 313 418 573 604 313 459 836 1253 1202 1554 1170 556 897 1131 1141 1141
456 678 790 687 517 565 456 650 576 601 670 633 214 9 130 238 346 435 446 561 547 498 343 512 749 306 68 45 193 507 355 390 502 913 1171 1815 1755 1808 698 507 500 578 770
272 491 531 494 302 264 224 172 268 228 328 560 559 165 310 276 335 437 540 564 536 407 449 449 220 41 47 58 106 498 323 310 514 808 1154 1149 1518 1361 1358 1212 974 783 814
270 340 311 209 107 164 146 78 34 146 239 336 421 535 320 480 487 606 614 664 504 550 564 627 240 63 63 67 80 196 229 95 298 575 685 835 1273 1562 1480 1248 1060 1171 1234
338 234 144 89 0 41 96 92 36 36 149 251 278 323 436 422 536 524 686 736 583 784 593 822 569 100 108 80 60 81 74 35 48 140 312 395 615 974 1091 1258 1480 1512 1138
322 209 55 0 0 0 41 71 56 16 130 196 255 348 368 431 645 668 757 720 669 804 665 330 402 257 111 54 41 51 51 46 50 68 71 131 222 489 612 799 922 895 1171
201 185 15 0 0 20 26 6 76 74 210 428 217 486 455 560 930 717 539 618 745 657 611 530 60 47 93 44 28 34 47 49 58 58 73 79 80 164 145 305 485 548 525
181 108 35 0 0 17 23 32 52 177 244 476 449 457 638 647 1096 903 537 540 764 707 508 282 77 73 38 30 23 8 20 18 20 34 64 94 100 81 102 119 237 256 273
130 130 42 0 0 12 19 23 23 127 203 167 400 476 625 704 1111 1235 1034 730 744 670 580 523 281 42 7 22 11 0 1 1 0 7 19 50 83 108 71 63 83 120 194
124 108 36 11 0 0 5 10 60 197 257 109 128 324 435 498 599 882 966 680 716 766 715 664 566 409 15 0 0 26 0 0 0 10 0 0 23 112 75 65 100 91 166
24 112 127 27 1 0 0 0 13 74 123 53 0 118 259 321 472 876 823 714 569 823 793 773 806 426 200 0 0 18 16 0 0 0 0 0 0 35 40 22 61 172 177
48 0 69 114 150 85 5 2 0 0 0 0 0 0 86 262 409 665 919 854 773 823 957 937 849 323 256 0 0 0 0 0 0 0 0 0 0 0 19 9 5 85 282

GFSSE_con_mucape_051.txt.gz
CAPE
324 885 1763 1870 1893 2136 2043 2180 2190 2174 2106 2413 2435 2023 1662 1618 1741 2010 2103 1727 1570 1475 1036 872 1162 1297 1753 1872 1766 1949 1969 2331 2521 2512 2200 2171 2102 2200 1980 1822 1880 1518 1828
215 945 1807 2168 1980 2333 2426 2303 2312 2455 2164 2023 1860 1931 1965 2093 2177 2114 1712 1619 1980 1527 1182 972 1123 1386 1001 1366 1742 1837 2172 2214 2260 2322 2182 2053 2131 1994 2056 1872 1936 1749 1822
643 827 1529 2208 2231 2179 2248 2437 2324 2350 2390 2213 2156 2068 2095 2105 2087 1845 1624 1885 2042 1561 1381 1733 1163 1035 1584 1759 1670 1840 1936 1820 2048 1930 1804 1734 1847 2040 1886 1942 2016 1688 1609
601 573 1312 2275 2272 1848 2181 2460 2573 2205 2175 2226 2129 2099 2018 1961 2072 1838 1671 1416 1620 1857 1522 1396 1426 1408 1375 1392 1583 1392 1570 1938 1899 1922 1600 1622 1662 1800 1869 1892 1830 1786 1635
766 732 1345 2277 1929 2068 2014 2159 2427 2310 2243 1852 1900 1955 1892 1941 1738 1870 1633 1343 1582 1220 1577 1486 1215 1131 1192 1280 1651 1602 1588 1517 1467 1388 1764 1794 1736 1993 1883 1991 1716 1825 1862
887 608 1479 2062 1540 2090 2032 2094 2194 2063 1878 1999 2068 1670 1977 2009 1817 1892 1707 1729 1824 1639 1361 1396 1365 1426 1214 1040 1339 1545 1453 1344 1196 1439 1531 1683 1700 1793 1771 1452 1837 1817 1712
489 896 1393 2154 1968 1935 2011 1840 2160 2018 1855 1936 2017 2020 2152 2130 2024 1873 1978 1892 1906 1665 1341 1300 1279 1213 1206 1307 1136 1577 1749 1110 1241 1483 1619 1723 1868 1972 2021 1950 1866 1867 1755
334 733 1246 1838 1847 1759 2044 1703 2033 2057 1925 2123 2089 2483 2571 1956 2219 2106 1901 1837 1626 1243 1204 996 1184 1310 1211 1400 1524 1673 1319 672 818 1361 1646 1725 1795 2213 1913 1837 1857 1859 1365
377 940 1048 1586 1378 1776 1815 1717 1871 1990 1970 1927 2306 2442 2276 2212 2086 2043 1784 1739 1519 1274 1054 1017 1206 1342 1330 1489 1719 1561 1438 1195 1361 1461 1062 1039 1834 1982 1895 1869 1899 1855 1843
392 1017 932 1656 874 1042 1272 1705 1867 1893 2085 2207 2322 2234 2172 2134 1981 1882 1938 1771 1579 1140 1039 1168 1275 1299 1475 1776 1917 1708 1464 1186 840 952 964 1022 1850 1762 1838 1882 1860 1808 1786
523 1071 660 1405 1105 1411 1241 1428 1281 1792 1957 1996 2152 2262 2079 1877 1641 1345 1761 1606 1340 1407 1299 1061 1219 1461 1613 1650 1689 1563 1095 686 506 753 868 1105 1266 1190 1839 1797 1858 1688 1770
459 1015 627 971 1193 1118 962 1606 1750 1632 1478 1682 1862 1730 1699 1700 1807 1380 1564 1626 1557 1368 1415 1685 1299 1513 1163 1114 1426 1337 916 979 575 606 1030 1367 1739 1476 1469 1771 1679 1666 1618
417 845 964 931 1442 1135 1254 1426 1554 1621 1649 1784 1330 1166 1338 1576 1815 1373 1495 1699 1359 1076 876 1059 1305 899 886 859 1147 1131 1150 1100 849 412 1124 1432 1388 1636 1759 1500 1428 1538 1456
591 828 1144 931 1210 1241 1384 1359 1461 1390 1383 1134 983 854 1253 1331 1560 1747 1205 1391 1470 1158 1364 1323 1244 1341 1166 1197 1074 1161 1184 1059 955 430 1015 1294 991 910 926 1444 1542 1437 1513
362 519 1112 1048 1070 1372 1537 1264 1343 1408 1303 1112 739 297 883 1122 1466 1268 1121 1205 1641 1467 1499 1591 1576 1187 1066 1233 963 1234 1245 1151 906 449 557 1274 1017 659 724 1241 1296 1077 1138
333 570 1020 1078 928 1162 1132 1444 1323 1334 1200 1185 1052 243 350 630 1350 1471 1556 1576 1551 1388 1381 1667 1723 871 618 448 1290 1145 1151 1029 842 581 575 771 917 1014 506 405 499 636 714
425 612 925 973 793 1005 1004 1197 1005 1037 959 973 591 286 290 567 1274 1478 1500 1488 1364 1457 1369 1409 1109 661 392 663 1483 1325 1101 997 489 632 852 1304 1046 1031 1116 649 562 463 562
307 704 824 582 531 639 598 663 611 604 838 1139 1296 1316 877 730 1106 1725 1596 1556 1539 1568 1657 1309 913 491 466 599 963 938 982 734 489 578 605 912 1078 815 1130 1057 992 1130 1089
470 576 788 721 498 408 510 462 356 462 713 901 1029 1140 1394 1060 1117 1561 1772 1702 1778 1808 1688 1544 1439 625 435 356 448 643 535 253 221 207 492 649 840 871 910 1217 1296 1194 960
547 496 599 642 566 556 455 638 324 164 487 790 910 1028 1304 1335 1205 1622 1953 1974 1716 1973 1636 1288 1667 261 775 414 88 262 274 270 174 411 352 236 403 668 661 982 857 734 965
659 603 579 617 658 446 354 331 381 339 508 784 1020 1254 1480 1441 1483 1859 1523 1740 1602 2492 2159 1316 828 610 106 178 160 120 43 48 358 343 493 386 332 427 403 486 715 511 494
582 628 646 590 644 576 332 718 474 797 835 1157 1321 1375 1596 1524 1881 1948 1691 1521 1999 1729 1723 1488 1287 246 95 108 136 95 81 60 84 204 462 539 658 555 449 393 459 687 599
362 492 569 660 652 703 716 631 664 835 827 970 1265 1400 1574 1665 1955 2192 1907 1610 1991 2365 1600 1741 1342 939 62 172 256 78 53 38 68 114 388 605 848 811 702 736 491 546 722
336 330 474 702 736 620 773 772 1210 754 718 863 1204 1391 1629 1722 1829 2252 2335 2001 2006 1879 1970 1846 1561 1048 322 188 229 309 51 159 26 54 206 369 622 770 790 684 504 624 797
181 212 246 703 1058 1070 929 1157 879 1097 797 915 875 1457 1751 1847 1778 1746 2132 2042 1873 1938 2148 1854 2023 1831 563 135 211 615 722 54 25 68 25 155 351 479 660 714 462 571 887
308 128 109 696 971 1121 1039 1153 1580 1663 1264 848 955 893 1082 1325 1529 1713 1831 2046 2030 1872 2120 1975 1991 1906 1154 124 156 566 437 369 170 55 29 201 190 289 407 648 624 558 666

GFSSE_con_mucape_054.txt.gz
CAPE
794 535 1778 1784 1762 1736 1661 1724 2001 2344 2460 2625 2358 2232 1864 1606 1851 2290 1907 1706 1493 1150 1019 1340 1405 1955 1931 1945 2013 2095 2229 2334 2472 2342 2065 2194 2082 2027 1902 1744 1892 1341 1940
585 539 2175 2318 1910 1965 2152 2090 2053 2126 2136 2134 2022 1754 1856 2168 2369 2033 1646 2092 1634 1370 1118 1374 1442 1142 1719 1900 2127 1503 1786 2206 2041 2227 2303 2292 2203 1789 2192 1596 2207 1818 1927
143 941 1402 2220 2259 2217 2429 2531 2332 2081 2109 2004 1936 2102 2225 2334 2078 1662 1832 2089 1605 1496 1815 1131 1126 1609 1619 1655 1845 1991 2004 2170 2143 2033 1883 1798 1683 1842 2065 1931 1770 1846 1720
137 747 804 2012 2226 2289 2399 2422 2473 2454 2345 2316 2285 2259 2211 2142 2035 1780 1496 1478 1843 1601 1532 1648 1539 1381 1574 1731 1629 1747 1993 2171 2106 1778 1791 1792 1527 1797 1989 1874 1996 1774 1801
184 624 1430 1955 2460 2132 2393 2313 2346 2331 2280 2303 2278 1978 2069 2121 1741 1572 1514 1575 1408 1776 1637 1370 1356 1425 1180 1616 1540 1728 1799 1740 1598 1755 1898 1571 2182 1958 1931 1994 1757 1750 1937
225 542 1799 1846 1856 2056 2234 2315 2283 2275 2059 1985 1957 1829 1959 1962 1812 1681 1656 1811 1647 1415 1558 1496 1508 1191 1131 1402 1593 1462 1519 1375 1490 1583 1608 1573 1559 1917 1702 1896 1928 1878 1722
190 609 1421 2200 2035 1925 2083 2120 2134 1949 2000 2135 2116 2076 1910 1917 1930 2029 1926 1942 1732 1486 1398 1388 1340 1272 1217 1194 1380 1703 1138 1109 1149 1651 1618 1707 1872 2254 2072 2014 2014 2004 1867
253 529 845 1758 1916 2155 1999 2073 2071 1840 2007 2080 2032 1935 2078 2146 2109 1980 1759 1546 1280 1271 1194 1309 1294 1282 1339 1640 1772 1545 951 614 884 1131 1814 1079 2119 2189 2023 2018 2029 1591 1203
313 415 638 1394 1767 1752 1800 2057 2113 1841 1905 1989 2257 2193 2266 2181 2002 1794 1635 1294 1237 1122 1010 1251 1271 1330 1533 1824 1683 1496 1014 1146 1031 998 864 930 2111 2112 2040 2092 1996 2026 1919
289 360 704 734 1545 1078 1370 1984 2135 1998 1828 1753 2013 2315 2221 1996 1500 1013 1780 1497 1146 1095 1050 1094 1260 1465 1483 1914 1864 1390 1347 1337 482 589 834 1127 2134 1944 2022 1980 1837 1903 1920
333 382 870 526 740 1085 1228 1743 1963 2051 2196 2285 2261 2290 2050 1062 884 1228 1681 1376 1285 1077 1032 1095 1205 1553 1706 1701 1682 1372 1561 318 304 494 569 1286 1975 1910 1867 1845 1848 1835 1627
199 246 689 512 737 887 917 1397 1470 1641 1488 1515 1449 1637 1120 1279 1375 1116 1363 1487 1429 1401 1479 1107 1331 1433 1734 1153 1209 1374 667 623 306 509 804 1363 1589 1622 1624 1763 1736 1678 1669
111 139 346 551 864 737 1195 1288 1410 1298 1497 1731 1800 1552 1288 1138 941 1170 1389 1529 1290 1392 1100 1237 1363 970 760 800 928 867 868 731 309 419 1086 1455 1532 1514 1598 1469 1678 1414 1593
67 191 222 559 1005 824 1176 1052 1088 1013 1097 1060 1092 1612 1644 1219 1193 1122 1155 1366 1283 1210 1440 1282 1048 1227 1133 1196 1094 1012 819 608 353 277 1027 1006 1085 870 1312 1529 1489 1535 1541
31 240 231 519 1071 1132 1271 984 894 934 829 716 1071 1237 992 962 1271 1207 1370 1287 1231 1194 1201 1251 1265 1286 1528 1057 960 1063 857 805 528 268 810 1054 781 705 1105 1472 1215 1191 1194
10 189 333 499 855 1139 1226 1338 1236 1159 1159 958 678 776 1428 1034 1482 1500 1353 1332 1296 962 932 997 1230 630 363 459 1145 1063 969 798 651 592 672 767 1146 718 478 482 583 694 706
96 155 432 543 580 1048 1213 1459 1237 1121 991 1063 1013 1056 1029 1337 2043 1642 1651 1752 1381 1672 1554 1329 988 649 137 250 960 1144 984 760 749 756 873 1089 938 1185 939 541 482 453 539
45 164 444 277 290 749 953 1203 827 847 851 839 829 967 1103 1551 1854 1621 1627 1288 1536 1097 548 576 305 139 151 95 405 660 807 575 700 762 773 856 770 1048 909 1012 957 1098 1063
131 274 501 367 269 477 824 852 830 938 1136 1262 1275 1428 1921 1630 1619 1232 1173 1238 1866 789 520 267 115 89 117 72 190 422 460 321 415 311 594 687 806 741 733 1200 1115 991 896
157 379 502 413 392 526 523 738 682 920 1159 1220 1237 1266 1914 1752 1684 1267 1390 1221 1247 755 614 345 380 482 136 93 74 151 230 311 376 373 253 156 280 440 346 720 1017 1067 1093
231 366 566 514 603 595 396 490 718 761 903 1126 1129 1484 1853 1729 1847 1544 1265 1354 945 918 1179 1453 1082 1179 221 265 75 84 159 305 450 328 226 107 339 339 273 400 751 299 873
391 492 617 718 773 803 234 485 508 704 809 1022 1345 1773 1988 1880 2106 1952 1734 1495 947 701 1201 1265 1155 436 273 250 103 64 65 24 40 116 194 272 340 325 344 247 240 521 322
371 611 744 976 1000 872 606 298 669 984 1252 1544 1664 1608 1971 2003 2082 2257 2187 1657 1473 1318 798 1054 1555 830 285 396 756 170 25 61 24 153 399 352 617 512 435 562 361 299 415
283 746 888 1183 1233 1002 920 773 1818 1114 886 742 1175 1017 1442 2094 2034 2194 2383 2129 1665 1131 1415 1077 1543 1023 931 177 370 142 634 551 132 332 207 302 438 470 591 559 470 541 550
197 370 902 1421 1868 1656 1598 1410 855 1469 438 566 802 1534 2013 2439 2205 1990 2446 2382 2220 1235 1428 1627 1639 1643 744 348 48 202 455 81 199 197 173 320 354 344 393 614 425 435 667
380 360 655 1604 2081 1803 1418 921 1853 1994 1421 672 1299 1208 1230 1286 1944 2255 2205 2503 2384 1637 1652 1668 1765 1867 1616 930 153 344 156 208 253 233 135 345 282 309 318 404 478 511 525

GFSSE_con_mucape_057.txt.gz
CAPE
949 926 1203 1663 1936 2000 1896 2216 2402 2632 2523 2551 2339 2118 1625 1619 2253 1969 1718 1665 1143 1052 1444 1434 2132 2017 2146 2126 2180 2220 2254 2508 2326 2155 2291 2298 2065 2048 1859 1456 2452 1357 1850
738 890 1629 1805 1900 1863 1848 2049 2340 2501 2636 2469 2052 1772 1905 2357 2175 1595 1799 1675 1456 1136 1703 1569 1344 2015 1921 1882 1452 1641 2048 2206 2360 2277 2189 2125 1916 2007 2141 2610 2646 1785 2005
291 1000 1512 2118 2107 2038 2015 2013 2097 2191 2123 2028 2022 2042 2272 2276 1724 1901 1825 1733 1655 1687 1184 1354 1538 1401 1772 1841 1933 1711 2054 2289 2161 1902 1440 1697 1810 2077 1926 2014 1988 1965 1803
191 200 789 2388 2344 2271 2532 2374 2042 2056 2072 2010 2189 2267 2263 2075 1838 1614 1526 1762 1698 1765 1767 1661 1482 1791 1772 1773 1902 2160 2321 2058 1865 1394 1840 1699 1249 1988 1957 1983 1966 1819 1940
100 355 1650 1945 2312 2238 2282 2433 2209 2342 2321 2276 2302 2141 2190 1985 1719 1698 1615 1585 1973 1660 1490 1587 1243 1290 1638 1716 1821 1912 1777 1824 1664 1539 1493 2347 1323 1861 1870 1956 1743 1769 2064
138 596 1758 2105 1982 2145 2196 2292 2232 2106 2263 2262 2058 2116 1917 1906 1741 1682 1804 1593 1434 1681 1632 1486 1203 1269 1381 1511 1377 1545 1490 1569 1889 1844 1743 1492 1509 2111 1977 2143 1892 2019 1653
304 699 1161 2088 2076 2193 2247 2158 2114 2213 2106 1964 1970 2074 2049 1963 1937 1943 2015 1852 1531 1513 1550 1328 1303 1270 1215 1360 1593 1088 1208 1336 1919 1931 1904 1726 1832 2232 2122 1905 1938 1844 1464
145 306 1146 1939 1999 2103 2115 2120 1915 1992 2135 2196 2054 1967 1992 2038 2016 1791 1547 1380 1387 1348 1497 1402 1294 1406 1659 1586 1576 916 1055 1203 1465 1732 1585 1702 1992 2007 1988 1914 1578 1302 1718
197 311 1140 1555 1730 1979 1960 2015 1896 2008 2052 2001 2080 2016 2131 2000 1779 1550 1404 1404 1273 1212 1331 1151 1291 1406 1591 1632 1322 993 944 1659 1576 1525 1010 1463 2041 2038 2056 2007 1941 1942 1763
263 187 800 1270 1053 1215 1785 2077 1942 1931 1962 1868 2099 2161 1908 1442 1038 1060 1912 1614 1197 1071 1203 1267 1457 1507 1765 1756 1166 1079 1578 1578 423 821 1137 1589 2125 1974 1987 1864 1957 1853 1726
99 88 239 660 687 897 1742 1989 1958 1899 1875 2263 2122 1974 2060 851 1199 1072 1688 1321 1168 1119 1074 1126 1437 1475 1719 1663 1410 1349 1487 605 468 493 693 1779 1994 1879 1926 1922 1860 1633 1458
116 138 64 245 498 669 783 1662 1808 1718 1574 1322 826 1880 1840 1679 1766 1080 1305 1463 1329 1238 1127 1173 1400 1436 1730 1228 1430 1673 1079 264 527 470 1025 2147 1876 1827 1855 1727 1655 1684 1682
117 73 98 247 452 503 1033 1127 1017 1273 1516 1580 1286 1231 883 827 849 1055 1231 1382 1379 1542 923 940 1036 1491 1438 1265 1236 601 365 236 442 641 1536 2029 1648 1730 1418 1764 1424 1593 1339
51 47 102 350 536 955 605 874 1739 1063 1129 792 1115 1121 1104 2145 1593 1564 1285 1643 1375 1473 1236 1445 603 1321 1423 757 772 1065 556 308 238 490 946 1585 1460 1244 1559 1620 1660 1667 1554
37 26 136 427 778 1044 2223 1675 1360 811 566 725 1199 1211 1064 1399 1495 1595 1588 1079 982 1034 489 937 1553 1525 476 808 1215 1304 343 470 230 668 526 815 817 1113 1508 1546 1134 1294 1118
29 26 138 397 817 877 1680 1710 1352 865 1078 417 506 916 1102 2097 1853 1995 1184 1448 2142 1966 1826 1729 1960 1051 969 504 857 1175 848 635 889 1076 563 913 910 533 473 574 574 586 621
12 21 180 468 693 979 1451 1033 1205 1533 617 1197 549 1238 1080 1738 1656 2292 1070 1630 1953 1567 1312 841 242 98 81 639 1053 1141 514 1202 653 1010 1342 946 1161 1020 673 536 495 454 530
9 18 285 271 557 822 1029 1250 1040 1384 1081 1446 878 1024 1332 1694 1873 1907 1639 1460 875 1121 1068 514 581 1090 84 795 776 1063 888 601 536 662 1173 1481 1227 1236 1016 1084 1040 967 890
15 92 306 332 438 754 1142 1117 969 1197 1404 1359 1207 1712 1679 1750 1628 1754 1489 1486 1641 1100 933 730 1591 337 59 277 396 566 956 254 904 85 301 832 732 1092 1451 1567 1354 977 787
13 75 312 346 1093 1576 1182 1181 819 895 1095 1803 1308 1922 2128 2014 1437 1861 1797 1066 1585 1434 420 1412 275 1390 521 383 60 157 536 227 106 302 80 131 97 308 1068 1299 1105 791 1352
71 130 443 882 2151 1161 944 865 878 846 1219 1343 1684 1703 1930 2054 1544 1864 2089 1464 1478 1890 587 800 96 500 69 34 36 55 32 15 151 112 84 203 143 226 21 311 718 1291 1043
148 249 1160 1307 2332 1436 952 1465 1275 1441 683 746 790 1880 1687 1523 1916 1572 1648 1425 1494 1435 1352 927 1025 671 198 306 531 417 174 49 97 134 71 65 235 244 286 210 224 241 212
166 419 1341 1964 2259 1867 1686 1320 1422 1459 1309 794 1577 1387 1838 1758 1748 1947 1609 2222 1558 1929 1145 1376 1361 2657 919 50 328 830 268 286 313 46 134 258 444 648 403 524 317 308 399
168 431 1432 1743 2390 1911 2072 981 2104 1037 751 667 1261 1079 1699 1929 1781 1903 1876 1722 2119 2096 2619 1828 1683 2207 2232 367 35 52 1101 405 722 1102 217 237 366 430 602 600 704 520 556
213 485 590 2097 2555 2285 2079 1832 1232 1671 693 647 607 3079 2954 3361 2064 1683 2257 1818 2052 1626 1786 1819 1790 1900 1024 1422 116 79 376 56 817 1089 582 360 368 274 422 769 440 521 970
255 426 898 2333 2883 2804 2509 2039 2504 1802 1802 501 889 1551 979 1700 1919 2287 2047 2817 2112 1903 1970 1976 1949 1709 2681 1573 1206 513 248 453 492 179 104 540 285 346 278 357 513 491 542

GFSSE_con_mucape_063.txt.gz
CAPE
797 1195 1931 1351 1522 1592 1818 2291 2574 2789 2454 2528 2028 1836 2329 1947 2143 1560 1300 1277 1566 1942 2235 2204 2273 2230 2235 2301 2601 2334 2342 2869 3045 2782 2494 1916 2355 2408 2421 2141 1525 1457 1838
463 983 1893 1951 1763 1972 2157 2361 2451 2540 2356 2340 2046 2421 1990 2092 1900 1677 1693 1382 1946 1892 1643 2149 2140 1750 1792 2093 2335 2542 2483 2689 2969 2672 2008 2026 2042 2175 2548 1797 1607 1748 1692
635 1284 1735 2102 1909 1933 2336 2270 2365 2460 2040 2441 2517 2535 1925 2165 2022 1884 1938 1500 1455 1829 1554 1722 1891 1966 1837 2052 2234 2246 2088 2078 2304 2263 2077 1471 1549 2005 1866 1899 1809 1537 1660
972 1333 1413 2263 2209 1946 2284 2643 2810 2185 2115 2483 2478 2639 2328 1880 1837 1785 1823 1891 1926 2178 1802 1649 1768 1869 1995 2259 2321 2023 1666 1876 2062 2535 1011 1138 1243 1825 1788 1659 1123 1238 1695
1061 1123 1380 2600 2555 2007 2028 2280 2482 2451 2185 2406 2345 2336 1958 1951 1810 2013 1739 1528 1850 1540 1671 1754 1668 1778 1853 1896 1845 1901 1871 2186 2345 1364 1064 1160 1288 1554 1884 1734 1661 1688 1520
992 1404 2350 2548 2294 2217 2286 2423 2187 2318 2421 2278 2404 2052 1963 1940 1662 1482 1803 1623 1606 1437 1342 1321 1596 1379 1588 1664 1892 1786 2049 2027 1875 1442 1294 1743 1492 2180 1985 1670 1885 1729 1638
993 1525 1969 2684 2586 2270 2172 2310 2230 2310 2116 2079 2455 1933 1917 1823 1986 1664 1438 1658 1421 1329 1317 1189 1175 1298 1321 1222 1590 1683 1898 2225 1179 1336 1452 1566 1714 2197 1757 1278 1918 1822 797
902 1410 1582 2178 2265 2149 2197 2042 2337 2016 2062 2153 2300 1892 2038 2113 1727 1504 1332 1513 1399 1349 1322 1370 1271 1184 1180 1062 1198 1487 2228 2463 1255 1181 1282 1543 2226 2404 1908 2007 1673 871 1109
615 1049 1461 1554 1779 1968 2271 2130 2082 2139 1986 2095 1980 1990 1938 1623 1585 1408 1504 1434 1359 1243 1229 1220 1236 1218 1258 1026 1059 1515 1747 1959 1087 1209 1364 1538 2329 1580 1817 1589 1644 1769 1743
632 819 1179 1479 1495 1458 1698 2037 2093 2229 2185 2028 2074 1865 1750 1534 1409 1348 2171 1992 1257 1210 1264 1301 1265 1349 1159 1080 1086 1526 2014 1506 1037 1239 1399 1700 2396 2062 1963 1956 1576 1850 1701
237 273 968 1094 1154 1349 1488 1724 2174 2107 1891 2045 1985 1683 1305 769 896 1082 1589 1737 1240 1215 1261 1293 1438 1477 1507 1365 1357 1268 1670 871 897 1175 1372 2086 2427 1818 1837 1476 1855 1033 1146
264 227 418 811 1039 1120 1385 1539 1493 1481 1656 1596 1318 1054 802 687 540 942 1462 1894 1084 1182 1256 1359 1477 1521 1262 846 873 1114 1309 699 873 1101 1524 2345 2468 1725 1795 1708 1625 1577 1321
157 175 75 774 790 814 1059 1385 1370 1217 1345 1034 669 664 702 848 511 798 958 1040 822 1189 857 1336 877 460 624 805 926 951 675 597 900 1204 1904 2354 2072 1525 1505 1745 1621 1121 1256
1 63 204 584 672 476 1009 1166 1201 1013 1222 781 537 657 903 355 244 568 605 885 678 802 507 643 761 833 881 580 681 923 471 770 845 1106 1874 2342 1844 1666 1510 1370 1324 1261 1225
23 62 34 281 698 711 1075 1122 879 667 1006 728 635 518 491 527 271 206 494 406 434 674 780 223 575 486 226 468 401 316 316 469 913 1290 1412 2044 2223 1837 1476 1563 1257 1410 1069
22 20 223 214 496 745 840 584 218 284 721 392 371 244 195 747 631 488 274 365 201 481 374 233 709 993 572 423 198 389 483 422 296 798 1039 1438 2215 2106 1585 965 1086 906 633
13 15 98 127 288 743 356 483 387 491 473 383 400 438 646 656 36 760 740 439 399 523 1068 306 815 665 403 301 234 458 562 429 514 537 476 628 1049 1900 1552 928 1014 892 497
13 4 50 232 556 609 508 1088 471 419 701 707 666 657 1128 1126 561 537 327 594 501 779 458 105 413 285 586 436 470 477 582 765 568 448 631 572 491 467 1264 1396 1295 1181 639
0 0 0 9 301 134 367 655 205 331 576 755 508 778 1064 1324 904 102 61 569 1154 521 219 272 200 315 177 142 151 342 482 686 682 507 761 836 832 918 499 1346 1476 1391 773
0 0 25 63 176 182 581 527 215 242 689 1163 898 794 1601 1038 1097 906 406 506 306 283 314 1158 217 135 182 87 183 199 182 382 537 513 892 1136 872 1178 512 641 1145 1266 1755
0 0 77 220 158 668 802 684 757 541 443 1043 970 1333 1453 1091 1453 785 1106 1175 693 74 280 1137 464 531 82 74 103 187 188 249 211 253 417 600 873 837 757 885 733 659 736
20 0 113 329 300 598 686 713 595 677 246 692 962 577 1714 1263 1462 1186 734 1232 818 94 466 652 77 65 722 35 143 320 116 23 148 130 202 346 222 820 958 791 658 683 889
4 37 161 589 362 563 400 476 1234 590 187 213 989 967 1452 1562 1322 1607 1030 1128 597 1067 956 705 509 1009 734 316 58 156 138 115 409 207 219 193 241 602 796 786 1053 844 1036
0 39 432 690 437 621 594 319 625 739 408 285 915 1234 1546 1571 1332 1390 1586 1285 1109 817 1079 846 1083 908 630 243 416 45 216 167 112 136 230 326 264 379 365 408 470 527 459
0 0 407 861 541 300 817 389 404 752 997 672 800 1189 1502 1771 1649 1405 1419 1725 1249 721 910 1131 922 1118 1221 1370 986 480 122 37 165 162 173 480 334 285 464 581 513 581 545
22 4 220 957 474 365 394 1100 285 741 717 884 761 1344 1502 1873 1637 2021 1304 1544 1170 1246 1107 1253 1643 1294 1037 1590 1562 1150 290 87 215 233 383 360 202 253 527 480 475 585 507

GFSSE_con_mucape_066.txt.gz
CAPE
383 702 1797 1375 1623 1764 2213 2554 2182 2397 1852 1668 2308 1987 2012 1953 1235 1178 1326 1463 2215 2300 2395 2397 2338 2439 2589 2444 2351 2430 2449 2722 2741 2260 1901 1837 1740 2004 2248 1781 1581 1338 1015
871 1423 2273 1972 1803 1865 2420 2399 2290 2365 1787 1873 2530 1821 2226 1753 1401 1311 2009 2065 1494 2114 2149 2110 1956 2222 2362 2577 2578 2486 2547 2905 3041 2496 2224 2021 1917 1848 1973 1301 1567 1522 584
969 1354 1867 2447 2137 2326 2398 2472 2309 2066 1849 2329 2285 1979 2129 1965 1924 1890 1310 1611 1909 1446 1868 1879 1957 2083 2151 2359 2279 2012 2173 2488 2911 2054 2024 1556 1455 1739 1730 1729 1718 1581 1170
1137 1466 1692 2417 2558 2267 2165 2421 2542 2060 2078 2397 2042 2221 2052 1881 1953 2069 1908 2092 1884 1757 1930 2057 1844 2078 2266 2076 1904 1825 1966 2348 2729 1759 1244 1089 1153 1596 1157 1181 1758 1087 1457
1328 1337 1598 2418 2621 2107 2406 2484 2517 2238 2209 2200 2018 2074 1905 1829 1976 1596 1755 1791 1793 1785 1773 1944 1926 1887 2048 1904 1888 1748 2226 2298 1939 1239 1192 1250 1553 1685 1923 1920 1640 1384 424
1103 1337 2278 2305 1935 2031 2247 2223 2246 2228 2388 2277 2141 2101 1923 1767 1810 1644 1571 1584 1355 1469 1888 1681 1592 1753 1763 2063 1886 1984 2393 2064 1803 1348 1512 1857 1941 1952 1808 1784 1573 1050 432
1264 1693 2002 2761 2683 2384 2202 2251 2256 2137 2279 2185 2032 1925 1896 1750 1461 1807 1674 1417 1338 1212 1171 1228 1328 1463 1758 1981 1890 1999 2711 1947 1254 1451 1606 1549 1867 2058 1875 1845 1725 711 543
1318 1719 1842 2433 2427 2452 2338 2301 2155 2164 2059 2149 2083 1842 1955 1949 1739 1557 1565 1421 1378 1424 1327 1219 1171 1312 1388 1509 1838 2455 2109 1701 1319 1345 1487 1690 2444 2145 1801 1845 745 1376 1550
1380 1516 1653 1802 1975 2141 2404 2126 2050 2068 2160 2093 1879 2158 1684 1529 1457 1393 1583 1482 1314 1309 1195 1101 1139 1120 1160 1325 1387 2474 1903 1595 1102 1354 1486 1746 1997 1408 1520 1208 1591 1621 1130
1044 1232 1407 1571 1652 1828 1862 2097 2099 2029 2063 1971 1864 1618 1660 1684 1446 1556 1974 1858 1337 1293 1223 1208 1322 1338 1282 1151 1341 1881 1995 1513 1094 1224 1467 1897 2538 2019 1874 1612 1763 1562 1427
904 1157 1423 1345 1346 1559 1620 1831 2252 2129 1982 1906 1725 1474 1624 900 950 899 1457 1746 1353 1358 1321 1284 1389 1349 1574 1335 1262 1418 1437 983 1073 1267 1478 2166 2373 1879 1875 1923 1246 1242 1185
479 864 992 1150 1207 1435 1574 1734 1735 1538 1432 1296 1123 862 565 767 764 884 1102 1462 1295 1289 1372 1420 1499 1358 1054 676 864 1182 1075 757 980 1186 1488 2443 2234 1751 1370 1338 1120 1418 1358
122 564 736 953 1014 1208 1419 1465 1294 1322 1238 892 532 509 683 605 1008 925 1067 986 918 1087 1012 908 415 462 241 640 681 771 906 730 952 1216 1843 2439 2171 1516 1414 1514 1507 1164 1297
67 322 591 881 781 937 1143 1135 1038 1020 1090 640 385 515 464 321 376 458 564 624 511 613 444 551 469 618 794 599 651 488 553 654 973 1287 1772 2238 2002 1433 1294 1622 1027 1235 1188
99 104 539 583 758 633 963 819 918 862 936 560 383 527 378 87 51 292 523 691 570 509 347 82 120 339 462 379 518 666 630 673 888 1215 1453 1616 1936 1876 1457 1412 1317 1318 1155
48 3 421 452 529 555 873 835 818 794 886 399 387 256 207 139 128 326 165 192 278 281 666 219 234 510 404 411 399 336 499 525 959 1147 1234 1427 2190 2049 1455 1287 1073 1116 821
0 42 270 426 414 609 799 528 697 451 650 302 188 0 264 490 363 461 9 105 89 219 335 197 287 557 643 249 224 225 298 216 581 703 831 982 1638 1777 1581 985 971 835 612
30 50 71 419 476 714 629 320 251 206 442 123 122 314 608 154 86 510 188 309 406 608 606 175 596 620 265 173 352 318 320 265 338 368 458 575 823 1206 1750 1568 1373 933 632
0 116 166 315 287 147 916 314 466 482 363 223 290 645 889 460 349 143 109 299 543 537 106 62 414 160 256 250 300 560 352 435 376 385 465 490 413 310 310 1095 1545 1481 728
6 89 112 204 245 181 622 326 172 464 360 270 384 819 1149 836 280 116 282 411 108 258 252 429 93 109 205 273 210 341 434 597 512 405 521 588 681 702 580 251 830 890 1448
0 0 210 314 178 174 297 404 94 369 540 545 367 660 878 913 743 723 399 691 240 91 528 166 46 260 112 67 117 168 206 302 467 456 514 757 899 805 1045 440 467 651 737
1 0 0 156 90 350 317 254 414 309 717 868 568 996 882 965 992 522 907 869 139 120 565 89 54 301 209 45 82 135 60 27 262 288 296 466 689 866 878 621 715 373 513
0 40 35 123 100 454 251 400 566 444 325 690 714 847 1244 885 1232 851 896 894 367 55 352 235 218 362 118 111 59 147 163 18 203 111 155 215 296 269 711 724 818 583 491
19 3 65 176 109 435 469 359 808 483 210 403 650 624 1011 1224 1108 1235 861 727 440 628 652 580 928 519 252 97 160 57 130 113 68 25 128 167 271 296 445 522 789 897 757
0 0 239 206 160 264 453 183 425 745 406 140 527 774 840 1304 1026 1105 1272 964 706 473 635 624 664 833 961 923 541 578 97 30 106 133 144 167 243 171 319 326 298 350 525
72 0 392 236 177 255 258 196 101 478 642 438 343 788 926 1395 1146 972 1077 1228 766 526 592 835 907 943 762 1090 1079 720 517 75 78 278 240 302 274 402 510 491 429 444 539

GFSSE_con_mucape_069.txt.gz
CAPE
72 746 1687 1525 1985 2294 2091 2149 1954 1428 1823 2410 1792 2109 1558 1331 1239 1385 1830 2339 2139 2362 2345 2425 2386 2195 2022 2216 2209 2315 2285 2120 2048 2163 2019 1927 1828 1905 1848 1731 981 790 1456
56 931 1989 1926 1914 2312 2483 2163 2096 1543 2026 2428 1958 2448 1533 1271 1474 2251 1572 1627 2237 2223 2127 2245 2365 2436 2273 2200 2299 2577 2365 2220 2097 2334 2176 1831 1900 1427 1231 1617 949 518 1316
493 1383 1879 2437 2081 2282 2499 2296 2103 1662 2253 2152 2025 2018 1795 1985 1622 1720 1584 1490 1878 2044 1870 1990 2187 2366 2505 2333 2418 2303 2373 2354 2263 2225 2072 1448 1236 1820 1607 1799 1082 719 293
982 1480 1823 2581 2647 2430 2427 2354 2028 1917 2503 2003 2213 2134 2007 2163 1817 1635 1905 1805 1591 1829 1943 1972 1981 2211 2158 2011 2033 1788 2316 2297 1956 1794 1118 1187 1015 951 1635 1544 1049 1686 1506
1144 1500 1596 2323 2523 2328 2299 2283 2143 2060 2396 1953 2315 1884 1923 1938 1980 1870 1879 1704 1672 1576 1732 1863 1986 2115 1986 1922 1873 1871 2212 2073 1894 1308 1331 1231 1057 1540 1657 1784 588 808 1441
1198 1355 2096 2090 2021 2272 2355 2253 2211 2103 2134 1960 2026 1927 1869 1852 1440 1770 1467 1529 1703 1554 1682 1677 1742 1859 1959 1874 1795 2050 2311 2068 1759 1424 1727 1979 1742 1611 1627 1581 504 481 805
1084 1521 1670 2405 2175 2322 2278 2272 2173 2111 2097 1994 1753 1846 1616 1861 1746 1682 1504 1323 1202 1289 1337 1361 1667 1852 1785 1708 1891 2136 2238 1952 1366 1693 1781 1655 1641 2291 1823 1604 601 382 417
1373 1645 1911 2236 1997 1961 1965 2115 2114 1983 1981 1985 1791 1869 1801 1459 1700 1529 1498 1377 1315 1112 1104 1406 1511 1722 1820 1847 2498 2212 2167 1848 1478 1361 1541 1682 1814 2029 2068 829 1511 1373 1434
1488 1756 1838 1929 1959 1969 2068 2070 2076 2003 2017 1885 1759 1807 1758 1714 1518 1622 1420 1354 1163 1188 1170 1212 1296 1492 1628 1723 1873 2164 1800 1674 1231 1425 1754 1617 2319 2141 1126 1387 1537 1057 829
1379 1430 1668 1673 1693 1802 1825 2028 2046 2053 2112 1815 1823 1517 1581 1326 1504 1624 1821 1737 1285 1147 1253 1307 1366 1481 1294 1622 1905 1993 1688 1603 1164 1331 1288 1544 2209 1625 1931 1890 1673 1590 970
1147 1326 1424 1661 1704 1651 1610 1634 1736 1979 1788 1637 1510 1722 1539 1018 1152 1124 1504 1497 1397 1308 1127 1209 1178 1322 1438 1414 1722 2084 1610 990 1060 1269 1557 2191 2327 1945 1618 1657 1564 1273 1308
842 1192 1345 1300 1442 1591 1683 1853 1594 1463 1510 1346 1143 957 784 873 738 1005 1311 1419 1366 1385 1413 1476 1235 1545 1095 720 1181 1641 913 850 993 1156 1442 2146 2244 1512 1754 1105 1166 1482 1272
740 1093 1105 1057 1297 1382 1561 1699 1471 1323 1088 1154 772 528 649 727 1091 986 1127 1088 1059 1090 1086 759 1089 650 431 717 653 913 850 720 882 1167 1618 2240 2104 1645 1555 1573 1362 1176 1350
546 719 866 937 1170 1297 1480 1465 1158 1082 908 524 427 499 702 657 710 769 734 614 624 473 480 466 371 599 742 616 713 613 820 641 850 1156 1624 2070 2029 1346 1594 1546 989 1169 1074
288 487 706 874 838 1064 1277 1147 987 842 840 497 401 534 435 271 248 421 445 601 392 539 402 172 282 350 364 507 517 596 562 577 826 1076 1425 1443 2086 1492 1221 1269 1170 1165 1092
124 375 574 790 652 723 941 811 717 718 848 725 444 538 266 135 275 358 571 548 503 406 570 274 228 411 590 525 607 351 513 536 757 960 1157 1176 1521 1650 1442 1432 1148 1309 868
91 239 541 577 640 499 707 627 667 719 882 542 454 338 258 191 183 310 219 151 276 226 551 532 374 533 739 336 516 413 435 389 659 872 904 1121 1354 1612 1423 1062 991 940 713
96 127 411 372 501 368 562 681 695 718 718 559 330 168 275 419 338 504 75 98 148 284 416 455 402 482 524 290 304 312 260 207 428 479 445 523 857 1202 1614 1663 1385 892 592
123 96 269 330 395 294 552 467 451 502 623 493 233 166 406 289 230 490 145 292 416 491 567 241 483 440 273 256 334 302 315 275 314 247 283 245 246 314 312 697 1790 1495 716
120 101 212 341 413 319 603 408 464 471 329 420 216 359 681 272 322 187 138 325 630 487 84 97 327 197 212 212 273 485 354 372 482 367 353 395 446 413 329 208 126 769 1195
88 84 116 287 383 397 514 241 373 445 442 386 254 483 894 770 309 44 294 307 78 183 270 245 66 123 178 183 223 308 253 223 469 532 414 408 535 609 597 737 402 248 407
69 60 121 249 168 229 472 241 205 406 393 401 272 559 863 837 676 520 343 768 143 237 126 116 98 177 122 84 107 119 89 39 121 335 419 365 483 622 788 735 741 500 432
1 41 159 206 136 147 294 260 248 421 584 599 489 637 945 860 877 612 799 708 536 121 95 36 61 70 28 37 58 138 132 5 73 95 113 191 177 272 484 677 703 613 621
0 8 91 125 138 136 210 194 299 295 403 705 609 721 1151 1001 1164 1141 757 823 408 74 353 479 563 236 44 23 52 57 109 108 39 0 86 91 138 124 196 279 497 638 777
0 0 0 0 82 112 217 161 326 244 308 329 686 690 660 1123 1045 1161 861 862 486 528 367 506 675 441 630 238 184 462 82 32 21 75 111 157 125 186 180 250 322 388 417
0 0 0 0 0 87 221 185 184 421 398 294 231 522 678 903 1211 1026 1017 1021 819 448 547 523 592 710 812 842 706 562 369 64 48 166 201 223 290 353 363 341 354 426 482

GFSSE_con_mucape_072.txt.gz
CAPE
61 974 1631 1773 2187 2074 2037 1662 1521 2125 2073 1757 1760 1575 1467 1439 1630 2140 2292 2112 2495 2487 2422 2396 2614 2062 2035 2076 2204 1888 2043 2268 2193 1949 1904 1942 1974 1907 1161 1124 1444 420 1197
117 1136 1800 1984 2334 2109 2160 1916 1550 2262 2282 2085 2325 1311 1272 1323 1410 1485 2064 2293 2176 2228 2274 2314 2153 1851 1689 1948 2418 2255 2294 2206 2199 1986 1733 1919 1325 1432 1656 655 1267 1314 1072
475 1316 1825 2393 2327 2477 2109 2011 1575 2316 2148 2135 2078 1851 1695 1680 2302 1912 1433 2111 2099 1993 2069 2170 2263 2217 2233 2162 2354 2220 2132 2187 2300 1849 1871 1377 1552 1586 1203 819 390 290 254
836 1454 1792 2527 2624 2422 2250 2071 1707 2214 2107 2151 2119 2090 2224 1744 1548 2050 1838 1551 1802 1926 1915 1820 2044 2120 2272 2273 2069 2295 2166 2058 1932 1772 1212 866 1047 1533 1193 1540 1402 1241 975
1212 1448 1615 2248 2596 2277 2194 2056 1894 2260 1918 2172 2104 2011 2081 2054 1889 1816 1758 1679 1502 1709 1911 1996 1958 2105 1976 1895 1942 2161 2186 2106 1967 1449 1196 1110 1232 1632 1247 534 1237 1535 1119
1188 1375 2159 2268 2227 2230 2174 2071 2050 2244 1864 2073 1873 1861 1735 1605 1859 1574 1778 1572 1643 1634 1730 1817 1989 1872 1900 1989 2037 2279 2102 2033 1813 1734 1973 2201 1734 1343 1670 394 679 1363 1327
1149 1382 1694 2404 2230 2270 2254 2159 1936 2019 1989 2008 1899 1846 1683 1567 1647 1530 1373 1542 1545 1420 1546 1508 1842 1788 1888 1849 2303 2324 2085 2010 1668 1774 1615 1631 2058 2068 1122 641 376 453 530
1120 1400 1540 1946 2191 2205 2175 2150 1858 1998 1843 1809 1666 1755 1507 1724 1511 1327 1298 1067 1042 1250 1469 1724 1621 1798 1956 2059 2344 2308 2044 1983 1524 1551 1661 1427 2129 1898 903 1629 1328 1548 1381
1293 1476 1517 1394 1594 1906 1955 1877 1821 1921 1785 1722 1857 1760 1606 1475 1478 1475 1451 1254 1115 1117 1424 1524 1753 1916 2023 2068 2121 2036 1911 1788 1355 1708 1841 1888 2324 1238 1336 1641 989 778 752
1355 1493 1662 1529 1389 1415 1637 1815 1910 1843 1847 1688 1694 1531 1470 1306 1250 1459 1500 1679 1187 1193 1417 1548 1732 1621 1979 2135 2046 1952 1717 1652 1265 1473 1216 1582 2035 1835 1954 1741 1648 959 956
1177 1285 1286 1381 1399 1548 1576 1622 1818 2041 1553 1657 1419 1440 1150 1055 1227 1192 1485 1408 1241 1261 1446 1592 1608 1620 1768 1773 2189 2023 1586 1075 1194 1315 1694 2007 2123 1524 1914 1807 1425 1201 1085
851 1106 1203 1289 1233 1309 1663 1212 1212 1335 1229 1184 1295 1005 832 988 972 1215 1464 1475 1335 1179 1178 1191 1337 1763 1165 1073 1708 1897 901 1041 1155 1308 1625 1888 2145 1860 1454 861 1299 1323 1143
579 909 1101 1154 1219 1315 1487 1221 1280 1214 1161 1099 826 676 755 553 985 1183 1250 1145 1196 1290 1382 1275 1145 738 754 1012 832 974 879 931 1041 1311 1654 1947 1836 1411 1332 1529 1099 1140 1207
548 729 855 839 1049 1179 1418 1277 1131 926 801 685 493 518 577 644 791 756 833 765 715 549 644 596 539 796 937 674 683 821 807 805 889 1210 1632 2019 1823 1313 1439 1363 906 1016 965
449 671 629 699 918 1041 1188 1062 829 768 615 320 367 457 574 518 384 389 326 482 358 543 391 235 429 520 541 587 663 628 764 725 874 1179 1503 1516 1646 1204 1241 1240 984 1070 989
292 408 482 574 783 890 982 811 592 497 577 519 293 502 362 159 136 351 465 535 502 458 526 300 342 460 762 547 593 611 646 717 940 1098 1254 1329 1521 1720 1401 1358 1138 1198 961
94 188 357 467 467 612 734 565 396 446 634 699 588 416 426 208 169 287 395 435 377 341 510 596 431 567 611 433 637 457 598 649 829 1008 1046 1155 1298 1511 1521 1318 1005 994 827
5 124 268 384 274 353 440 318 238 362 550 711 443 330 391 265 158 297 261 140 222 324 457 523 424 557 446 371 421 400 404 311 603 773 742 735 858 1237 1458 1772 1447 990 745
17 83 237 309 263 244 236 243 332 462 561 591 465 240 208 345 327 434 117 175 408 518 494 274 477 551 336 408 381 404 412 381 345 222 318 397 402 677 497 487 1116 1521 878
29 40 178 217 234 199 169 321 374 362 414 509 356 138 230 367 190 335 196 327 459 395 472 140 362 291 282 310 403 570 561 460 447 476 333 298 330 332 339 259 230 304 954
45 30 94 161 211 155 139 383 262 242 250 203 393 156 487 366 330 141 206 320 383 361 143 216 181 330 318 371 420 410 459 362 293 477 566 422 399 515 542 571 612 591 474
36 35 26 113 193 186 197 343 270 321 303 188 283 204 496 642 280 69 177 443 121 225 366 239 97 220 219 165 197 254 194 32 23 75 137 373 384 514 789 877 829 799 731
6 24 5 20 167 240 226 193 240 233 259 278 286 222 611 634 599 573 365 493 148 214 104 126 109 161 145 155 152 203 274 101 67 45 44 84 144 193 289 590 869 904 866
0 3 12 10 105 217 278 195 109 197 259 285 290 220 645 740 785 765 491 541 472 236 173 103 308 134 35 75 108 82 121 161 84 177 67 55 59 189 158 246 398 686 926
0 0 0 3 9 117 188 220 107 144 268 335 442 422 448 912 875 990 720 729 461 236 288 575 582 325 265 74 172 414 137 77 21 179 216 183 136 145 234 265 364 441 476
5 0 0 0 41 84 46 138 141 144 203 209 310 440 512 500 929 909 1015 860 660 461 386 348 503 593 783 743 517 546 534 137 77 169 229 194 188 339 284 313 338 385 441

GFSSE_con_mucape_075.txt.gz
CAPE
624 1409 1957 2117 1915 1684 1536 1884 2028 1825 1808 1728 1627 1590 1622 1827 2382 2168 2112 2569 2377 2548 2644 2795 2551 2458 2358 2257 2168 2216 2089 2219 2299 2027 1816 1664 1368 1280 1420 813 1256 1215 1502
706 1333 2182 2575 1997 1961 1571 1630 2353 1988 2096 1968 1345 1386 1346 1369 1772 2310 2112 2172 2266 2285 2371 1956 1944 1357 2297 2332 2268 2283 2238 2040 2588 2016 1370 1510 1537 821 1555 1410 1195 1426 1149
805 1195 1665 2697 2219 2120 1760 1646 2374 1984 2371 1957 1610 1446 1719 2352 1602 1582 2078 1953 2052 2202 2055 2282 2106 2311 2462 2306 2218 1953 2342 2378 2261 1901 1820 1346 1578 1131 579 367 288 302 208
773 1073 1549 2567 2849 2077 1945 1690 2293 1968 2219 2073 2139 2018 1602 1513 1778 1572 1770 1945 1900 2020 1995 2219 2122 2413 2231 2131 2300 2285 2279 2114 1916 1535 684 1515 915 1749 1632 1648 1489 1287 1449
950 1196 1698 2201 2523 2247 2128 1843 2314 1973 1990 1978 1665 1454 1668 1787 1693 1733 1714 1738 1917 1961 2194 2192 2185 2189 1938 1980 2446 2302 2164 2155 1791 925 953 1595 1511 788 1220 1695 1127 1537 514
997 1136 1862 2136 2186 2153 2091 1950 2188 1891 1998 1790 1852 1742 1754 1649 1666 1788 1677 1598 1659 1907 2068 2097 2011 1925 1875 2056 2383 2220 2218 2199 1753 2141 1845 1874 1674 761 576 1259 1709 836 776
932 1321 1758 2559 2265 2074 1979 1955 2041 1737 1938 1765 1686 1702 1609 1702 1487 1570 1631 1626 1613 1637 1698 1864 1887 1911 2147 2480 2447 2185 2093 2141 2116 1886 1799 1804 1758 1209 558 568 623 1261 1430
913 1188 1541 2129 2194 2196 2045 1851 1875 1849 1698 1673 1616 1593 1608 1603 1323 1322 1087 1277 1357 1599 1785 1774 1773 1944 2294 2432 2357 2147 2175 1886 1656 1480 1718 1883 1994 1573 1823 1545 1732 1540 1234
972 1145 1368 1612 2140 2091 1934 1830 1782 1739 1635 1662 1702 1681 1598 1436 1373 1373 1276 1273 1275 1733 1785 1876 2075 2144 2313 2362 2265 2097 2024 1726 1688 1693 1467 1933 1847 1766 1663 1053 750 762 788
927 967 861 1140 1648 1495 1566 1718 1737 1709 1634 1738 1431 1577 1401 1388 1152 1282 1460 1714 1359 1630 1770 1885 1840 2212 2238 2232 2128 1855 1872 1506 1498 891 914 1258 2127 2013 1830 1735 1033 971 1076
826 1122 1460 1334 1512 1806 1686 1716 1687 1725 1584 1507 1433 1793 1590 1502 1122 1026 1469 1429 1387 1684 1783 1732 1752 2034 1970 2123 2141 1916 1198 1091 927 1296 1668 1881 2109 1861 1735 1635 1178 1448 655
957 1069 1221 1347 1567 1531 1328 1763 1852 1193 1664 1858 1616 1534 1487 1498 1289 1151 1493 1302 1238 1444 1500 1491 1837 1804 1236 1638 2465 1804 1350 1202 1118 1250 1360 1888 1936 1909 938 1014 1565 1169 1267
699 902 1007 1360 1435 1256 1560 1169 1182 1332 1386 1467 1373 1284 1363 1296 1466 1303 1437 1300 1498 1573 1430 1441 1340 1211 1453 1507 1405 1569 1578 1079 943 1174 1492 1762 1596 1416 1340 1561 1031 1311 1242
336 829 1084 1208 1323 1469 1424 854 1231 1231 1197 975 1093 1367 1298 1091 1417 1715 1296 1486 1367 1228 1396 1440 1224 1449 1584 1442 1466 1630 1531 958 717 1077 1506 1762 1642 1338 1469 1234 1039 989 984
193 689 1016 1244 1457 1686 1557 1110 1118 1072 922 970 1062 1123 1134 931 1171 1185 1222 1140 1248 1386 1191 1105 1333 1413 1633 1461 1449 1581 1464 1007 736 817 1099 1609 1575 1338 1280 1263 1034 1125 954
267 592 678 819 1241 1507 1221 1355 1136 1055 952 855 971 1235 1169 796 1052 961 1137 1237 1321 1273 1209 1161 1437 1470 1725 1361 1540 1525 1272 832 817 909 810 1110 1438 1833 1570 1494 1303 1082 1172
324 545 580 761 973 1306 1313 1059 878 868 875 1127 1047 1150 1208 867 891 1295 1325 1368 1244 1335 1585 1586 1339 1573 1246 1394 1481 1338 1220 1062 634 796 749 893 1052 1446 1587 1519 1185 1023 965
197 486 574 437 727 986 931 880 739 912 1121 1212 1102 1077 1240 1115 908 1266 1148 1101 1109 1296 1428 1480 1330 1454 1198 1202 1334 1162 1134 831 754 790 772 815 703 904 1228 1742 1869 1440 985
136 330 499 598 543 770 981 675 840 1002 1098 1191 1142 956 1157 1096 1107 1192 1240 1005 1418 1464 1404 1043 1456 1470 1218 1203 1017 1106 999 919 917 543 798 833 874 925 860 554 793 1029 1227
27 298 465 659 612 812 810 820 748 954 1082 1211 1101 1064 891 1165 1189 1250 995 1295 1505 1346 1313 862 1495 1230 1158 1160 894 1106 1360 1323 1367 1318 1223 962 984 1050 1060 1234 1225 932 629
25 243 555 663 762 721 624 638 960 919 1056 1061 1166 1194 1028 1476 1119 1215 1155 1353 1438 1424 1323 1265 1210 1457 1118 1162 1152 936 1117 1287 1221 1222 1314 1362 1286 1248 1317 1526 1745 1478 1275
36 158 537 690 838 798 629 906 896 1038 1044 987 1232 1163 1278 1625 1510 1093 924 1325 1228 1198 1528 1554 1238 994 962 856 895 929 658 522 463 501 742 1020 1317 1261 1192 1368 1646 1843 1891
86 217 448 764 852 845 698 846 816 1082 1159 1092 1075 1164 1219 1563 1591 1565 1185 1570 1331 1266 1191 1353 1121 1496 958 852 884 860 733 541 805 593 870 715 986 994 1102 1201 1316 1595 1837
174 287 382 678 868 876 932 822 1002 1006 996 1046 1377 1312 1300 1663 1766 1726 1695 1727 1518 1006 1201 895 1176 1218 1032 931 848 639 953 926 638 583 785 606 832 836 1055 1137 1021 1243 1560
160 275 350 676 912 979 970 1249 1019 1198 1035 1225 1323 1572 1522 1912 1835 1872 1852 1861 1850 1528 1644 1847 1810 1566 1069 698 620 1250 1195 747 735 875 856 965 1014 1038 1124 1131 1118 1229 1377
86 199 289 559 1001 890 966 1086 1155 1200 1107 1031 1325 1397 1351 1537 2027 2092 2014 2062 1712 1613 1518 1664 2083 1955 2037 1855 1425 1661 1473 925 780 1048 1044 1299 1277 1218 1172 1164 1393 1305 1322

GFSSE_con_mucape_078.txt.gz
CAPE
1229 1134 2110 2038 1625 1818 2001 1924 1858 1803 1764 1744 1723 1748 2080 2437 2184 2174 2620 2274 2641 2868 2964 2943 2916 3034 2384 2253 2163 2069 2226 1888 1843 1874 1619 1499 1538 1496 1339 1475 2030 1376 1382
1224 1207 2407 2411 1731 1657 1928 2067 1856 2041 1679 1520 1460 1405 1477 2089 2407 2077 2175 2293 2421 2514 2017 2106 2422 2411 2365 2313 2191 2097 2011 1956 2448 1778 1761 927 1622 1564 1665 1620 1696 1004 546
1001 1255 2014 2502 2159 1583 1868 2447 1978 2406 1824 1432 1423 1906 2172 1490 1939 2223 2159 2204 2259 2251 2337 2048 2298 2360 2366 2188 2192 2012 2157 2157 2004 1849 1832 563 663 469 368 394 332 601 763
883 1130 1589 2587 2452 1664 1867 2428 1864 2315 1998 2242 2146 1665 1771 1841 1455 1992 2015 1952 2106 2194 2233 2189 2138 2015 2221 2332 2416 2260 2092 1945 1693 1215 897 340 1567 1688 1664 1466 1505 1507 761
914 993 2079 2656 2321 1844 1877 2444 1894 2251 2049 1740 1762 1844 1561 1609 1599 1765 1740 1873 2064 1926 2099 2259 2180 1878 2038 2163 2225 2140 2098 1559 1632 1246 1715 1100 141 1669 1583 1542 655 613 1459
883 1044 2004 2439 2270 2107 1930 2240 1864 2122 1884 1812 1814 1828 1661 1760 1762 1776 1747 1857 2031 2135 2210 2082 1838 1734 2037 2359 2204 2203 2085 1812 2400 1340 1311 1550 227 955 1675 1175 604 1302 1519
863 1215 1614 2677 2240 2154 2012 2010 1767 1966 1856 1645 1662 1661 1546 1642 1649 1665 1628 1820 1858 1998 1917 1933 1917 2054 2570 2394 2158 2157 2118 1797 1071 1277 1662 1230 612 961 673 1006 1577 1510 1109
966 1168 1501 2271 2155 2088 1916 1897 1908 1787 1538 1621 1645 1530 1538 1475 1345 1221 1540 1572 1780 1888 1874 1905 2023 2297 2507 2368 2168 2263 1965 1476 1034 1737 1752 781 1817 1876 1706 1856 1612 971 1179
938 1078 1317 1614 2095 2031 1889 1778 1828 1757 1685 1444 1638 1561 1385 1492 1506 1379 1004 1642 1867 1900 1873 2108 2308 2370 2477 2328 2146 2113 1765 1481 1109 1437 1223 576 1941 1698 1212 663 803 1102 1162
939 936 1118 1280 1595 1450 1541 1652 1756 1617 1493 1368 1558 1411 1471 1230 1250 1143 1906 1947 1779 1858 1910 2102 2057 2265 2297 2093 1961 1892 1722 1853 682 848 864 1848 1874 1802 1718 1136 955 741 1395
866 705 546 669 1086 1558 1381 1698 1596 1612 1458 1562 1416 1417 1409 767 996 995 1721 1631 1827 1890 1826 2036 1983 1972 2204 2323 2011 1656 1888 801 744 1113 1373 2137 1906 1642 1702 1267 1704 1057 691
611 571 783 1074 1336 1362 929 1335 1403 1221 1361 1166 1128 1211 727 887 1195 902 1410 1512 1704 1703 1705 1913 1875 1430 1771 1495 1839 1765 624 908 769 770 1810 2269 1900 1106 1003 1572 1060 1000 819
444 434 714 1261 1266 1029 1486 966 717 840 1207 1291 1331 981 812 750 991 633 1159 1418 1462 1713 1478 1796 1630 1459 1751 1586 1183 722 714 515 684 718 1217 1915 1571 1516 1721 934 1044 1187 1283
352 439 632 1181 1141 905 586 752 679 645 565 645 1035 1084 1098 613 782 874 1001 1332 1259 1270 1566 1399 1510 1943 1962 1875 1635 1218 442 240 529 695 1149 1746 1431 1387 1645 882 997 924 903
248 482 712 1013 1284 923 750 866 720 569 412 573 700 962 676 675 1075 1084 1369 1274 1409 1435 1389 1528 1732 1998 1975 1714 1625 1491 935 411 479 653 1044 1213 1478 1272 1187 1139 963 1086 842
167 464 745 930 1183 1011 1109 1220 1015 755 891 710 731 899 1016 657 1005 1193 1362 1349 1476 1374 1432 1573 1897 1833 1519 1689 1718 1564 1145 899 979 1075 1192 1315 1389 1713 1518 1425 1373 965 985
214 458 663 736 840 1075 1248 1392 1013 927 950 1085 1211 1644 1443 1018 1493 1367 1245 1316 1446 1725 1834 1776 1556 1558 1261 1240 1579 1456 1234 1007 1066 1115 914 996 1332 1089 1450 1494 1250 1019 973
141 552 656 397 479 871 1172 1353 1012 951 1142 1201 1242 1384 1736 1805 1679 1588 1248 1137 1399 1442 1496 1391 1413 1105 1065 1019 1056 945 965 922 1109 1102 968 959 801 766 1271 1434 1783 1733 1335
143 530 717 655 399 559 1109 1100 1140 1399 1149 1223 1239 1211 1695 1718 1774 1662 1394 1311 1648 1422 1180 1156 1258 1108 1015 873 811 900 944 980 1085 842 1127 1190 1018 878 758 1269 845 985 1051
75 328 589 721 579 617 901 1044 931 1006 1045 1193 1193 1263 1496 1648 1900 1649 1260 1548 1798 1289 1030 1218 1440 1280 1026 950 622 660 638 712 941 894 946 921 1035 1245 1091 1340 1362 1009 1203
0 184 528 762 815 956 978 766 720 876 985 1047 1220 1590 1609 1661 1733 1893 1332 1784 1750 1369 1680 1544 1575 1523 640 956 428 369 316 559 575 554 635 671 941 1030 1136 1320 1649 1268 1214
0 162 563 842 991 1094 801 722 793 951 966 1042 1275 1635 1458 1697 2080 1712 1510 1539 1718 1291 1786 1778 1660 748 404 708 773 664 225 479 346 268 320 436 646 734 794 1006 1269 1544 1711
0 142 555 906 994 873 831 1252 1713 1568 1684 1433 1407 1529 1631 1744 1819 1903 1648 1500 1964 1938 1088 1999 1612 1656 481 1082 1518 1198 930 382 635 434 791 366 774 572 754 984 1057 1371 1790
120 97 505 1001 1010 1042 1389 1317 1488 1139 771 866 1144 1127 1570 1835 1724 1729 1858 1995 2150 1325 1508 1681 1344 1677 1877 567 866 621 1424 1448 749 540 588 447 483 483 763 783 855 1088 1450
313 301 474 996 1427 1004 1444 1407 1447 1508 959 1048 978 1900 1893 2295 1477 1561 1804 2019 2145 1804 2176 1681 1757 1996 1089 831 347 562 1197 859 1451 1146 469 251 341 481 794 962 954 998 1408
486 476 577 1044 1431 1669 1655 1768 1713 1434 1361 927 1082 1503 1485 1566 1757 1886 1523 1805 2006 1688 2190 1925 1630 2056 2029 1879 1093 906 576 669 868 1015 785 834 760 973 1108 1188 1204 1465 1712

GFSSE_con_mucape_081.txt.gz
CAPE
1183 1108 2063 1768 1992 2292 2053 1963 1901 1836 1815 1844 1937 2263 2363 2187 2259 2622 2632 2784 3102 3174 2907 2991 2943 2773 2150 2111 2252 2079 1682 1844 2193 1663 1724 1145 1331 1214 1533 1213 1823 208 1243
1025 1017 2462 1992 1882 2105 1788 1786 1828 1746 1693 1554 1502 1622 2208 2357 2169 2237 2289 2481 2354 2727 2335 2852 2474 2384 2183 2228 2093 2155 1894 2234 1712 1422 1909 1554 1572 1500 1049 962 1109 603 1502
910 950 1504 2247 1586 2075 2276 1917 2047 1559 1355 1406 1685 1604 1496 2093 2269 2249 2262 2369 2453 2368 2246 2233 2272 2254 2194 2282 2209 2090 1791 2144 1734 1505 2322 12 108 417 323 584 768 1205 1438
833 748 922 2385 1923 1950 2420 1902 2173 2022 2054 1836 1713 1879 1846 1490 2138 2142 2085 2347 2370 2387 2299 2126 2033 2375 2122 2346 2239 2064 1647 1466 943 1243 1122 1130 1135 1611 1598 1483 953 1292 1424
928 697 1404 2460 1861 1861 2230 1891 1941 2057 1881 1816 1863 1650 1858 1730 1884 1857 2053 2220 2229 2225 2177 1986 2061 2298 2185 2028 2055 1780 1333 918 1291 1330 213 310 1222 1536 1355 675 1056 1316 1331
812 1275 2084 2201 1757 1929 1990 1893 1952 1994 1802 1937 1909 1837 1937 1957 1919 1893 2068 2199 2159 2332 2159 1796 1868 2098 2231 2019 2001 1829 1731 1780 2234 1157 233 170 738 1624 648 1225 1449 1236 1262
839 1218 1875 2480 2080 1922 2030 1883 1922 1975 1617 1851 1847 1754 1896 1716 1852 1845 1957 2102 2219 2025 2031 2058 2056 2345 2178 2072 2070 2098 2070 2090 1594 1387 342 289 396 1142 1576 1540 1229 1277 1084
702 772 1171 1932 2114 1953 1827 1865 1905 1636 1654 1621 1747 1658 1699 1609 1741 1831 1893 1906 2084 2036 1910 2011 2356 2457 2193 2187 2267 2071 1876 1904 1218 940 485 1611 1694 1560 1570 1152 1115 994 1210
882 743 1156 1511 1870 1810 1944 1871 1746 1660 1675 1762 1570 1414 1686 1641 1347 1576 1812 1958 1983 1902 2144 2270 2513 2426 2161 2073 1953 1658 1673 1934 1211 950 537 1195 1838 1360 713 965 1253 1297 1424
522 574 1226 1110 977 1279 1486 1738 1639 1671 1473 1530 1437 1648 1532 1458 1492 1526 2218 1950 1814 1842 2068 2005 2211 2363 2080 1942 1759 1661 1957 2174 974 612 1376 1531 2249 1508 1213 965 547 1193 1271
496 579 966 946 1156 1770 1454 1550 1638 1353 1498 1536 1209 1405 1721 1371 1240 1216 2291 2003 2023 2089 2132 2093 2181 2402 2289 2177 1965 1960 2035 1195 830 852 1031 1908 2055 1331 1326 1622 1138 901 799
295 232 500 1050 963 1350 529 1475 1156 1066 1093 1216 1407 1675 1704 1325 904 755 1788 1933 1942 2054 2176 2115 2069 2328 2453 1902 1715 2123 856 552 718 1271 1341 2324 1360 1077 1282 1050 1167 1056 702
292 597 932 1409 1859 1044 875 1252 1190 843 1177 1388 1726 855 530 831 685 813 1506 1577 1847 1998 1777 2032 1840 1831 1312 1212 577 458 553 589 660 423 1834 2041 1532 1391 1099 885 921 1221 1041
272 402 1028 1013 1017 620 634 1054 428 645 587 696 564 702 798 579 825 2041 1407 1018 1425 1935 1566 1752 1601 1791 1658 1231 732 411 276 435 677 478 1470 1477 1254 1651 1349 712 881 744 819
239 330 776 781 1026 701 1793 423 500 234 476 489 794 700 1220 1370 1831 1818 1808 1449 1592 1673 1298 1810 2347 2000 1804 1307 1106 815 294 441 547 790 361 1409 1323 1024 1049 983 793 1000 1003
216 411 714 717 775 766 1819 1277 934 814 355 501 566 813 1010 1292 2144 1692 1999 2264 2095 2681 2113 2520 1743 3057 2165 1292 1553 1011 817 894 1107 1349 1395 1151 1948 1476 1172 1262 1220 888 750
221 452 665 655 711 1166 1027 840 871 653 869 566 769 1234 1231 1312 1847 2618 1607 1459 1965 1744 2024 1698 1831 2119 1530 1072 1486 1033 933 1006 911 912 1074 1429 1398 1450 1144 1111 1078 951 899
160 505 640 335 531 895 1076 2018 1344 1268 1001 1971 776 911 1334 1682 1484 2123 1752 1652 1288 2502 1948 2252 2782 2276 1085 1570 1021 1345 701 830 858 760 722 984 693 1355 1513 1440 1390 1447 1374
197 551 578 477 387 877 1246 1095 1406 1877 1560 2347 1677 1640 1526 1725 1699 2373 1705 1565 1878 1658 1327 1273 1713 1359 1271 1237 878 687 573 676 1083 584 859 773 593 782 933 1968 1614 1400 1228
167 514 645 495 452 974 1185 1166 1129 800 1553 1554 2059 1748 1749 2025 1909 2201 1382 1375 1858 1516 1395 1543 2858 1729 1054 1151 433 389 486 400 387 559 828 840 793 1088 974 1068 1581 1505 1677
114 351 691 681 953 853 1018 781 481 532 877 1222 1619 1583 1574 1603 1833 1887 1951 1598 1636 1838 1754 1403 1526 1334 1474 377 1659 543 231 387 541 299 490 529 706 868 670 1106 1491 1256 1528
47 224 655 824 1044 1008 962 1256 421 1501 330 1568 1676 1530 1557 1747 1984 1737 1887 2123 1925 1525 1725 1575 2210 2151 108 1282 1040 1249 892 404 242 314 297 287 544 538 619 981 826 1262 1630
4 111 565 984 1191 1240 1217 836 1245 1646 1447 723 1581 1307 1643 1508 1719 1894 1783 2336 1838 2181 1574 1760 1487 1479 1750 478 1777 1037 1233 1021 908 534 588 393 483 524 622 789 841 1306 1574
0 146 540 992 1244 1093 1189 1919 2803 1252 612 799 1347 1902 2231 1697 1611 1667 1776 1833 2061 1721 1883 1709 874 2401 2451 1480 634 1224 1317 1579 1857 1090 299 264 357 605 675 849 986 1008 1276
28 181 624 1118 1756 1986 1859 2433 1722 2138 1419 1380 1446 2436 2106 2311 1627 1350 1914 1938 2022 2105 2417 1675 1703 1796 1795 1303 1049 657 790 372 676 1261 383 227 309 493 804 1106 848 966 1403
156 100 438 1376 2183 1730 1533 1824 2122 1662 1927 2082 1268 1388 1802 1695 1541 1735 1596 1976 1954 1884 2141 1990 1872 1934 2019 2911 2106 1128 1120 700 1312 1688 771 995 683 904 992 1057 1098 1216 1380

GFSSE_con_mucape_084.txt.gz
CAPE
1168 1276 2268 2309 1961 2274 2115 2121 2116 2171 2021 1957 2239 2273 2232 2520 2749 2964 3047 3212 3194 3169 3218 3102 2774 2294 2257 2093 1738 1832 1555 1896 1831 1804 1706 1611 1618 1858 1572 1666 1505 1092 1716
943 1407 2351 2330 2383 2047 2107 2062 1861 1785 1571 1597 1634 2263 2149 2178 2207 2693 2783 2952 2870 3046 3068 2435 2318 2285 2148 2156 1728 1820 1787 1991 2602 1819 1524 1332 1118 795 1299 897 1635 1292 1284
828 1042 1601 2546 2460 2057 2165 2177 1782 1348 1339 1742 1392 1606 2152 2149 2180 2654 2629 2266 2316 2492 2255 2279 2258 2269 2304 1965 1827 1758 1690 1861 1759 2395 730 46 306 1014 918 1169 1552 1479 907
429 382 777 2239 2402 2335 2215 1874 2353 2021 1859 1830 1767 1913 1666 2088 1900 2369 2195 2333 2267 2444 2363 2367 2329 2303 2116 2100 1810 1536 1505 1303 1648 992 840 636 1031 1444 1292 1237 1215 1297 914
394 596 1220 2327 2307 2349 2468 2196 2135 2020 1817 2073 1878 1823 2168 2177 1989 2081 2202 2235 2214 2403 2126 2306 2372 2046 1840 1788 1320 1487 1527 1504 1826 546 588 1108 883 1156 973 1373 1096 1319 1394
455 829 1974 2197 2083 1980 2227 2018 1995 2137 1899 2174 2069 2005 2255 2315 2033 2159 2132 2240 2352 1992 1991 1819 2200 2176 1771 1688 1786 1886 2102 2065 1315 94 80 1382 899 1004 1612 1194 989 1137 1383
508 686 1514 2375 2333 2155 2162 1800 1758 1825 1716 1867 1784 2070 1954 1953 1991 2133 2244 2289 2109 2012 2149 2004 2282 1948 1840 1917 1973 2024 2094 1628 1337 288 171 409 1170 1705 1489 1415 1028 1333 795
640 762 1189 1950 1921 1900 2011 1906 1798 1611 1724 1976 2199 2001 2037 2067 1982 2225 2096 2095 1956 1992 2024 2385 2185 1950 1948 1905 1976 1903 1875 2435 734 1384 1358 1276 1857 1691 916 1229 1133 1280 830
590 743 863 1337 1874 1944 1904 1759 1613 1914 1779 1771 1539 1919 1988 1979 1881 2001 2276 1958 1914 2058 2195 2343 2152 2012 1952 1851 1753 1693 1780 2574 889 1013 1135 1152 1879 942 1095 1250 1493 1262 839
407 552 1029 1366 1242 1144 1440 1633 1582 1539 1678 1412 1655 1617 1951 1750 1650 1923 2488 2513 2069 1987 2034 2351 2219 1964 1894 1793 1614 1667 2051 2247 905 1213 1283 1676 2038 1296 855 552 801 1008 741
604 625 794 1009 1180 1738 1593 1584 1518 1386 1397 1465 1505 1352 1598 1467 1347 1389 2337 2328 1894 2468 2022 2254 2349 2090 1889 1911 2362 2136 1995 1889 751 1103 1431 2089 1852 1347 1705 1009 853 733 320
615 744 828 1031 1102 1190 525 1662 1712 1526 1534 1483 1288 1479 1443 1777 1192 1142 1954 2338 2052 2593 2245 2494 2583 1495 2378 1671 1953 2259 1957 1007 1226 1148 1769 1873 1545 1192 990 1188 1241 835 507
488 1056 884 1227 1421 1095 1328 1466 1294 1476 1345 1497 1758 1816 1758 801 1032 1263 1872 1820 2133 2000 1878 1759 2605 2084 1918 1990 1502 514 563 680 689 941 1552 1984 1671 1541 660 839 887 1032 578
655 995 468 827 563 1598 1227 1360 784 1027 913 1056 1598 745 1057 2000 1019 2101 1610 1437 1706 1261 727 1134 2197 2621 1894 1517 714 743 399 438 552 1195 1719 1871 1819 1616 786 707 710 584 748
930 693 558 723 320 2567 1197 1166 815 615 861 423 717 1160 1501 1021 2358 1405 531 1419 1015 1736 978 1106 1261 1109 1583 1826 1457 701 467 1158 635 745 960 1834 1835 1629 1044 816 674 944 963
663 397 676 1130 1453 1920 2823 2742 1976 619 911 1166 852 743 1815 2421 2637 803 1155 1285 1514 2632 1535 321 1540 2709 1162 1673 1373 1331 1112 1157 1609 1060 889 1469 1894 1586 1409 1325 1137 800 682
459 721 902 597 1053 1820 2172 1217 2391 1089 713 1070 1282 2088 2117 2223 1839 1012 446 1126 1640 3259 3010 1299 2443 1793 1841 1431 1723 978 1394 1421 1205 1478 1254 1103 1657 2270 1670 1339 966 905 871
537 852 870 78 975 1230 1658 2121 456 284 684 1738 1471 1885 2560 2244 2353 2382 1257 1260 1978 1179 1942 788 2435 2092 1827 1931 1482 1435 1643 1139 1369 1344 1348 1514 1302 1185 1747 1878 1615 1382 1300
677 952 1060 618 974 1268 1598 2475 510 602 550 1131 2193 1241 2631 2450 2018 2882 2229 1429 2781 1021 2057 1464 1773 1751 1829 1106 524 1601 1606 1472 1317 947 1394 1535 605 1434 1356 1961 2144 2068 1586
463 937 1346 615 1897 2034 1996 1784 1667 887 870 1238 1830 2033 2817 2684 2604 2187 2611 2918 447 2523 2107 828 2265 1220 1846 307 477 834 1341 1033 1372 1491 1301 1157 1197 1288 1528 1955 1753 1585 1985
277 840 1412 1444 2328 1945 2054 1759 1158 1594 1424 1432 1886 3068 1709 1646 2931 2724 2569 2822 783 2473 1052 2825 2661 2772 2274 2408 2841 1785 1337 736 868 1250 1347 845 1288 1367 1326 1651 2317 1728 1358
355 804 1635 1666 1804 2150 1605 2224 2421 1697 1734 1628 1565 2740 2436 2400 2679 2574 1886 2343 1204 1388 2909 2626 641 2669 1852 2356 1931 2314 1042 1269 973 656 1013 843 784 1147 1268 1582 1725 1748 1983
397 720 1452 1842 1612 1933 2257 2487 3213 2242 2079 2078 1833 2306 2283 2651 2971 1744 2328 2796 2256 2482 1964 2682 3083 1907 1960 2121 2298 1469 1734 1359 2264 1091 917 772 860 1415 1112 1041 1657 2023 2063
250 523 1374 2161 1682 1758 2576 2117 2999 2436 2189 1606 1792 2434 2720 2559 2713 2411 2935 2410 1651 993 758 2455 2255 1807 2782 2297 2409 1861 1943 1100 2045 1671 1210 586 1153 856 1103 1811 1356 1841 1901
16 256 1154 2025 1908 1858 2683 2125 2584 2551 895 773 1763 2489 2645 3036 2915 2032 3190 3011 2569 1925 1237 2090 2690 3285 2368 2068 1813 2009 2104 2500 1949 1921 1413 961 1305 1272 1150 1590 1318 1437 1966
99 225 1007 1867 2261 2558 2154 2401 2643 2077 665 306 1129 1461 1953 2912 2612 3076 2951 3026 2590 1012 670 3316 2830 2838 3020 3728 3254 2737 2253 915 1397 1797 1940 1815 1478 1570 1792 1502 1470 2005 1982

GFSSE_con_mucape_087.txt.gz
CAPE
856 1399 2120 2163 2030 2209 2214 2097 1941 1865 1967 2440 2658 2433 2608 2639 2962 3206 3185 3231 3234 2977 2535 2353 2791 2301 1822 1599 1333 1592 1346 1811 2263 1795 1525 1344 1543 1959 1923 1402 1261 1167 1611
947 1430 2177 2191 1983 1893 1720 1524 1503 1457 1471 1747 2404 2317 2358 2526 2499 2902 3009 3065 2645 2798 2559 2412 2306 2173 1632 1915 1727 1550 1565 2068 2533 1700 1113 872 708 1140 1615 1401 948 843 1423
1187 1479 1704 2497 1801 1561 1607 1400 1309 1176 1427 1307 1833 2148 2143 2195 2581 2587 2238 2278 2351 2841 2304 2267 2272 1885 1778 1899 1840 1606 1433 1691 2097 909 779 992 796 1250 1398 1425 1262 665 1045
1176 1359 1658 2440 2192 1764 1837 1680 1922 1784 1814 1681 1790 1920 2055 2043 2559 2274 2266 2138 2234 2780 2321 2298 2238 2095 1984 1777 1645 1339 1357 1636 1511 1466 659 556 468 1351 1393 1417 1324 968 1296
391 849 1586 2302 2416 2173 2090 1974 1781 2009 1931 1812 1663 1708 1955 1934 2081 2228 2241 2225 2112 2259 2628 2215 1751 1674 1348 1158 1455 2095 2503 2369 1611 1176 643 640 928 1374 1444 1236 1405 1354 725
416 1019 2138 2015 1901 2008 1924 1830 1900 1884 1719 1780 1941 1982 2058 1967 2190 2109 2191 2197 1973 1758 2063 2158 1931 1556 1692 1868 2052 1959 2232 1563 374 558 340 749 1025 1383 985 919 1478 1463 1154
714 1033 1645 2358 2340 1881 1794 1759 1814 1790 1735 1705 2151 2018 2024 1915 2017 2135 2145 2123 2137 1962 2108 2052 1910 1766 2020 2108 1897 1988 1807 1060 43 315 754 1037 1314 1716 1366 1350 1343 721 900
763 977 1307 1849 1867 1944 1670 1545 1604 1602 1668 1789 1940 1759 1895 1973 2067 2130 1910 2049 2017 1617 2310 1956 1859 1785 1813 1991 1907 1913 2045 1837 1020 1055 937 1146 1818 1235 1163 1549 1413 589 645
820 935 1221 1384 1552 1758 1610 1507 1544 1584 1711 1700 1637 1665 1966 2002 2014 2019 1954 1962 2066 2199 2148 1890 1778 1851 1906 1897 1791 1909 2611 2001 864 775 739 885 1550 1315 1271 1579 1019 713 742
596 821 1089 1278 1318 1235 1260 1468 1649 1617 1488 1422 1617 1420 2082 1967 1941 1847 2317 2707 2134 2127 2220 1941 1719 1596 1598 1572 1644 2120 2299 1794 936 1109 1029 1466 1859 559 635 703 869 665 507
351 692 849 916 888 1028 1147 1133 1319 1513 1338 1420 1382 1427 1725 1172 1256 1521 2117 2585 2006 1980 2053 2152 1922 1802 1721 1680 1872 1821 1464 953 993 1052 1438 1874 1772 1783 950 783 657 334 240
424 623 832 773 708 791 951 949 906 823 694 673 718 960 923 858 1021 1382 1791 2427 2097 1869 1903 2154 2335 2032 2209 1417 1409 2287 1651 1129 1158 1166 927 1552 1974 1105 975 1215 864 541 404
552 599 514 536 576 430 636 855 538 754 908 760 478 691 915 935 1338 1446 1692 1847 1627 1097 907 1208 1608 1124 1172 1521 1632 1466 1349 825 1067 1230 1391 1909 1835 664 894 887 1269 736 576
223 533 465 701 597 637 557 586 304 557 761 708 1034 677 488 509 832 1054 1265 1285 644 1144 590 1070 1356 1789 1781 1768 1620 293 742 576 795 875 1589 2144 2058 819 689 651 617 616 724
438 535 695 634 539 714 767 532 376 694 375 326 331 433 784 456 889 774 723 1005 1045 485 691 135 725 1147 852 984 252 115 716 653 754 940 1108 1808 2239 1941 755 715 838 1019 887
262 365 13 50 394 897 991 509 390 635 13 112 301 883 866 651 564 638 682 895 720 1156 829 439 845 1405 832 722 394 289 460 699 672 802 737 1147 2155 2076 1452 1137 1019 752 667
229 357 176 504 688 1150 449 609 481 440 447 386 725 541 835 632 356 571 450 620 1068 1391 899 986 1162 1579 998 755 710 588 670 590 602 723 764 860 1337 1875 1467 1499 1693 1291 889
194 173 4 525 556 484 506 411 299 530 609 478 931 923 1311 738 662 738 416 760 849 762 1050 665 972 686 710 888 703 494 803 523 429 758 956 1015 1006 1038 1923 2112 1982 1812 1201
172 8 0 211 146 751 751 313 87 351 563 851 543 1061 1002 1156 1296 1249 995 759 1345 917 940 1030 763 875 904 650 881 901 714 442 587 879 943 982 940 1029 815 1427 2189 2029 1671
271 228 230 276 106 261 928 389 214 197 552 947 821 1249 1448 1362 1288 1012 1684 1145 936 1009 983 1066 814 517 699 349 429 462 623 555 571 638 524 593 918 1131 1044 950 1413 1557 2112
135 197 203 575 733 500 926 804 570 157 444 1144 1221 1194 1005 1025 1591 1458 1336 438 782 945 790 1569 1326 1466 1608 1316 1158 877 709 145 314 586 611 653 702 1022 1232 1096 1107 1238 1142
97 186 743 846 671 556 870 714 653 808 770 986 1163 1367 824 984 1363 1431 1273 1121 770 928 1516 1127 648 1293 923 661 953 547 421 354 332 291 650 775 666 916 1097 1019 1419 1398 1223
173 340 662 649 729 582 608 888 1605 1024 1095 1269 1482 1171 1716 1607 1529 1123 1125 1090 637 766 850 1102 1618 695 972 1004 968 663 868 672 1296 355 204 409 170 730 821 967 1015 977 1103
187 443 690 531 279 352 1012 585 939 749 762 706 942 1064 1215 1521 1741 1564 1358 1224 1348 768 688 707 1633 1299 536 703 1177 686 910 428 991 702 536 218 459 598 556 720 846 977 1160
142 403 918 568 298 220 904 1283 1117 839 457 554 1222 1207 1522 1559 1749 1441 1308 1238 881 851 426 1066 1534 1436 1669 2040 1911 1476 1217 1155 1546 974 712 227 299 531 714 823 832 970 1195
121 296 1015 668 613 417 1045 996 1020 906 441 440 965 990 965 1276 1313 1041 1702 1241 1171 925 723 1297 1577 1618 1808 1527 2078 1574 1510 1251 1146 1239 1160 1182 408 587 816 903 836 1089 1175

GFSSE_con_mucape_090.txt.gz
CAPE
940 1471 2130 2125 2151 2134 2171 2073 2046 2218 2213 2209 2480 2333 2414 2456 2642 3150 3026 2663 2485 2715 2654 2237 2040 1474 1553 882 1646 1810 1787 1779 1633 1450 1185 1170 1508 1429 1550 1379 1401 1151 1383
1030 1302 2425 2490 2156 2000 1683 1494 1483 1525 2196 2258 2176 2171 2354 2241 2230 2580 2696 2467 2354 2583 2293 2173 1713 1855 1643 1491 1350 1752 1866 1577 1867 1353 1026 927 1486 1377 892 834 1420 1266 1399
1159 1195 1723 2384 1713 1445 1520 1413 1156 1173 1630 2210 2359 2237 2176 2177 2047 2217 2416 2303 2421 2653 2219 2012 1916 2050 1818 1627 1517 1420 1204 1381 1044 1067 1016 815 1114 1359 1244 640 981 1246 1470
1150 1348 1705 2086 2011 1564 1230 1343 1978 1808 1630 1653 2187 2159 2180 2425 2276 2142 2245 2331 2415 2713 2355 2208 2146 2004 1994 1753 1312 1231 1444 1750 1444 980 494 730 1057 1504 1282 1109 1087 1524 1287
1294 1419 1386 1925 1784 1986 2047 1886 1666 1955 1866 1617 1917 1978 1984 2300 2373 2346 2241 2201 2407 2304 2294 1949 1931 1881 1458 1536 1496 1719 1724 2182 1439 767 756 940 1207 1384 1383 1413 1011 574 612
945 1506 2106 1961 1983 2122 1922 1839 1916 1866 1969 1939 1942 2043 2175 2258 2340 2255 2097 2095 2267 2421 1869 1624 1451 1659 1695 1242 1937 2210 2121 1831 963 511 860 1217 701 879 1229 1461 1132 709 564
966 1589 1594 2336 2044 1875 1882 1940 1908 1839 2005 2153 2147 2130 2099 2109 2221 2264 2130 2095 1984 2281 2216 1704 1835 2095 2140 1811 1978 2333 1129 750 489 913 1020 1113 1234 1361 1631 758 1066 610 628
1022 1456 1455 1975 1879 1796 1721 1805 1820 1765 1767 1888 2057 1942 1965 2128 2102 2104 2291 2272 2140 2278 1972 1838 2014 2120 2056 1986 1817 2481 1814 1341 950 916 1067 1045 1541 1454 1585 1294 532 673 666
1008 1194 1357 1374 1454 1651 1566 1687 1749 1788 1837 1712 1806 1884 2049 2135 2044 2043 2420 1985 2161 2075 1834 1780 1820 1884 2023 1950 2050 3377 2256 1487 516 417 390 706 1813 1475 1617 943 676 752 982
841 1132 1263 1244 1301 1144 1307 1557 1582 1515 1591 1176 1494 1789 2044 2051 2014 2027 2569 2782 2125 2003 1776 1721 1727 1747 1704 1701 1870 2927 1969 1537 828 831 846 1173 1190 1328 1162 911 606 491 581
677 975 1123 1132 1082 998 1077 1294 1413 1376 1381 1512 1248 1684 1930 1469 1490 1519 2397 2579 2029 2025 2026 1881 1694 1679 1725 1806 1877 2013 1606 843 954 1007 1071 1656 1941 783 637 547 391 272 272
541 760 974 951 931 938 1069 1037 1105 793 605 834 947 1033 890 1089 1259 1470 1935 2452 1815 1928 2134 2114 2109 1882 1886 1268 1001 1915 1197 788 986 1201 1105 1800 2232 866 968 859 539 386 297
445 562 663 698 742 776 886 795 710 459 375 462 681 794 803 803 1389 1530 1806 1666 845 843 814 1079 1342 946 1208 1132 1314 984 1266 953 907 659 896 1855 1450 947 1249 1446 985 623 573
416 569 610 575 451 390 642 567 390 492 623 528 392 523 724 895 992 1150 1192 1223 1090 1135 943 756 1058 1274 1592 1704 1633 1431 1004 671 874 773 957 1924 1889 642 722 615 768 610 633
468 450 375 375 416 389 621 292 171 443 656 693 564 328 489 589 645 791 834 668 545 477 587 564 758 972 796 619 352 859 719 578 436 631 1017 1479 2116 1180 699 724 782 796 808
368 432 352 486 636 538 597 500 201 574 376 441 274 464 583 524 650 530 598 680 818 769 643 590 806 1115 965 270 486 499 536 500 592 556 744 1155 1899 2005 1204 904 846 873 834
467 468 583 529 487 694 692 384 326 479 97 533 661 611 464 577 418 323 684 648 970 1184 828 772 1014 1329 1066 554 508 525 473 402 375 433 769 706 1268 1740 1355 1316 1595 1371 976
297 255 141 656 674 780 785 472 396 269 210 575 672 718 520 261 311 250 420 648 946 981 928 539 806 685 718 691 612 470 596 473 465 609 736 799 786 931 1368 1889 2313 1979 1295
160 82 540 498 394 362 416 351 449 358 462 713 679 909 607 864 880 906 566 716 938 615 779 913 617 782 865 643 675 764 618 482 505 538 746 858 779 845 684 1098 2303 2313 1643
187 108 305 325 375 575 126 400 397 493 659 644 654 921 971 1119 1234 1220 780 818 944 989 906 941 745 503 722 421 495 454 549 647 530 666 768 947 856 864 862 913 998 1470 2255
48 132 1 0 251 654 323 121 296 447 653 878 722 1060 1146 1084 1189 1298 1372 728 586 516 614 1110 1014 913 1246 1164 659 701 465 501 548 563 650 632 808 903 1091 962 1022 967 1016
72 83 163 0 156 482 596 474 407 321 427 902 1230 1051 915 869 1235 1083 1117 377 690 871 1454 1018 920 659 644 702 852 434 301 142 229 441 630 666 700 769 947 1035 1087 1105 1170
130 182 233 274 264 275 643 568 886 604 701 952 1019 1125 997 1088 1210 1362 1099 903 727 694 813 931 1292 890 784 768 967 611 743 498 764 293 445 684 757 721 805 932 1053 1034 1113
91 270 344 428 339 219 417 510 843 790 680 718 875 980 1202 1368 1216 1066 1112 970 1007 374 597 543 1285 922 532 1325 1045 1125 1065 799 1004 487 379 450 326 497 682 783 761 900 1177
74 423 363 462 379 357 727 800 519 686 563 658 707 968 939 1127 1351 1381 1230 943 824 650 453 693 1460 1190 1660 1480 1605 1229 1082 870 1465 1074 853 276 424 548 811 801 706 941 1098
140 460 250 330 260 151 427 826 834 756 546 622 830 899 853 805 985 1271 1100 1031 676 744 596 1103 1434 1459 1467 1224 1361 1255 1222 1305 1568 1256 1023 1090 531 665 789 893 885 960 1142

GFSSE_con_mucape_093.txt.gz
CAPE
801 1334 1941 2033 2096 2075 1877 1950 1842 1720 1992 2222 2309 2407 2350 2433 2438 2405 2303 2163 2039 2233 1933 1470 1834 868 980 1202 1460 1786 1804 1661 1344 1042 1574 1465 1377 1349 1410 1376 1227 1005 1352
1016 1205 2001 1942 1994 2006 1949 1804 2147 2089 1841 2203 2263 2140 2143 2268 2471 2446 2256 2140 2323 2404 1678 1589 1548 1281 1750 1720 1724 1514 1635 1428 1450 1103 1093 1357 1001 977 1394 1389 1265 1036 1286
1056 1412 1324 1977 1860 1516 1411 1417 1432 1999 1988 1933 2036 2224 2025 2079 2325 2313 2284 2167 2442 2494 1856 1825 1392 1607 1548 1509 1274 1272 1392 1185 929 908 1483 999 1148 731 751 1157 1323 1419 1326
1031 1350 1729 2054 1535 1443 1243 1151 1165 1409 2018 2324 2093 2131 2133 2156 2363 2339 2325 2483 2374 2511 2014 2093 1892 1638 1522 1496 1562 1224 1364 1449 1235 1058 884 997 1120 1424 934 1391 1389 1365 1509
1178 1533 1304 1759 1519 1377 1645 1955 1796 1513 1620 2151 2014 2254 2224 2190 2248 2418 2428 2472 2487 2241 2239 2090 2007 1658 1557 1451 1454 1466 1516 1367 1066 706 991 1147 1092 1206 1390 723 666 723 973
1248 1066 1522 1846 2050 1952 1780 1913 1961 1910 1611 1902 1997 2037 2303 2277 2236 2151 2399 2580 2424 1973 1954 2009 1817 1754 1322 1541 1703 1862 1853 1556 1069 1057 1093 880 646 1410 1545 1459 612 619 583
1197 1540 1711 2327 2034 1984 1863 1993 1950 1964 2071 1986 2081 1939 2203 2284 2326 2211 2214 2191 2244 1907 1604 1941 1958 1706 1637 2362 1934 2292 1756 1214 852 1042 981 1040 868 1667 655 1359 647 614 660
1364 1456 1660 1983 1977 1965 1960 1943 1868 2037 2177 2118 2113 1988 2251 2317 2366 2384 2321 2153 2154 2082 1978 2060 1811 1781 1878 1868 1958 1151 859 1153 954 1032 954 963 1451 1777 1223 550 693 635 608
1373 1339 1461 1541 1562 1740 1753 1821 1800 1806 1821 2053 2075 2108 2228 2284 2302 2439 2136 2013 2097 1844 1897 2019 2146 1894 1959 2059 2122 1971 1711 1361 904 1031 653 896 1713 1795 1179 796 809 1038 1261
1125 1247 1360 1340 1387 1361 1284 1710 1798 1858 1667 1923 1968 2124 2173 2118 2237 2365 2700 2550 1898 1739 1705 1810 1873 1965 1905 1943 2453 2174 1600 981 391 441 583 1092 1733 1965 1335 650 582 645 634
951 1098 1161 1286 1185 1233 1342 1272 1429 1566 1343 1389 1722 2229 1734 1381 1861 1837 2342 2302 1966 1761 1691 1680 1678 1710 1849 1966 2668 2201 1792 823 765 757 800 1272 1116 579 545 496 363 334 354
726 970 1130 1013 931 995 1164 1248 1022 1007 1186 1142 1318 1488 1186 1277 1454 1864 1985 2116 2072 2042 2103 2054 1767 1804 1860 997 1498 1802 810 608 846 854 821 1745 1748 830 800 680 419 333 326
516 748 986 829 780 953 1015 903 748 532 672 801 963 831 887 1173 1575 1534 1439 1254 570 1010 910 966 1062 581 892 1006 1166 905 1184 822 784 882 654 1916 1498 923 1340 1420 941 690 647
417 558 685 674 649 734 796 738 529 363 476 523 775 771 867 974 1167 1243 1130 1051 913 1006 689 817 971 1087 1241 1476 1601 1426 950 810 648 504 447 1454 1337 825 867 824 1059 822 707
417 503 571 618 434 450 473 389 329 508 676 608 438 609 803 684 746 970 949 632 624 560 579 600 832 846 815 400 948 1382 1067 648 476 535 509 1461 1781 1136 814 799 823 880 961
422 518 524 362 408 338 469 213 303 459 614 679 609 509 568 597 589 765 689 740 798 805 719 702 966 1187 809 295 393 604 662 452 379 442 603 977 1674 1782 1494 1012 1023 995 1020
374 399 353 320 552 380 479 419 169 593 378 312 388 512 549 518 676 477 657 776 901 1165 974 934 926 956 517 613 492 533 434 408 354 441 682 558 798 1753 1732 1544 1466 1635 1491
291 293 265 370 514 485 566 477 227 362 185 500 421 576 513 597 401 318 602 667 1006 1008 956 613 686 715 664 602 586 455 579 519 435 570 591 666 709 599 894 1816 2132 2085 1704
324 257 326 442 503 705 572 259 356 176 330 579 522 627 521 362 373 532 445 654 642 845 744 884 698 741 746 661 654 660 646 649 532 556 549 691 689 769 704 782 1749 2399 1941
272 348 243 480 448 655 639 593 412 237 317 458 639 591 552 763 938 1203 727 661 878 910 811 1173 860 689 927 829 534 506 528 663 638 568 613 687 866 788 797 880 887 859 1556
191 111 458 252 239 223 273 391 359 362 497 529 636 785 932 977 1175 974 1196 942 642 639 693 1191 893 767 861 731 681 520 539 376 653 616 622 683 800 805 843 858 952 929 956
140 145 299 118 354 164 152 295 322 291 410 618 597 837 919 973 1132 1110 1120 407 633 898 1274 1110 1113 477 613 796 782 495 251 163 285 303 582 714 725 728 754 828 887 954 1264
178 131 148 77 269 339 151 227 520 480 535 792 777 943 831 654 1063 1126 1049 583 852 813 782 797 1281 1117 683 989 854 752 701 551 640 310 380 550 770 806 796 717 816 1073 1213
107 118 19 14 96 310 434 436 497 531 509 458 628 820 861 907 1094 1099 971 905 710 582 555 500 1188 908 1030 965 1025 966 963 1128 1117 588 332 477 683 781 589 749 751 959 1098
58 86 81 72 84 194 475 491 544 546 511 504 569 731 673 894 1221 941 1050 966 763 702 394 427 1297 1236 1519 1354 1064 1024 841 1235 1147 1111 788 424 486 487 769 764 676 945 1058
91 165 191 152 114 158 316 461 596 612 570 520 627 677 736 618 777 1043 1157 1114 800 697 566 704 1292 1379 1352 1065 1064 1018 980 1166 1250 1367 1026 990 816 681 818 911 907 890 1100

GFSSE_con_mucape_096.txt.gz
CAPE
707 1280 2119 1848 2015 1983 1883 1908 1841 2143 2451 2527 2563 2207 2359 2243 2005 2132 2411 2143 1955 2184 1787 901 1247 1124 1160 1751 1952 1895 1608 1236 1567 1497 1540 1582 1492 1438 1372 1370 1346 1117 1310
957 1278 1966 1804 1934 1768 2075 2079 1645 2089 2236 2429 2272 2062 2203 2345 2393 2200 1988 1879 2032 2181 1740 987 1739 1868 1818 1812 1804 1783 1543 1619 1634 1681 1491 970 1163 1465 1398 1384 1407 1201 1167
977 1254 1731 2108 1852 1741 1483 1643 2075 1795 2239 2286 2185 2141 2195 2099 2325 2283 2070 2039 1864 2155 1382 1298 1341 1488 1325 1473 1709 1697 1454 1217 1288 1479 1444 1010 665 989 1389 1434 1351 1453 1637
1085 1235 1542 2041 1503 1335 1310 1228 1783 1905 1739 2064 2127 1958 1943 2146 2171 2048 1998 2192 2063 1946 1990 1844 1808 1777 1725 1537 1140 1182 1253 1209 1275 1370 953 1140 997 1138 1542 1414 1300 1516 1576
1173 1455 1227 1399 1286 1144 1292 1452 1355 1691 1782 1987 1784 1885 2176 2134 2309 2311 2119 2365 2271 1925 2032 1770 1754 1645 1649 1721 1667 1883 1375 1161 1374 1051 1037 1062 1246 1213 698 754 883 1117 948
1281 1006 1295 1417 1489 1773 1810 1872 1657 1498 1878 2036 2108 2234 2275 2336 2351 2430 2387 2218 2211 2201 2101 1904 1801 1565 1626 1591 1610 1679 1663 1414 1351 1028 866 908 1307 1426 1350 659 674 656 1173
732 1039 1483 1750 1713 1724 1699 1677 1882 1643 1874 2006 1952 2097 2017 2308 2240 2225 2402 1992 1858 1934 2070 1907 1801 1687 1974 2076 2133 2180 1510 1374 866 925 978 886 1516 950 1275 720 686 684 906
1127 1419 1513 1631 1672 1549 1524 1797 1736 1854 1866 1922 2036 2264 2375 2308 2260 2286 2275 2325 1933 1973 1919 1629 1842 1756 1777 1648 1755 1431 1080 1235 1000 1042 931 992 1734 1427 655 742 685 729 600
1207 1287 1528 1412 1266 1493 1726 1826 1873 1888 1721 1989 2148 2232 2277 2031 2070 2183 2276 2165 1980 2007 1989 1856 2042 1926 2027 2044 1720 1481 1518 1405 900 780 795 1090 1774 1572 904 877 996 1275 1300
1084 1213 1209 1216 1133 1084 1427 1739 1729 1850 1666 1752 2056 2032 2258 2093 2106 2030 2533 2325 1900 1909 2014 2021 2072 2037 2021 2196 2146 1914 1274 1052 375 455 752 1227 1887 1907 801 657 682 723 615
983 1028 1071 1150 1077 1111 1199 1365 1431 1347 1468 1583 1690 1953 1580 1754 1866 1948 2423 2069 1783 1714 1774 1860 1821 1826 2108 2297 2167 2147 1700 718 662 728 815 860 879 616 578 510 422 382 410
783 855 987 1046 925 1099 1138 1106 1033 1177 1015 1242 1387 1118 1194 1455 1788 2020 2225 2288 2158 2074 1746 1574 1529 1734 1523 1404 1702 2065 821 715 799 833 812 1622 1492 815 762 702 443 413 398
620 779 955 788 679 886 956 684 588 808 862 973 773 844 1056 1362 1279 1266 1176 777 869 1282 968 960 953 1071 1067 1276 1440 1064 953 768 808 912 756 1465 1893 950 1251 1448 1080 878 752
428 657 815 627 605 687 704 514 359 340 567 736 800 796 806 937 1067 955 952 768 853 653 597 796 906 964 1098 1381 1470 1401 930 775 627 571 392 1087 1509 952 959 831 884 879 871
280 461 546 526 441 411 449 299 248 395 522 465 518 642 715 629 661 807 738 641 601 805 475 671 806 1041 941 210 618 1288 1144 752 641 624 488 1043 1498 1702 994 938 923 988 1095
226 331 436 466 225 231 203 182 281 439 593 646 417 542 566 438 586 713 633 683 713 861 857 769 1000 1017 657 347 447 558 829 622 452 452 550 691 1642 1758 1789 1498 1264 1279 1285
246 340 395 346 272 153 189 180 266 486 375 593 592 403 444 510 563 499 636 783 1013 1160 947 741 831 759 399 518 436 532 535 492 430 550 526 542 586 1250 1789 1732 1644 1741 1916
275 291 339 316 405 343 286 276 185 359 192 286 288 433 560 539 635 404 585 592 790 836 622 830 694 750 614 586 616 602 582 654 524 547 575 587 609 662 682 1015 1557 2108 2079
263 223 242 272 426 426 380 357 167 244 212 493 359 503 472 357 311 366 421 560 938 704 819 1003 642 652 675 580 578 655 733 746 702 622 640 599 682 705 725 742 1062 1377 1490
241 176 166 273 444 434 514 313 311 160 322 472 444 519 428 581 749 1027 665 647 753 777 760 1066 980 909 1086 1098 978 774 782 827 739 759 704 738 841 871 849 859 855 873 1069
224 155 135 331 423 499 538 454 498 312 215 444 499 657 647 753 964 801 862 763 632 575 920 681 822 1001 818 664 679 618 363 407 441 725 756 737 782 778 855 1056 1050 1115 1347
207 224 280 335 271 451 488 320 323 241 327 523 444 603 707 872 959 985 839 537 552 972 1004 1082 923 738 704 813 828 531 687 408 624 548 533 641 746 783 731 807 988 1206 1330
194 184 207 295 159 166 210 310 261 351 407 588 558 717 746 732 817 897 780 455 704 774 663 700 1252 745 1023 911 961 756 789 696 784 350 486 488 616 696 705 750 929 1070 1303
129 91 253 187 189 104 117 230 294 269 365 363 562 644 698 734 898 1059 995 856 761 590 544 490 1202 1037 1071 1230 994 803 1142 1179 1160 1153 520 404 422 339 576 647 806 922 1191
135 104 147 240 146 173 131 189 354 319 360 401 419 547 648 663 903 812 808 867 710 699 175 382 1143 1223 1418 1497 1081 968 959 1181 1222 1098 978 1023 793 540 720 722 662 907 1087
176 180 106 140 75 214 285 288 370 386 283 339 456 445 525 528 687 870 959 861 733 657 523 427 1161 1175 1121 1052 1079 1050 1005 1255 1285 1387 991 854 999 928 1040 929 884 933 1008

GFSSE_con_mucape_099.txt.gz
CAPE
771 888 1932 1342 1729 2067 1739 1936 2086 1984 2344 2413 2366 2364 2215 2242 2147 2214 2227 2068 1940 1654 1622 1695 1683 1615 1640 1660 1787 1479 1643 1654 1659 1603 1678 1642 1580 1541 1526 1390 1736 1268 1518
796 1384 1850 1802 1926 1907 1800 1748 2032 2034 2210 2309 2177 2278 2327 2327 2265 1994 1942 1916 2167 1549 1544 1823 1855 1898 1819 1763 1622 1477 1432 1735 1735 1177 936 1714 1632 1583 1575 1534 1048 1370 1164
855 1438 1601 2145 1780 1973 2121 1925 1696 1940 2059 2174 2120 2196 2149 2282 2207 2085 1994 2043 2002 1933 1591 1576 1662 1624 1770 1787 1640 1247 1187 1739 1569 1489 559 355 1334 1630 1653 1568 1652 1628 1672
1035 1284 1466 1823 1559 1376 1404 1882 1698 1698 1956 2200 1965 2098 2149 2148 1895 2043 2163 2109 2416 2371 1943 1944 1888 1719 1501 1236 1481 1441 1366 1566 1643 1373 1308 997 782 1482 1469 1610 1588 1632 1638
1299 1447 1623 1477 1445 1208 1124 1250 1835 1623 1969 1877 2048 2172 2176 2113 2070 2120 2183 2193 2032 1947 1770 1872 1764 1659 1890 1947 1847 1453 1213 1617 1582 1197 1293 1355 1010 701 802 939 1024 1143 1443
1278 822 1373 1209 1214 1548 1519 1539 1677 1734 2034 1884 1963 2092 2184 2128 2188 2173 2092 2182 2088 2106 1889 1817 1714 1726 1767 1759 1731 1780 1503 1619 1103 1084 880 1657 1430 1329 733 783 796 1477 1507
639 843 1315 1841 1813 1790 1647 1552 1602 1894 1963 2097 1951 1946 1993 2197 1894 1828 2044 2073 2100 2159 1738 1917 1861 2032 2124 2340 2345 1694 1497 1448 932 815 1343 1304 691 1269 791 775 748 859 825
486 978 1624 1844 1669 1592 1459 1713 1977 1881 1923 2046 2030 1996 1908 2016 2266 2100 2109 1833 2119 1929 1772 1979 1958 1915 1781 1938 1744 1220 1172 1203 924 884 1251 1666 1719 925 881 804 1342 1224 1380
1285 1362 1239 1416 1625 1539 1653 1496 1740 1898 1967 2200 2285 2081 2123 2053 2195 2053 2235 2021 2151 1819 1829 1998 1875 2008 2024 1748 1432 1450 1556 1399 979 634 777 1509 1976 1116 866 1027 1136 1167 1138
991 1253 1420 1443 1360 1424 1318 1663 1870 1581 1766 2006 2014 2017 2023 2102 1989 2166 2449 2369 2045 1984 1927 2043 1991 2024 2102 2147 2210 1546 1321 685 119 197 654 1654 2146 1355 737 633 595 567 496
1189 1212 1310 1101 1342 1541 1390 1543 1618 1449 1762 1921 2062 1864 2270 2155 1681 1558 2262 1960 1865 1950 1922 1944 1727 1865 2187 2091 2151 1871 1247 731 349 392 706 850 906 646 611 481 329 315 354
950 1105 1062 1012 1033 1099 1298 1732 1855 1509 1779 1925 1820 1988 1864 2215 2132 2175 2270 2357 2409 2093 1957 1830 1883 2058 1296 1581 1855 2287 1318 1092 673 378 658 1471 1592 894 1028 921 647 571 585
694 829 1026 1076 1289 1065 1400 1355 1265 1171 1562 1555 1638 1587 1952 1859 2050 1765 1508 1410 1584 1556 1313 1205 1142 1270 1623 1696 1588 1414 1465 1341 834 514 453 1168 1891 1088 1142 1154 1302 1073 798
596 786 827 833 1239 1262 1407 796 913 846 1007 1076 1379 1566 1658 1500 1526 1685 1523 1677 1403 1378 1542 1507 1629 1858 1937 1954 2029 2019 1718 1389 863 489 282 810 1378 1106 951 919 830 881 1012
489 668 702 810 1059 1000 997 798 845 1047 1006 1099 1154 1355 1214 1284 1590 1601 1721 1516 1828 1653 1453 1478 1868 2049 1514 629 1414 1910 1815 1475 863 540 414 679 1462 1569 1493 1150 1088 1151 1170
375 569 566 641 839 882 862 985 1108 1135 1158 1056 1075 1184 1353 1154 1720 1485 1620 1619 1838 1897 1796 1665 1954 1885 1258 1164 1448 1468 1524 1323 1056 698 536 706 1125 1824 1752 1825 1715 1645 1728
419 456 459 482 598 756 825 836 941 1150 925 1056 1131 1334 1289 1401 1514 1707 1670 1711 2159 2209 1930 1955 1850 1681 1355 1100 1377 1211 1139 1254 1125 995 929 855 921 918 1377 1667 1785 1870 2032
349 533 538 159 463 516 805 926 891 896 874 1157 1034 1171 1354 1503 1497 1444 1303 1670 1619 1828 1898 1984 1667 1712 1501 1447 1504 1424 1241 1213 1293 1238 1210 1133 1157 1231 1122 961 1351 1598 1759
526 665 682 713 852 883 1118 851 848 931 925 1004 779 1263 1430 1402 1212 1317 1153 1687 2102 1709 1942 1945 1562 1838 1924 1795 1313 1263 1498 1572 1591 1144 1361 1482 1419 1558 1622 1241 1185 1375 1642
628 703 773 806 968 1171 1115 1042 962 736 1092 1234 1391 1359 1429 1348 1458 2145 1626 1888 1748 1854 1795 2146 2245 2120 1966 1878 1314 1349 1587 1580 1661 1711 1544 1400 1698 1811 1775 2128 2093 1773 1449
586 620 730 829 1090 1084 1081 975 1091 940 1090 1268 1347 1539 1455 1726 1929 2231 1847 1882 1580 2067 2267 2024 1766 1999 1779 1975 1816 1290 1184 986 1099 1426 1629 1596 1580 1558 1632 1730 2030 1964 1847
568 567 693 862 1138 1131 1258 1161 1109 1167 911 1262 1392 1635 1773 1890 1963 2089 2186 1564 1850 2106 2443 2589 2496 1670 1848 1993 1795 1523 1101 1056 1488 1369 1389 1370 1590 1586 1602 1607 1681 1868 2144
544 597 640 920 1161 1073 1110 1059 1134 1236 1260 1380 1427 1309 1882 1801 1830 2107 1879 1669 1989 1888 1660 2147 2350 2170 1887 1965 2085 1853 1403 1330 1837 1366 1320 1291 1698 1576 1702 1618 1277 1797 2038
526 515 698 975 1067 868 933 1155 1499 1154 1477 1140 1495 1960 2215 1818 1697 1706 2067 1941 1897 1585 1803 1952 2152 2225 2312 1997 2056 1863 1971 2204 1960 1127 1630 1369 1542 1033 1209 1127 1196 1402 2066
481 431 576 855 947 719 809 1234 1458 1357 1216 1319 1514 1958 2328 2033 2156 1757 2046 2059 2119 1583 1548 1787 2451 2560 2320 1936 1748 2027 2314 2070 2319 2124 1449 1685 1614 1508 1971 1673 1316 1649 2197
425 321 409 743 846 968 821 1024 1486 1634 1489 1303 1482 1464 1555 1521 1839 2054 1988 2076 2068 1995 1681 1638 2466 2570 2376 2014 1673 1650 1528 1753 2138 2218 1823 1829 2108 2113 2411 2754 2336 1989 3054

GFSSE_con_mucape_102.txt.gz
CAPE
506 681 770 1007 1265 1640 1726 1783 2113 2363 2347 2367 2291 2262 2153 2162 2134 2035 2286 1359 1765 2184 2154 1770 1595 1593 1625 1596 1642 1566 1687 1589 1697 1636 1757 1681 1658 1586 1498 1335 1860 1314 1475
578 707 1193 1566 1516 1928 1736 1774 1858 2136 2213 2225 2379 2419 2247 2122 2002 2142 2225 1303 1620 1835 1959 1887 1898 1784 1676 1575 1546 1623 1704 1617 884 1256 1804 1753 1595 1588 1337 1496 1715 1369 1520
626 959 1398 1759 1771 2183 1967 1618 1922 2037 2256 2237 2183 2351 2234 2117 2111 2287 1773 1825 1921 1847 1832 1787 1797 1845 1678 1038 1041 1843 1703 1688 1341 580 415 1170 1505 1655 1598 1505 1566 1518 1276
757 843 1183 1889 1553 1617 1958 1757 1857 1985 2176 2052 2211 2132 2170 1913 2078 2064 1698 1687 1901 1831 1632 1773 1765 1424 1675 1673 1579 1304 1687 1645 1481 1227 760 274 609 1410 1401 1475 1550 1534 1654
868 1144 1622 1491 1339 1144 1620 1933 1793 1931 1922 2100 2131 2211 1862 2061 2162 2232 2122 2099 1922 1913 1812 1808 1716 1860 1896 1842 1471 1226 1665 1603 1125 814 1082 1455 220 861 1133 1102 1644 1702 1701
1096 954 1075 1185 1186 1550 1264 1790 1880 2038 1737 1906 2146 2106 2085 2099 2177 2210 2173 2128 2032 1926 1856 1966 1891 1878 1870 2012 1765 1582 1629 867 426 853 616 1489 905 846 832 959 1600 1457 1347
370 280 973 1700 1841 1844 1712 1676 1874 1897 2107 2208 2011 1885 2153 2040 2147 2137 1999 2104 2155 1960 1980 2009 1993 2236 2292 2400 1661 1406 1281 958 645 1226 788 348 623 1094 794 782 727 940 927
203 929 1273 1713 1712 1648 1890 1769 1897 2001 2017 1890 2057 1951 1971 2234 2050 1951 2162 2242 1907 2022 2056 2004 2009 1937 1909 1499 1089 1188 1370 913 516 1121 1103 953 1401 1105 1094 1719 1750 1816 1378
373 948 1223 1513 1738 1691 1498 1949 1905 1966 1831 1933 1880 1985 2106 2087 1973 2010 2205 2157 1894 2075 2058 2010 2105 2126 1945 1769 1642 1520 1359 1148 208 709 888 1314 1641 747 836 832 714 660 614
695 754 988 941 1324 1178 1483 1830 1851 1892 1876 2132 1926 1973 1909 2093 2111 2020 2673 2420 1866 1985 2065 2007 1986 2210 2236 2312 1699 1486 947 672 191 251 523 1501 1671 725 594 483 380 369 446
649 831 708 950 1291 1380 1433 1744 1680 1834 2025 1956 1931 1829 1986 1458 1300 1664 2106 2036 2075 1933 1887 1704 1733 2046 2110 2277 2135 1876 1542 139 35 297 269 1266 902 816 790 513 342 379 468
594 595 629 791 869 1011 883 1501 1513 1390 1672 1633 1837 1251 969 1317 1712 1584 2040 2238 2202 1919 2020 1851 2100 1926 1435 1454 1956 2219 757 665 304 142 550 1599 1600 1019 1232 1220 912 884 841
486 496 509 701 615 607 866 859 859 1253 1484 1853 1549 1084 1255 1338 1365 1110 1497 1669 1462 1608 1472 1515 1597 1512 1927 1762 1447 1396 1486 907 325 125 372 1592 1432 1101 1049 881 953 1051 999
427 354 283 395 645 614 674 388 495 1089 1112 1090 1279 1694 1751 1460 1461 1402 1468 1634 1576 1453 1780 1800 1700 2014 1745 1709 1639 1627 1392 927 508 211 212 861 1237 1129 999 1012 1055 1079 1165
247 191 193 457 935 1144 819 360 522 802 1080 991 1111 1555 1473 1461 1789 1630 1804 1813 1767 1564 1550 1743 1924 1757 1387 1295 1462 1462 1285 1321 753 431 219 812 1429 1483 1524 1386 1347 1383 1491
163 134 213 490 963 1064 1009 978 934 920 1091 859 1014 1466 1568 1462 1828 1632 1748 1670 1757 1643 1726 1880 2234 1398 1158 1075 1347 1276 1245 1153 1237 812 692 1019 1127 1689 1694 1769 1775 1697 1769
139 141 404 632 991 1057 1153 1108 821 917 842 778 1017 1560 1680 1649 2082 1885 1787 1622 1898 2301 2387 2175 1758 1501 1071 1055 1566 1478 1260 1208 985 1200 957 1011 1237 974 1263 1475 1570 1639 1931
51 229 436 311 635 736 887 1126 920 804 787 855 1157 1462 1708 1964 2028 1809 1505 1549 1966 1905 1793 1561 1392 1114 1310 1226 1451 1379 1285 1087 1390 1388 1247 1380 1526 1451 1416 1496 1406 1737 2028
244 356 377 412 369 799 1361 1069 1077 1390 1170 1172 1161 1400 1947 1793 1706 1616 1626 2066 2118 1710 1687 1327 1352 1360 1239 1210 1040 1124 1166 1317 1368 1044 1497 1588 1553 1662 1668 1801 1681 1836 2053
432 466 527 498 843 1076 1250 1194 1046 1167 1342 1267 1259 1415 1750 1554 1741 1592 1760 2068 1928 1668 1647 1816 2479 1742 1139 1128 917 947 960 1224 1376 1446 1384 1317 1573 1655 1480 2064 2352 2418 2496
511 677 773 838 1308 1206 1016 834 982 859 1186 1265 1340 1732 1970 1820 1682 1748 1676 1969 1809 1808 2376 2120 1635 1699 1057 1391 1160 892 939 1116 1193 1281 1262 1243 1362 1273 1564 1992 2277 2314 2212
603 719 1055 1097 1610 1513 1283 1248 988 832 886 990 1151 1660 1690 1807 1540 1711 2015 1667 1956 1863 2434 2658 2524 1315 1362 2133 1041 1097 857 927 1007 951 1098 1015 1197 1374 1654 1855 1946 2257 2548
559 764 1023 1295 1418 1677 1432 1759 1764 1625 1419 1454 1431 1214 1606 1709 1571 1602 1914 1863 2132 1777 1667 2129 2086 2669 1305 1997 2515 1910 1023 1180 946 856 1090 951 1216 1466 1585 1551 1622 2001 2632
740 694 880 1274 1303 1715 1983 1409 1540 1282 1544 1200 1481 1206 1194 1135 1378 1396 1875 1931 2174 1630 1994 1945 2024 2389 2662 1535 1861 2294 2937 3266 1381 1020 897 1089 966 961 1489 1463 1483 1947 2603
805 879 891 1375 1372 1115 1909 1522 1992 1027 916 1127 1287 1513 1218 1318 1462 1583 1644 2262 2289 1799 1933 1987 2167 2144 2010 1721 1713 1903 2605 2433 2676 1455 1076 1115 837 1093 1723 1794 1762 1949 2556
829 854 839 1488 1853 1508 1657 1688 1427 1104 1183 1145 1266 1231 969 1338 1065 1096 1223 1558 2072 1960 2205 1634 1836 1719 2750 2219 1736 1624 1615 1792 1966 1748 1439 1608 1542 1820 2065 2479 2518 2191 2619

GFSSE_con_mucape_105.txt.gz
CAPE
596 685 1048 1153 902 1267 1481 1958 2055 2395 2413 2276 2177 2023 2250 2037 1973 1990 2009 1809 2200 2172 1732 1617 1757 1742 1708 1724 1782 1622 1626 1653 1762 1722 1646 1592 1354 1343 1382 1194 1980 1206 1555
728 728 1305 1534 1387 1716 1743 1905 2164 2247 2339 2310 2073 2074 2031 2040 1969 1831 1958 1596 1798 1881 1855 1764 1686 1532 1662 1545 1667 1736 1007 772 1476 1600 1660 1712 1783 1976 1721 1501 1860 1605 1592
632 681 1553 1763 1950 1670 1582 1798 1987 2308 2255 2241 2245 2226 2013 2034 1828 1820 1671 1770 1838 1791 1841 1699 1521 1036 874 1439 1743 1604 1554 1376 1322 868 1114 1118 1495 1693 1686 1688 1419 1437 1621
470 743 1128 2068 1982 1987 1764 1945 2003 2112 2045 2218 2220 2150 2085 2100 1935 2141 1651 1882 1768 1915 1855 1509 1599 1797 1693 1335 1427 1561 1496 1347 1464 2356 335 172 1109 1486 1486 1683 1604 1650 1567
1085 1357 1549 1453 1287 1745 1877 1745 1937 1956 2005 2123 2069 1955 2200 2211 2102 1985 1814 1863 1801 1648 1646 1852 1878 1840 1776 1383 1431 1574 1600 1419 1300 1327 1145 305 225 1139 1655 1566 1924 1767 1778
1006 942 1226 1026 1159 1061 1908 1913 1988 1794 1993 2178 1914 2150 2066 2103 2160 2240 2073 1958 2033 2013 2036 2011 1969 1997 2134 1597 1559 1377 930 671 966 684 996 446 447 794 1125 1090 1055 1130 1247
567 159 824 1837 1893 1709 1638 1904 1893 2154 2182 2029 1947 2023 2163 2096 2286 2270 2138 2059 2072 2093 2055 2044 2214 2164 2058 1393 1134 1248 1141 910 1050 694 183 286 635 1102 1352 1261 1690 1377 1035
198 703 1280 1839 1815 1821 1627 1916 2063 2014 1824 1951 2068 1997 2152 2194 2422 2254 2274 2014 2168 2108 2043 2018 1982 1875 1404 1194 1352 1256 1258 1443 889 904 565 309 1424 1264 1279 1384 1386 1499 1156
725 835 1031 1504 1674 1719 2032 1893 2026 2045 1833 2212 2095 2252 2084 2128 2051 2307 2040 2070 2240 2083 2092 2142 2139 2091 1980 1842 1428 1018 825 947 619 1243 933 510 1161 724 695 613 484 470 495
424 849 979 1012 1057 1525 1455 1928 2004 2095 2051 1975 2006 2059 2216 2274 2183 2428 2442 2054 2099 2086 2043 2020 2206 2251 2375 1957 1735 1376 995 1096 245 241 394 687 1259 600 435 359 331 402 549
496 663 743 708 1462 2086 1472 1803 1867 2047 2298 2127 1865 1985 2538 1823 1606 1993 2279 2056 1965 1933 1803 1672 1830 2232 2321 2333 2167 1999 1727 217 138 179 113 1209 1050 972 833 598 605 761 851
486 505 614 752 814 1294 714 1887 1420 1478 1874 1934 1780 1894 2441 1647 1285 1118 1764 1940 1722 1754 1689 1719 1962 2084 2392 2470 2319 2551 664 334 189 194 480 1714 1110 1076 1216 1199 1043 1117 1016
286 324 420 975 1108 757 776 778 964 1610 1546 1556 1119 923 1172 1120 1340 1052 1727 1764 1732 2217 1733 1992 2057 1977 964 1513 584 475 651 314 114 31 911 1697 1158 1090 1005 919 907 1001 1120
150 205 227 243 1074 443 353 501 727 1155 1333 813 1152 1495 1856 1705 1634 3042 1329 1303 2573 1261 1549 2028 1274 1586 1378 1167 735 731 617 343 158 0 303 1013 1067 1020 999 1033 1133 1240 1355
155 170 176 356 1952 1278 487 242 987 1006 1399 894 1589 1777 2371 2166 1638 1997 2336 1993 1773 2291 1145 1345 1236 1196 1340 1128 882 957 694 614 380 13 19 944 1112 1206 1368 1376 1492 1587 1704
122 129 203 907 1169 1183 605 706 663 925 919 1228 1428 1435 1829 1788 2489 1543 2285 1413 1732 2137 1443 1677 1803 970 942 750 992 970 879 687 872 541 449 881 1221 1332 1514 1695 1802 1771 1910
124 149 414 638 617 581 661 763 1212 748 920 1188 1325 1603 1641 1935 2037 1838 1323 1813 2053 1745 2217 1720 1382 1298 784 761 1234 1086 859 868 982 1200 1125 1201 1211 1556 1668 1735 1669 1598 1814
150 253 298 431 361 428 775 1197 1265 1358 1045 1416 1016 1416 1785 2137 1860 2337 1919 1311 1336 1816 1496 1012 1175 715 872 1033 1153 1242 904 886 1214 1397 1443 1589 1658 1492 1894 2088 1794 1982 2253
215 345 305 654 410 736 937 1463 1377 1495 1622 1106 1109 1798 1841 1874 1919 3264 2589 1889 2718 1616 1219 2029 545 2018 863 985 1069 1113 1105 1070 1447 1215 1680 1621 1461 1729 1782 2413 2937 2732 2578
304 372 357 299 633 1879 1668 1565 1296 1694 1547 964 1622 1894 1773 1750 1782 2224 2010 1738 2882 2065 1472 1535 2880 1271 1284 1110 1064 931 1143 1146 1265 1438 1443 1346 1569 1841 1583 2417 2951 2603 3350
352 382 362 553 1048 1138 708 881 1322 1975 2055 2354 1930 1704 1712 1738 1844 2077 2419 1924 2468 2975 2416 2008 2032 1742 912 869 1598 887 910 1142 1376 1294 1168 1138 1218 1266 1570 2200 2274 2510 2643
341 352 427 978 1154 1554 927 2982 2467 1425 1280 1430 1567 1593 2023 1623 1837 1672 2589 2198 2203 1881 2159 2554 2608 2148 910 839 1619 1261 981 1090 1137 1077 1062 915 1115 1216 1606 2007 1984 2606 2811
356 505 691 1017 1290 1524 1745 2216 1771 1722 1937 837 1232 1437 1552 1605 1641 1989 2015 2534 1871 2621 2215 2610 1947 2435 1155 1009 2483 2940 1552 2099 1033 914 1004 1046 1247 1492 1551 1611 1745 2219 2708
453 465 982 1214 1498 1494 1778 2087 1886 1512 910 1825 1646 1758 1459 1481 1481 1618 1811 1961 2309 2950 3148 2391 2178 3518 3284 975 965 1457 2790 2865 3004 1160 717 1085 949 1108 1385 1532 1377 2246 2365
490 529 733 1442 1846 1691 1826 1588 1646 1758 1120 597 1551 2253 1966 1836 1402 1438 1754 1980 2085 2120 1987 2521 2075 2898 2336 2545 1639 1211 2130 1649 1556 1734 1843 1317 737 872 1639 1674 1602 1736 2575
461 425 671 1298 2077 1411 1736 1674 1888 1879 2063 1493 1704 1749 1524 1282 1483 1405 1516 1798 1872 2476 1928 1726 2087 2099 2850 3643 2555 2209 1258 1795 2442 2497 1617 1592 1831 1719 1503 2116 2035 1903 2147

GFSSE_con_mucape_108.txt.gz
CAPE
535 644 1631 960 987 1154 1638 1890 1929 2259 2315 2266 2675 2034 2040 2039 1853 2505 2541 2384 1894 1953 1913 1982 1995 1741 1767 1727 1695 1758 1790 1724 1643 1549 1612 1522 1215 1240 1689 1562 1978 1153 1494
514 859 1926 1072 939 1757 1931 2173 2386 2235 2173 2440 2241 2207 1983 2049 2013 2380 2457 1845 1830 1872 1774 1755 1894 1610 1866 1771 1358 890 1217 1224 1538 1426 1812 1736 1817 1735 1765 1835 1570 1578 1844
541 1034 1430 2188 1542 1774 1782 1999 2109 2149 2205 2110 2117 2419 2372 2253 1734 1775 1846 1805 1885 1759 1651 1262 969 1118 1684 1527 1524 1545 1477 1246 1017 1111 1574 1159 1468 1796 1566 1461 1674 1762 1769
426 777 1205 2350 2295 1634 2023 1912 1908 2023 2179 2124 2137 2043 1945 2458 2506 2386 1878 1919 2214 2295 1662 1892 1778 1379 1228 1495 1413 1499 1578 1629 1691 1826 465 781 784 1658 1835 1798 1791 1333 1636
786 970 1625 1979 2190 1811 1768 1905 1958 1918 2120 1970 1971 2204 2138 2308 1806 1761 1711 1595 1589 1822 1823 1937 1975 1457 1340 1474 1415 1487 1213 1872 2038 620 420 503 910 1492 1700 1830 1814 1611 1573
1267 1029 1420 1410 1404 2015 1706 1867 1770 2007 1941 1978 2415 2387 2549 2407 2066 1973 1926 1904 1981 1941 1936 2054 2118 1789 1385 1279 1039 1203 1433 1965 1755 341 275 656 615 962 971 984 977 1148 1090
373 202 1088 2107 1521 1802 1844 1954 1977 2049 2011 2462 2686 2653 2562 2244 2202 2064 2049 1957 2040 2010 2118 1964 2104 1434 1217 1030 1117 1300 1611 2183 273 240 345 494 1185 1797 1707 1952 1407 956 659
201 842 1336 1998 1880 1843 1972 2106 1854 1867 2313 2860 2465 2140 2186 2504 2282 2292 2071 2220 1982 2049 2044 1921 1732 1391 1140 1142 1017 1029 1157 1481 736 440 437 704 1594 1244 1157 1069 1054 888 559
594 782 1233 1398 1814 1967 1973 2109 2253 2431 2267 2141 2708 2582 2950 2505 2315 2280 2479 2371 2045 2071 2090 2090 2031 1907 1825 1364 790 778 1050 1708 1001 736 313 461 1261 763 523 453 429 472 581
674 1067 972 1352 1282 1344 1544 2036 1903 2394 2160 2025 2569 2552 2772 2550 2382 1997 2561 2572 2082 2044 2045 2153 2263 2320 2164 1921 1373 992 1172 1432 765 291 362 883 1104 451 365 345 371 575 709
707 805 865 1128 1489 2154 1960 1954 2112 2055 2187 2197 1926 2527 2206 1799 1682 1759 2460 2148 2078 2005 1892 2207 2380 2462 2401 2205 2095 1970 1961 1541 125 76 366 1275 1317 918 724 605 736 889 906
660 559 675 1010 1050 1260 989 1967 2207 2003 1659 1693 1835 1453 2605 1954 1776 977 1959 2270 1971 1839 2129 2627 2805 2486 2447 2263 2247 2579 2143 372 233 255 747 1559 1161 1080 999 1008 1004 1049 1053
204 397 449 1325 1182 1087 1744 1712 1670 1800 1885 1460 2362 1010 2279 1248 1264 1301 1841 1624 1948 2447 1472 2020 2350 2077 2041 2105 1929 2322 546 501 83 183 1460 1842 1127 1031 921 888 900 1061 1236
364 370 291 193 1314 320 1332 1014 1526 1694 1454 1342 1746 3006 3100 1544 2329 1051 1284 1323 2732 2123 375 1117 2097 2127 1833 1049 867 1050 532 310 0 23 1228 1475 961 891 908 971 1140 1335 1558
260 395 654 1420 1944 1768 1072 840 1287 1350 1631 1451 1064 1586 2714 1210 1611 1457 0 868 2373 1781 2045 2466 2599 1962 2059 1663 1622 1300 712 1019 28 7 276 1411 1280 983 1097 1239 1560 1733 1808
201 642 844 962 1497 1594 2513 2421 1036 1425 1706 1591 995 607 984 2566 2110 1866 1536 1872 1039 2904 2701 1506 2086 2070 1928 1158 1735 1536 1230 1071 1466 285 399 1054 1893 1574 1332 1510 1828 1947 2104
179 866 711 898 740 1480 1825 2007 694 1240 1511 2043 1846 843 995 2799 3187 1804 1490 2155 2877 2741 2692 3004 2908 1812 1806 1578 1887 2182 1367 1475 1376 1603 978 848 1316 2373 2355 2349 2419 2407 2380
183 901 807 245 511 784 1483 1650 1594 833 1269 866 1670 2312 2781 2627 2856 2564 2353 1388 2427 3389 3152 2812 3037 2294 1151 2271 2075 2028 1940 1556 1871 2064 2000 1654 1453 1224 2512 2850 2795 2719 2985
418 556 523 874 374 1094 2366 1715 1088 2365 1480 2141 2174 2403 2737 2556 2320 1685 2487 2734 3330 2425 1388 1645 1870 2080 1995 1470 1706 2025 2131 1703 2204 1640 2078 2275 2005 1966 1831 2429 2825 2964 3233
522 593 142 819 1024 1942 1498 2960 2526 1476 1969 1933 2181 1623 2692 2462 2175 2916 2626 3213 2296 2126 1602 2353 2969 2336 3262 1091 1092 1618 2087 2084 2156 1953 2048 1626 1882 2198 2319 2987 2457 2611 3146
486 603 565 1311 1904 1029 1547 471 2293 649 2040 1783 1644 2742 3113 2853 2312 2915 3277 2746 881 1084 3582 3521 3561 3255 3094 2662 3394 2118 1545 1831 2074 2063 1654 1381 1637 1917 2307 2580 3523 3350 2448
547 809 1474 1189 1766 2076 1655 1305 1974 1884 1737 1971 2270 2792 2008 2492 2594 2799 2927 2117 1655 2779 3445 3727 3977 3816 2609 2119 2539 2466 2215 1973 1497 1288 1770 1332 1305 1458 1976 2319 2955 2757 3349
509 904 1313 1703 1973 2321 1861 1590 2525 1230 2656 1690 1593 2388 2105 2253 2588 1313 2860 2051 2710 2965 3122 3808 3929 3532 3149 2256 3106 3717 2774 2465 2008 1453 1269 1618 1162 2076 1964 1857 2465 3037 2973
533 608 1700 1956 1930 1773 1358 1844 828 2120 1471 1881 2512 2047 2682 2590 2368 2402 2515 2727 2965 961 1488 3767 3210 3635 3393 3311 2679 2237 3343 1029 816 1452 1246 1124 1330 1723 1519 1518 1381 2628 2916
222 599 1323 2106 2023 2339 1014 2631 2036 2200 529 652 787 1166 2639 2962 2418 2134 2979 2682 3097 2634 2569 3518 3187 3702 3483 3679 2612 3142 2097 3585 1143 1590 141 612 1355 1525 1878 2035 1239 1944 1952
199 536 1396 2151 2141 2151 1960 1665 1948 952 431 968 434 692 2042 1908 2285 2917 2076 2873 3161 3045 2090 2647 3688 3367 3345 4128 3525 3417 1750 763 735 652 477 286 655 1232 613 935 620 533 847

GFSSE_con_mucape_111.txt.gz
CAPE
67 420 1643 1323 1384 1596 1959 2043 2166 2187 2148 2024 2007 2354 1537 2089 2345 2391 2214 2128 1831 1982 2197 1791 1800 1809 1693 1844 1835 1628 1553 1560 1793 1647 1524 1432 1315 1300 1800 1539 1381 1158 1537
376 1124 1906 1531 1880 2065 2218 1979 1814 2140 2019 2015 2391 2540 1829 2136 2227 1793 1823 1829 1845 1771 1856 1683 1907 1778 1328 1154 1257 1289 1163 1549 2116 2142 1604 1448 1610 1760 1856 1630 1755 1640 1677
790 1027 1285 2319 2073 2037 2066 2331 2206 2150 2024 1903 2497 2580 1813 1864 1989 2065 1836 1790 1692 1752 654 943 1636 1547 1516 1569 1493 1238 1072 1221 1574 1552 1557 1246 1224 1370 1515 1775 1831 1802 1874
944 1236 1669 2165 2311 2036 2121 2042 2005 2114 2091 1955 2099 2662 2062 2134 2233 2248 1711 1484 1503 1935 1931 1569 1103 1288 1426 1516 1547 1458 1285 1588 1657 1552 498 869 1036 1784 1804 1579 1480 1690 1723
853 1275 1689 2493 2352 2165 1991 1868 2096 2072 1999 2092 2134 2404 2213 1741 1605 1572 1611 1881 1980 1937 1876 1696 1197 1315 1370 1454 1279 1339 2258 2260 1618 396 637 1030 1236 1691 1778 1795 1606 1618 1471
1064 1495 2116 2205 1759 1760 1858 1979 1994 1964 1968 2140 2171 2220 2009 2031 2006 2019 1982 1899 1843 1929 1913 2002 1252 1130 1015 954 1143 1608 1932 1972 413 100 311 794 592 986 920 1006 1057 948 907
719 804 1017 2123 2164 1942 1940 2068 2149 2017 2080 2141 2197 2160 2161 1980 1954 2037 1986 2167 2087 1908 1894 2005 1151 1088 906 889 1205 1438 2046 1047 112 208 586 1109 1246 1917 1742 1109 842 586 673
618 1188 1055 1925 2026 2277 1879 1971 2088 2126 2186 2260 2333 2358 2278 2077 1936 2550 1946 1826 1810 1838 1748 1465 1212 1005 909 902 846 876 1723 1487 225 336 638 858 1531 1301 1078 840 760 509 610
969 1223 1456 1302 1454 1940 2394 1854 2032 2254 2148 2047 2363 2293 2206 2092 2011 2177 1920 1981 2042 2059 1997 1786 1553 1351 1141 799 616 661 1128 1557 368 191 359 562 1253 642 424 394 413 500 583
853 1046 1181 1280 1557 1627 1783 1970 1989 1980 2155 2303 2279 2280 2656 2239 1989 2116 2689 2571 2111 2161 2132 2089 1975 1921 1649 1282 1094 1180 1121 1524 498 196 446 720 934 376 324 340 457 595 711
832 770 948 1224 1161 1324 1623 1695 1873 1937 1928 2212 2135 2145 2591 1840 1625 1804 2122 2440 2080 2015 2115 2129 2178 2174 2211 2184 2079 1835 1611 1056 85 165 430 1128 1249 672 557 566 698 846 843
445 751 800 1062 1161 1253 1204 1700 1673 1693 1130 905 897 1019 1346 1494 1227 1434 1942 2164 1967 1858 1809 1944 1683 1904 2451 1947 1723 2271 2005 170 57 233 729 1407 1451 1035 910 889 898 894 980
446 527 828 1018 1052 752 1077 1395 1474 1309 1305 509 254 939 1202 1067 902 975 1233 1423 1615 1625 830 1047 30 547 1195 1745 1998 1760 1706 45 92 223 1124 1595 1376 958 838 834 885 1042 1243
197 372 739 693 407 945 1089 1321 1088 1248 1119 1049 898 995 1114 87 0 83 609 740 921 502 409 936 961 1075 1237 1345 1246 1628 1106 14 0 314 1382 1675 1450 948 917 940 1128 1355 1595
118 230 337 424 416 249 675 1129 1022 1204 936 846 816 861 705 472 390 86 342 446 288 996 926 1008 996 1379 1289 1002 435 326 282 68 0 26 440 1293 1597 1387 1103 1150 1434 1732 1866
181 261 636 603 867 1306 806 1046 990 824 566 177 519 724 840 841 986 599 541 510 571 737 996 968 1017 1360 1199 684 754 443 379 424 232 90 22 632 1902 1870 1848 1556 1797 2165 2102
302 345 307 306 424 972 483 366 527 740 899 707 0 398 987 1554 1278 1069 918 938 924 1422 1465 1662 1595 1702 686 704 638 766 431 592 624 747 878 440 1034 2126 2243 2536 2766 2906 2913
80 16 117 106 260 254 808 715 471 630 1116 921 821 974 994 1409 1744 1294 1569 1299 1435 1607 1501 1370 1500 1550 748 828 808 614 595 675 778 900 1018 1171 1027 907 1856 2902 2923 2927 3123
54 71 105 100 76 209 495 976 740 597 344 934 1129 1488 1362 1248 1901 853 1314 1827 1863 1560 1181 1070 1196 957 760 969 1019 946 750 821 891 1057 1083 1327 1311 1372 1245 1760 2768 2689 3031
190 103 174 87 0 594 693 1424 924 915 1071 1486 1297 1206 1478 1007 1633 1691 2048 1356 1194 1250 1775 2469 1976 1961 1874 1392 995 918 840 824 905 1075 1098 1352 1262 1386 1419 1707 1986 2153 2979
51 143 292 171 771 339 448 386 500 643 656 1176 979 1283 1222 1209 1299 1793 1755 1 769 955 1996 2253 2106 2012 2300 1506 1390 1724 1008 876 1027 1009 1117 1226 916 1288 1448 1664 2134 2077 2156
0 0 377 477 543 74 574 525 858 766 1058 1210 1335 1453 1206 1617 1311 1561 1463 1294 1060 1794 2095 2141 2416 2595 2102 1028 1336 2140 671 495 777 1015 947 1070 1039 951 1329 1527 1887 1995 2273
48 226 385 565 254 840 792 996 737 350 1136 956 1125 1179 1289 1484 1277 1150 1637 1273 1208 1207 1440 2101 2505 2376 2534 2241 1773 2135 1728 1667 1120 791 641 701 467 732 970 925 1088 1653 1951
133 388 210 452 459 768 680 718 561 450 461 557 698 987 1033 1380 1387 1119 1403 1685 1223 1125 1228 1896 1934 2197 2451 2360 2011 1873 663 549 375 455 678 521 446 669 665 529 433 439 715
197 215 451 517 565 593 534 997 418 487 497 448 533 767 792 1568 1427 1304 1119 1210 1588 1418 1284 1730 2174 1852 2079 2379 2270 2035 929 545 506 82 241 251 194 425 422 347 279 177 206
79 267 543 589 559 644 348 807 633 627 432 236 371 306 489 674 941 1004 1519 1620 1268 1343 1335 1497 1854 1403 2060 1816 2294 1976 1363 353 311 211 11 1 67 272 188 2 0 54 5

GFSSE_con_mucape_114.txt.gz
CAPE
132 431 1345 1192 1365 1903 2260 2366 2372 2311 2132 1987 1690 1884 1872 1718 1480 1774 1881 1952 1909 2115 1855 1799 1807 1617 1337 1643 1592 1621 1818 1752 1801 1630 1493 1405 1469 1533 1456 1288 1108 885 1229
83 644 1838 1723 1900 2012 2193 2312 2215 2096 2058 1938 1669 1873 1941 1750 1938 1951 2009 1914 1891 2047 1961 1765 1444 1427 1561 1416 1298 1344 1894 2240 2254 1655 1755 1785 1641 1597 1580 1506 1641 1308 1394
584 960 1598 2394 2187 2247 2244 2207 2089 2007 1956 2050 1739 1823 1810 1952 1953 1899 1954 1930 1302 1135 1763 1757 1378 1684 1594 1400 1281 1286 1453 1674 1752 1522 1410 852 1167 1816 1779 1736 1729 1649 1645
903 993 1546 2374 2312 2180 2198 2321 2153 2007 2027 2083 1711 1927 2023 2018 1916 1798 1721 1178 1541 1594 1256 1306 1528 1606 1597 1507 1407 1267 1256 1281 1849 1265 877 1156 1340 1621 1390 1529 1691 1602 1591
1100 1496 1472 2279 2444 2000 2149 2163 2142 1904 1983 2082 2025 1838 1702 1797 1998 2027 1839 1931 1726 1397 1115 1208 1415 1479 1603 1366 1591 2513 2790 2296 1416 933 985 1218 1407 1636 1781 1826 1642 1392 1344
1340 1575 2151 2087 2104 1929 2076 2040 2083 2010 2138 2041 2102 1865 1821 1650 1612 1651 1810 1864 1834 1797 1882 1149 1262 1262 1174 1276 1842 1981 1515 1031 659 675 981 707 896 1361 1385 1211 944 963 1153
1454 1755 1954 2399 2081 1949 2083 2126 2040 2071 2225 2231 2185 2046 1973 2018 2139 2154 1983 1958 1968 2112 2044 1161 1095 910 966 1269 1464 2390 1221 644 68 245 587 682 1390 1762 1121 795 604 691 658
909 1074 1692 2192 2087 2102 2131 2121 2190 2203 2331 2317 2129 2064 1918 1945 2107 2024 1879 1914 1762 1767 1590 1164 1074 896 904 965 992 2536 1490 581 286 832 1113 1166 1613 1814 777 847 562 497 613
999 998 1391 1759 1730 2119 2084 2245 2243 2187 2391 2126 2241 2166 2229 2124 2067 1914 1938 1957 1879 1758 1603 1361 1135 948 867 786 674 1237 2614 714 283 402 449 483 1100 538 434 417 448 541 627
1170 1398 1287 1433 1770 1675 1775 2129 2187 2110 2255 2346 2312 2289 2134 2212 2131 2081 2545 2371 1980 1920 1818 1745 1748 1875 1883 1556 1053 883 1863 736 252 102 261 435 957 373 338 379 477 603 705
994 1091 1130 1510 1593 1639 1698 1797 2031 2303 2306 2506 2415 2420 2345 1562 1753 1708 1999 2119 2006 2030 2062 2085 2235 2180 1973 1986 2008 1984 1507 526 217 158 322 1029 1109 481 472 594 732 844 893
811 910 1096 1163 1335 1568 1685 1659 1563 1606 1602 1683 1676 1786 1187 1179 1369 1467 1715 2056 2008 1844 1821 2029 2213 2143 2725 2071 1606 1944 2135 1098 26 138 454 1599 1432 1031 922 918 1004 1078 1101
726 844 959 1093 1078 1318 1572 1540 1492 970 864 605 714 1023 1156 1044 1237 860 772 791 848 1468 832 1451 1326 916 956 1299 1603 1818 1539 422 24 216 909 1809 1503 1118 854 890 954 1069 1404
691 786 893 995 962 758 1200 1260 1155 1070 698 446 796 922 703 579 354 195 410 345 323 633 753 607 453 700 823 953 1062 1212 1050 50 48 176 874 1789 1704 1271 1106 1087 1191 1412 1713
441 593 932 830 887 765 1005 1032 1024 1183 803 922 824 764 253 34 0 0 238 139 371 624 948 858 779 850 1127 1459 1345 805 1246 101 0 129 552 1284 1677 1297 1197 1180 1376 1774 2165
404 484 524 386 507 782 1031 943 903 866 791 732 693 575 525 547 508 256 263 254 529 684 1038 1175 1188 988 1012 738 638 341 394 252 117 42 33 512 1725 1881 1756 1553 1962 2376 2486
278 259 216 520 958 914 606 836 867 544 74 270 458 663 866 752 1088 577 692 870 919 1199 1369 1361 1806 1536 1343 671 660 449 347 575 627 842 945 577 708 1960 2403 2570 2891 3166 3309
79 100 177 330 510 519 764 718 693 653 569 173 405 700 944 1391 1188 1021 1237 1136 1086 1289 1563 1219 1274 1233 987 707 755 701 533 566 780 972 1039 1210 985 959 1148 2459 3222 3283 3419
50 60 72 94 325 376 434 380 331 682 773 600 735 815 957 1327 1621 1611 1782 1204 1097 1196 1514 2216 1533 1209 1051 805 870 686 753 845 864 992 1067 1215 1228 1314 1279 1650 1989 2963 3090
6 7 0 3 3 96 395 1047 407 585 570 733 899 1268 1307 1211 1797 1825 1846 1114 978 1435 2009 2182 1929 2236 1691 1156 931 945 725 799 909 959 1045 1112 1273 1150 1177 1202 1295 1508 2499
3 5 38 65 33 352 460 749 548 588 1020 982 1213 953 1396 1008 1281 1507 1215 298 930 1742 2037 2185 2287 2462 1397 757 1257 1166 723 676 745 712 896 967 1096 740 969 1242 1793 1959 2202
50 44 13 4 241 249 279 533 357 619 528 758 995 1100 1276 1312 1396 1633 1227 1073 995 1325 1581 2088 2005 2190 2062 1966 1282 1431 470 461 570 719 758 821 750 804 910 1061 1328 1881 1563
59 66 70 130 41 78 424 633 517 763 768 836 928 940 1068 1279 1145 1215 1343 1155 1193 1030 1319 1633 1831 2067 1810 1617 1478 1523 1344 1178 799 555 689 557 551 577 838 712 544 982 1215
0 92 74 144 130 563 615 640 410 469 657 519 517 723 891 1172 977 1123 1372 1205 1177 1257 1136 1859 1682 1749 1887 1715 1181 711 476 533 656 552 543 363 316 411 525 554 373 157 168
9 62 78 95 218 449 400 417 398 323 316 366 435 454 716 952 1200 992 921 1395 1352 1137 1223 1318 1462 1682 1753 1628 973 709 469 424 186 332 288 353 314 204 256 271 59 0 32
132 81 146 94 450 318 305 496 327 314 371 360 282 462 437 460 650 934 1150 1057 1012 1085 1143 1212 1397 1453 1576 1509 1478 876 503 320 232 138 43 1 37 121 126 147 109 164 7

GFSSE_con_mucape_117.txt.gz
CAPE
33 143 1084 1184 1533 1741 2055 2138 2110 1973 1755 1969 1664 1209 1214 1735 1703 1666 1689 1846 1765 1828 1863 1714 1732 1607 1458 1679 1733 1575 1571 1721 1631 1550 1569 1566 1488 1181 1192 1328 1392 1281 1171
124 789 1439 1707 1880 2050 2277 2162 2059 1915 1777 1899 1915 1687 1517 1792 1705 1809 1768 1792 1869 1910 1778 1597 1683 1557 1519 1415 1520 1529 1801 1762 1736 1682 1761 1751 1672 1472 1432 1650 1602 1071 1049
187 785 1730 2079 1982 2118 2206 2126 2057 1955 1434 1863 1759 1615 1777 1841 1897 1672 1929 1907 1802 1656 1408 1562 1538 1549 1550 1538 1572 1579 1857 1665 1575 1612 1692 1411 1498 1849 1924 1650 1746 1802 1495
561 1091 1663 2523 2315 2126 2220 2292 2099 2114 1569 1817 1748 1706 1866 1901 1738 1782 1195 821 1008 1620 1442 1780 1786 1663 1663 1567 1386 1365 1613 1761 1609 1555 1149 1206 1138 1775 1644 1849 1764 1735 1772
976 1195 1641 2127 2234 2165 2314 2233 2134 1904 1853 1877 1863 1750 1731 1641 1296 1219 2157 1813 1436 1167 1390 1628 1700 1673 1495 1701 1789 1772 1534 1567 1627 1080 1215 1351 1452 1351 1585 1488 1408 1444 1768
1181 1472 1742 2041 2005 2023 2258 2206 2112 2060 2154 2113 1870 1712 1717 1774 1958 1925 2000 1899 1963 1678 1271 1494 1649 1533 1490 1902 1768 2460 1758 1673 1133 1073 1150 1385 1627 1878 1642 1351 1300 1439 1679
1425 1533 1720 2221 1949 2174 2000 2169 2148 2075 2127 1943 1906 2009 1950 1934 1909 1823 1799 1918 2038 2149 1258 1208 1279 1240 1476 1720 2043 1360 1216 1006 596 522 479 1049 1197 1232 1054 870 845 810 803
1614 1841 1797 2099 1971 2126 2168 2168 2185 2176 2294 2255 2173 2116 2168 2161 2260 2253 2041 1854 1868 2021 1289 1185 1084 1094 1266 1253 2184 1578 990 501 481 1093 1084 1474 2086 1528 938 1030 614 638 724
1520 1810 1790 1864 2006 2220 2189 2201 2251 2142 2083 2221 2244 2077 2204 2189 1983 1942 1957 1933 1847 1731 1517 1326 1199 1212 1294 1111 1215 1704 1176 759 571 829 957 954 1186 821 601 519 573 668 740
948 1461 1755 1674 1858 1876 1886 2254 2110 2282 2277 2337 2257 2188 2130 2028 2000 2094 2387 2171 2005 1976 1922 1839 1780 1790 2058 1798 1407 1376 1235 936 220 163 285 441 832 475 431 476 580 710 842
1313 1197 1472 1627 1751 1539 1776 1976 2138 2255 2320 2286 2096 2119 2318 1866 1837 1793 2111 2128 2111 2223 2300 2288 2155 1928 1833 2000 2011 1961 1784 924 378 150 246 773 723 466 500 624 800 974 1113
1245 1158 1246 1560 1476 1515 1723 1769 1737 2111 2143 1980 2066 1887 1246 1284 1510 1510 1991 2454 2458 2315 2107 2271 2173 2303 2075 1911 1576 1922 1502 1854 443 36 200 1251 1111 885 845 928 1111 1285 1316
809 992 1245 1191 1280 1388 1452 1453 1342 1031 1083 1545 1572 1220 1034 950 1267 800 984 911 784 1331 1031 694 826 649 716 924 1057 1292 1643 454 576 43 443 1576 1492 1309 1059 1003 1135 1311 1634
741 879 1007 1031 1099 1122 1283 1085 1181 784 498 617 809 1046 1093 700 424 338 414 424 209 481 573 651 659 734 793 948 1060 1097 1076 240 36 17 280 1502 1541 1460 1363 1278 1369 1617 1986
736 837 933 919 899 764 1006 993 1044 1005 379 500 731 787 613 331 206 98 220 189 391 519 742 981 1009 1047 959 853 811 1056 908 604 67 31 157 1382 1761 1381 1221 1345 1563 1930 2428
636 707 844 758 666 747 843 908 958 1087 847 784 704 588 356 299 54 179 373 479 576 768 1209 1319 1343 1078 1065 958 447 348 406 1036 5 13 115 363 1835 1825 1352 1520 1936 2302 2619
455 649 837 750 727 661 731 828 834 740 696 672 627 548 663 691 951 735 913 909 965 1045 1231 1187 1025 1200 1028 618 473 313 384 466 708 783 653 536 762 1337 2160 2399 3045 3421 3414
355 479 509 338 496 602 704 673 725 394 255 470 521 815 862 1074 1114 992 1090 1060 929 1241 1172 1765 1336 898 696 549 594 587 361 320 693 817 1000 1114 903 978 1044 1342 1909 2263 2810
269 193 276 466 528 567 513 603 621 369 373 137 434 706 1236 1476 1147 1314 1226 1086 952 1527 1952 1906 2039 921 799 652 605 634 605 512 564 687 847 970 1074 1143 1159 1228 1579 1765 2176
152 73 194 252 213 334 340 400 331 612 720 587 715 767 1073 1390 1498 1558 1369 791 903 1704 1806 2142 2054 1556 893 822 771 723 662 635 659 736 812 870 1020 1114 1032 1461 1688 1932 2189
50 26 81 152 178 213 741 435 427 589 570 585 899 1124 1296 1149 1376 1496 481 495 1296 1486 1888 1967 2048 1826 1715 728 979 730 668 511 560 589 694 810 867 806 840 1441 1566 1604 1812
40 26 0 0 45 146 398 471 389 446 611 579 898 917 1158 1101 1459 1362 1116 888 1000 1188 1544 1708 1816 1575 1312 1012 1368 801 435 469 490 621 673 677 742 717 745 831 1300 1359 1330
0 9 0 0 69 172 239 468 324 506 624 699 896 918 973 1160 1200 1291 1073 1014 985 971 1423 1515 1569 1529 1198 873 904 1092 1109 639 412 481 578 652 574 485 507 561 434 478 349
0 0 19 0 83 112 262 468 353 378 509 472 575 745 791 977 888 1154 1086 1052 986 1037 1489 1637 1397 1468 1295 958 734 530 359 452 568 457 423 479 368 327 259 291 260 59 2
7 0 0 0 57 338 415 318 334 398 310 373 441 538 627 892 1083 1142 1078 1076 1161 963 1162 1295 1305 1248 1340 692 629 490 426 311 151 190 191 214 204 240 210 202 106 256 126
17 12 0 16 156 349 400 390 274 251 293 320 339 379 410 571 702 1128 870 1058 1020 928 1041 1148 1051 1333 1122 1335 795 508 367 308 237 65 86 160 176 80 139 324 307 274 152

GFSSE_con_mucape_120.txt.gz
CAPE
18 101 892 1212 1137 1286 1609 2071 1721 2139 1898 1728 2007 1393 1729 1650 1761 1713 1762 1770 1690 1650 1684 1941 1698 1751 1590 1711 1550 1526 1615 1691 1763 1646 1606 1411 1301 1404 1560 1661 1355 792 1173
40 308 1209 1262 1409 1585 2174 2041 1963 2019 1862 1971 1600 1722 1763 1802 1849 1893 1812 1841 1660 1648 1617 1557 1745 1729 1700 1670 1299 1441 1724 1551 1670 1681 1876 1679 1607 1619 1739 1636 1118 1010 1178
204 807 1506 1680 1959 1904 2033 2016 1867 1721 1990 1932 1865 1892 1872 1875 1921 2036 1865 1543 1538 1522 1609 1757 1701 1704 1754 1734 1824 1859 1755 1847 1811 2015 1940 1618 1730 1678 1790 1851 1820 1607 1515
377 1245 1510 1821 2072 2025 2210 2016 1963 1656 1803 1689 1847 1861 1987 1980 1961 1489 934 1405 1617 1521 1745 1609 1404 1540 1504 1548 1570 1914 1913 1685 1686 1646 1188 1287 1466 1774 1825 1789 1867 1924 1733
856 1246 1646 2047 2190 2121 2095 1898 1734 1903 1846 2011 1822 2024 1925 1902 1415 1938 2000 1549 1338 1618 1847 1807 1642 1698 1736 1816 1751 1694 1791 1659 1679 1204 1275 1474 1415 1638 1415 1460 1590 1718 1891
1014 1353 1805 1949 2164 2142 1962 2146 1878 2000 1983 1983 2015 1961 1931 1757 1877 1994 1800 1908 1469 1392 1576 1715 1624 1738 1941 2023 1933 1920 1910 1626 1173 959 1282 1426 1446 1777 1482 1203 1258 1561 1567
1226 1401 1794 1938 1866 2055 2161 2197 2104 2076 2087 1878 1792 1753 1731 1782 1785 1831 1892 1976 2078 1372 1344 1379 1371 1571 1591 2014 1555 1453 1282 1124 521 433 748 1165 1291 1174 870 773 800 766 787
1169 1467 1666 1889 1987 1918 2115 2074 2216 2121 2094 2096 1988 1934 1774 1722 1847 2051 1856 1911 1966 1347 1254 1267 1202 1320 1382 2016 1375 1136 734 601 760 883 1072 1495 1811 1207 1113 773 658 758 851
1404 1600 1540 1780 1720 2138 2154 2233 2217 2234 2181 1988 1976 2037 2096 2010 1857 1896 1874 1802 1656 1438 1245 1229 1311 1459 1363 1339 1708 1353 961 826 608 655 842 715 932 624 521 541 623 732 817
1636 1676 1548 1781 1812 1790 1538 2136 2126 2235 2172 2229 2182 2113 2102 1978 2152 2216 2273 2136 1850 1703 1514 1339 1364 1593 1831 1638 1618 1703 1218 821 187 118 240 344 638 441 412 486 644 822 1001
1003 1555 1538 1430 1400 1451 1592 1846 2020 2204 2346 2309 1995 2165 1810 1777 1740 1596 2237 2159 2182 2245 2138 2033 2048 2088 2158 2056 1868 1827 1592 982 470 151 181 449 599 453 484 656 926 1204 1464
954 1061 1293 1421 1357 1462 1764 1833 1747 2058 2065 1809 1766 1238 1184 1240 1674 1669 2038 1961 1905 1960 1478 937 1795 1086 709 878 1428 1708 1507 1528 883 143 112 585 913 969 953 1102 1349 1487 1565
962 919 1090 1310 1294 1364 1364 1453 1462 1818 1800 1673 1469 944 916 1000 868 582 610 499 499 872 607 475 435 448 611 731 721 936 1311 664 811 80 165 765 1349 1515 1359 1184 1401 1603 1900
840 813 1053 1037 1105 1120 1086 1088 787 538 642 884 847 917 916 597 305 291 360 160 211 414 623 752 810 749 818 775 755 916 878 195 57 18 34 911 1545 1587 1592 1508 1636 1796 2147
518 694 823 793 886 812 879 839 632 439 454 586 739 776 687 336 222 128 98 293 465 730 1024 1088 1066 954 796 810 487 866 915 555 18 23 133 564 1601 1496 1418 1517 1898 2225 2581
530 647 713 678 612 520 722 782 744 906 475 457 508 675 486 134 61 370 553 666 802 888 947 946 993 1274 1060 901 363 259 254 653 96 164 379 571 994 1997 1243 1412 1937 2269 2742
473 536 614 513 483 500 616 773 886 920 732 740 578 426 543 646 832 704 833 816 815 1165 1210 1345 1030 901 858 543 290 261 422 579 649 539 590 1011 1158 1342 1452 1686 2053 2889 2875
379 451 510 472 508 516 606 610 636 584 681 607 558 606 539 977 978 935 908 975 1089 1323 1808 1629 1572 768 429 474 490 467 199 398 665 777 889 966 893 951 974 1063 1814 2244 2448
234 394 531 540 426 500 473 596 589 421 268 428 408 498 901 1211 992 1113 1072 848 1368 1629 1927 1966 1729 664 576 521 508 524 390 424 492 625 756 834 943 999 1042 1109 1888 2300 2373
199 236 418 263 389 471 494 502 471 349 387 121 455 531 811 1265 1290 1434 1003 711 1447 1562 1773 1816 1556 926 721 684 631 596 585 580 606 658 687 755 839 971 1233 1795 2192 2123 2695
151 183 132 260 371 375 414 409 291 514 519 490 611 818 998 1166 1288 755 434 815 1217 1532 1546 1777 1730 1567 1255 725 823 609 580 500 545 559 569 645 689 738 668 1154 1639 1349 1553
94 85 111 150 171 241 199 236 263 403 474 444 627 924 1063 877 1173 1030 716 826 957 1284 1323 1454 1489 1324 832 864 1364 541 449 497 486 507 579 603 622 672 599 643 874 949 1003
7 0 41 90 119 180 445 375 254 419 511 603 760 832 875 1008 1083 989 742 678 750 1043 1220 1295 1345 1315 880 642 669 1158 908 577 451 375 454 506 508 414 452 452 436 300 219
2 0 0 13 43 8 224 362 276 344 385 491 581 659 717 884 816 1018 860 803 855 834 1292 1465 1283 1263 1090 772 566 461 376 404 454 690 396 371 363 327 417 403 351 242 168
0 0 0 0 0 51 225 327 214 265 327 390 450 517 585 721 850 1013 945 868 901 715 1015 1063 1138 1234 1036 731 533 390 354 283 210 151 122 78 77 146 189 229 255 235 38
0 10 0 0 0 48 146 241 239 248 237 248 294 316 402 579 756 908 864 865 915 767 906 881 845 1009 1044 1078 668 459 411 282 210 120 86 271 230 211 256 314 337 423 617

GFSSE_con_mucape_123.txt.gz
CAPE
87 158 1107 733 657 936 1613 1744 1742 1860 1457 1684 1845 1853 1690 1639 1749 1768 1731 1629 1731 2229 2185 1721 1725 1642 1627 1675 1403 1367 1585 1605 1646 1492 1254 1403 1597 1704 1656 1208 978 976 1569
36 321 825 911 987 959 1284 1949 1784 1688 1466 1604 1889 2037 1817 1846 1772 1692 1692 1732 1850 1690 1615 1772 1817 1728 1528 1486 1608 1614 1633 1528 1546 1498 1622 1584 1493 1744 1385 1225 1074 1306 1228
218 958 779 981 1124 1485 1756 1957 1864 1890 1585 1906 1903 1912 1900 1849 1797 1725 1561 1515 1799 1832 1795 1796 1711 1689 1874 1951 1738 1812 1803 1689 1803 1895 1552 1375 1683 1888 1804 1596 1617 1528 1695
592 1047 1134 1740 1799 1753 1883 1939 1800 1822 1829 1956 1978 2058 1840 1857 1413 1484 1714 1706 1821 1527 1632 1452 1176 1224 1356 1692 1973 1827 1752 1695 1728 1321 1158 958 1228 1799 1814 1869 1997 1858 1821
1062 1332 1456 1793 1942 1888 1899 1834 1899 1837 1987 1956 2061 1917 1910 1477 2135 1868 1427 1466 1912 1777 1742 1411 1374 1692 1753 1593 1845 1824 1699 1827 1646 1344 1499 1432 1750 1409 1558 1460 1672 2023 1670
1106 1670 1536 1869 2004 1997 1944 1682 2025 1939 1999 2041 2005 1874 1386 1994 1764 1852 1707 1361 1570 1665 1677 1590 1835 2002 2023 1909 1854 1997 1621 1493 1150 1473 1657 1427 1308 1446 1137 1077 1415 1453 1335
1150 1336 1629 2021 2090 2084 1934 1972 1923 2007 1929 1858 1765 1879 1914 1940 1866 1936 1920 1826 1324 1467 1530 1456 1677 1872 1936 1436 1388 1307 1177 1053 345 620 1304 1301 959 1065 745 743 772 808 833
1090 1270 1574 1862 1848 2034 2034 2017 2142 1970 2041 1970 1943 1860 1832 1854 1914 1899 1916 1718 1253 1329 1437 1355 1451 1584 1980 1493 1261 824 691 435 891 1306 1683 1266 1697 1165 742 681 802 856 917
728 1120 1598 1286 1875 1922 2074 2184 2169 2012 1999 1966 1773 1768 1839 1829 1923 1949 1677 1425 1274 1181 1286 1400 1575 1538 1491 1675 1660 1233 633 1007 448 763 625 580 838 550 513 599 764 892 998
1087 1068 1460 1840 1764 1627 2069 2086 2209 2270 2162 2044 1900 1873 2144 2062 2072 2134 2294 2139 1474 1268 1131 1279 1556 1760 1731 1673 1853 1631 1164 573 354 2 33 173 678 485 481 611 872 1093 1320
1209 1311 1668 1755 1972 1743 2052 2112 2143 2090 2177 1991 2156 2370 2331 1965 1727 1680 2257 2150 2169 2014 1796 1615 1604 2024 2029 1838 1818 1914 1546 1241 694 46 0 432 672 654 621 839 1124 1453 1714
783 1269 1585 1628 1415 1921 2180 2394 2389 2456 2518 2503 2167 2194 2051 2043 2269 2214 1823 1368 1977 1650 1427 603 1157 752 732 969 1518 1892 1931 1918 1118 221 84 423 946 1282 1227 1411 1535 1631 1837
364 1052 1332 1631 1744 1900 2350 2296 2261 2334 2091 2179 1949 1811 1906 1635 1098 1193 1295 914 1044 673 874 696 596 754 1032 1182 1352 1487 1575 967 677 113 246 480 1250 1609 1629 1606 1756 1898 2142
630 868 1233 1377 1727 1729 1738 1918 1723 1478 1487 1314 1635 1885 1641 1028 721 951 1106 802 851 1154 1716 1763 1561 1747 1812 1776 1479 1666 1400 552 187 98 270 624 1388 1605 1679 1900 1930 2214 2516
602 831 1109 1254 1648 1719 1783 1788 1152 998 872 1129 1346 1536 1308 796 571 525 672 739 1150 1421 1792 2125 2205 2197 1990 1699 1004 1513 1416 769 315 229 427 655 1271 1706 1484 1538 1918 2368 2652
511 779 927 1038 1403 1497 1458 1625 1485 1240 821 1223 1311 1645 1273 620 297 746 1164 1271 1661 2025 2213 2248 2213 2249 2003 1314 960 772 1140 832 505 359 527 664 759 1273 1548 1560 1987 2461 2594
655 795 887 846 1010 1417 1668 1737 1827 1914 1595 1460 1426 1442 1370 1634 1629 1767 1608 1802 2049 2381 2744 2614 2086 2083 1372 999 1206 694 710 625 434 480 937 1115 1172 1166 1242 1334 1989 2429 2415
483 854 965 611 799 1175 1472 1747 1533 1483 1533 1474 1315 1496 1285 1671 1951 1899 1865 2108 2242 2839 2930 2772 1984 1556 1237 1350 1414 1157 535 637 723 749 828 955 1060 1135 1134 1295 1934 2613 2566
643 815 937 1036 1065 1220 1432 1350 1535 1265 1334 1128 890 1071 1590 2165 1911 2151 2079 1585 2241 2802 3152 2672 2206 1721 1370 1277 1154 1305 1150 1169 1175 939 1463 1661 1499 1612 2000 1936 2143 2278 2681
572 867 990 1059 1141 1391 1253 1279 1183 1043 877 618 515 1000 1584 2178 2123 2516 1664 1430 2646 2819 3024 2520 2462 2109 1766 1634 1028 1334 1256 1122 1186 1347 1405 1462 1714 1798 1803 2361 2730 2228 2524
510 660 956 1014 1085 1114 1101 1090 1146 1072 1324 833 863 1544 1928 2154 2418 2183 1200 1853 2554 2772 3211 3154 2723 2708 1903 1631 1423 1301 1212 1181 1330 1457 1441 1425 1468 1335 1310 1530 1907 1554 1143
522 655 765 775 1052 1112 1083 1180 1082 1323 1318 1379 1461 1930 2141 1886 2319 2146 1620 2080 2276 2429 3067 3103 3039 2213 1687 1778 2245 1270 1290 1229 1135 1078 1327 1401 1381 1111 1041 1003 1067 964 868
397 579 651 680 898 1021 1079 1018 1180 1310 1414 1495 2061 2561 2012 2040 2180 2233 1820 1950 1985 2366 2326 2894 2789 2726 1612 1302 1666 2289 1463 985 1313 993 1075 838 958 972 1057 1083 934 954 781
287 384 446 530 656 819 1129 992 1275 1049 1139 1565 2365 2220 2017 2082 2018 2123 2030 1975 2284 2105 2784 2667 2373 2498 2333 1526 1209 941 1264 1423 1134 1040 1074 973 873 633 610 579 689 860 790
218 249 282 414 481 654 933 1070 1504 1145 1046 1373 1395 1661 1862 2058 1954 1825 2158 2070 2229 1884 2456 2511 2451 2692 1868 1787 1407 1018 767 479 584 563 420 273 558 295 525 798 986 970 1026
176 174 203 312 415 514 810 1248 1344 1338 1186 1177 1378 1271 1470 1590 1656 2100 1956 2327 2345 2031 2177 1997 2293 2452 2364 2248 1479 1318 981 790 797 404 366 721 893 894 943 1076 1177 1459 1557

GFSSE_con_mucape_126.txt.gz
CAPE
115 630 263 283 330 306 1267 1287 1267 1628 1661 1649 1549 1563 1616 1681 1730 1694 1644 1620 1457 1596 1676 1850 1785 1762 1619 1624 1605 1637 1709 1618 1406 1397 1687 1718 1680 1520 1097 1019 1901 1228 1830
84 377 936 540 605 610 1438 1649 1452 1677 1445 1446 1497 1558 1652 1749 1756 1850 1918 1708 1674 1727 1633 1882 1700 1642 1606 1751 1742 1728 1623 1711 1799 1856 1861 1837 1753 1258 1351 1735 2250 1151 1135
219 377 428 956 914 716 1285 1693 1474 1433 1224 1750 1895 1802 1854 1793 1685 1591 1785 1880 1852 1662 1737 1643 1748 1846 1939 1934 1848 2016 2015 1988 1623 1687 1627 1234 1713 1883 1564 1569 1656 1725 1728
378 547 784 1360 1170 835 1778 1612 1728 1603 1495 1662 1600 1808 1625 1697 1838 1880 1937 1844 1570 1482 1356 1350 1343 1587 1978 1950 1804 1644 1706 1664 1317 1213 845 1100 1397 1785 1912 2083 2009 1859 1754
794 869 1065 1508 1662 1531 1623 1772 1851 1439 1581 1753 1879 1663 1728 1932 1771 1474 1782 1882 1785 1492 1463 1748 1909 1721 1874 1969 1790 1765 1873 1644 1407 1847 1463 1923 766 1471 1598 1988 2062 1764 1918
907 842 1384 1724 1797 1870 1764 1878 1872 1790 1657 1711 1547 1740 1944 1846 1785 1381 1598 1829 1746 1700 1844 1979 2043 2043 1829 1892 1971 1539 1500 1291 959 656 631 575 760 1098 1038 1220 1364 1232 1118
874 752 1371 1938 1964 1817 1890 2011 2007 1938 1954 1896 1959 1880 1911 1881 1746 1931 1573 1445 1672 1718 1787 1850 2134 1827 1573 1272 1188 1136 1220 536 704 869 680 489 573 861 780 774 861 899 926
679 868 944 1820 2034 1762 2022 1870 2016 1957 1913 2030 1992 1992 1916 1822 2051 2100 1639 1302 1551 1595 1591 1612 1986 1992 1691 1464 867 585 596 741 768 817 1027 583 1190 787 681 781 851 897 983
580 844 796 964 1607 1850 2104 2060 1941 1888 1821 1852 1901 1994 2005 1884 1682 1577 1344 1183 1280 1416 1498 1645 1684 1761 1841 1932 1531 795 626 642 219 595 446 262 600 595 590 700 891 1072 1280
437 698 726 1060 1440 1637 1698 1965 1950 2013 1941 1897 1897 2074 1995 1883 1695 1571 2114 1479 1120 1127 1280 1545 1717 1826 1786 1905 1938 1502 1212 945 1 60 159 146 751 577 603 810 1135 1416 1738
585 881 947 1233 1436 1910 1853 2015 1959 1941 1985 2030 1857 1853 1674 804 1070 1300 2127 1980 1805 1540 1307 1397 1733 1825 1607 1710 1871 1952 1899 650 157 57 204 384 768 957 950 1182 1504 1755 1934
635 897 984 1118 1234 1496 1548 2007 1837 1587 1437 1226 1209 1287 985 1451 1825 1404 1602 1913 1890 1711 1274 1344 1405 1052 1050 947 1515 2041 1050 824 436 202 267 551 1023 1523 1631 1631 1672 1990 2171
668 938 1122 1328 1457 1483 1648 1607 1395 1227 1116 1488 1661 1396 1649 1462 1692 1657 1674 1243 1455 1235 988 903 981 1106 1428 1271 985 747 504 651 535 318 316 525 1177 1623 1873 2077 2169 2277 2511
612 783 925 1130 1496 1303 1309 982 979 1138 1036 864 1578 1805 1801 1225 1214 1400 1078 1364 1581 1542 1976 1776 1651 2161 2051 1763 1165 1000 489 391 421 427 401 578 1160 1478 1617 1906 2123 2421 2786
458 764 1006 1341 1655 1684 1245 653 684 758 827 1003 1349 1746 1366 1003 966 922 1599 1587 1952 1960 1950 2062 2110 2021 1805 998 947 901 587 593 537 560 838 704 877 1500 1605 1622 1840 2366 2780
482 719 1059 1281 1643 1503 1623 1694 1356 1085 1188 1083 1316 1657 1480 888 1101 1565 1868 1666 2003 2131 2090 2094 2148 1626 1130 700 823 869 728 836 728 670 835 963 881 1091 1318 1726 2099 2431 2538
584 725 1010 1087 1269 1555 1669 1735 1394 1342 1052 1138 1278 1840 1812 2086 2270 2483 1792 1884 2158 2655 3197 2656 2176 1766 924 584 1062 1254 1157 901 952 942 988 1101 1135 996 1002 1241 1810 1951 2432
382 712 775 630 1006 1520 1664 1765 1240 1377 1452 1345 1384 1521 1921 2204 2385 2388 1794 2033 2881 2808 2654 2137 1442 1105 997 653 1053 912 1065 1166 1437 1435 1602 1946 1836 1693 1782 1651 1755 2276 2820
663 1086 785 918 1113 1308 1814 1504 1456 1707 1562 1498 1478 1495 2339 2080 2090 2109 1870 2193 3138 2718 2673 1717 1430 1064 1119 833 725 1025 1203 1240 1405 1206 1735 2025 2068 2282 2371 2315 2477 2367 3080
744 1206 1251 1298 1336 1545 1701 1864 1376 1235 1321 1315 1195 1425 2001 1988 2287 2422 1640 2304 2909 2294 2340 2304 2137 1932 1545 1180 620 883 1087 1152 1308 1344 1387 1527 1891 2280 2098 2521 2756 2536 1850
568 832 1314 1442 1578 2039 1561 1274 1145 1100 1133 965 1069 1446 1791 1981 2341 2371 1673 2015 2544 2197 3472 2867 2415 2452 1852 2202 1627 1388 1422 1580 1407 1421 1538 1574 1847 1885 1935 1984 2233 2031 1305
729 761 1124 1205 1419 1950 1554 1379 1233 1299 1161 1073 1275 1662 1781 1830 2168 2308 2175 2047 2441 2103 2881 3319 3097 1670 1813 2292 2307 1305 1143 1250 1064 1311 1611 1761 1923 1702 1478 1427 1611 1656 1716
626 817 1013 1431 1505 1806 1583 1590 1839 1739 1909 1405 1580 1349 1802 1907 1794 2506 2293 2307 2322 2517 1780 2597 2896 2901 1431 1910 2790 2542 1346 1074 1192 1636 1615 1528 1607 1396 1286 1175 1033 1100 1366
537 692 896 1318 1480 1328 1287 1394 1418 1098 866 1083 1504 1158 1528 1798 1980 2165 2003 2277 2443 2047 2425 2062 2252 2967 3253 1566 1588 1494 2167 2166 1193 896 1321 914 1036 873 701 947 879 922 1039
555 673 747 1232 1320 1279 1539 1775 1124 961 942 1018 980 1499 1699 1812 2021 1992 2124 2181 2293 1893 2404 2326 2223 3180 2268 2193 1467 1411 1687 1064 1033 904 566 637 1033 672 999 1148 1378 1549 1797
560 606 743 1133 1329 1476 1588 1056 1101 1023 1019 786 1110 1321 1017 1001 1235 1814 1888 2176 2361 1909 2142 2186 2274 2366 2272 2575 2086 1711 1192 965 816 683 589 749 654 1034 1175 1386 1548 1380 1528

GFSSE_con_mucape_129.txt.gz
CAPE
173 60 163 283 365 910 573 1041 889 1159 1396 1550 1704 1597 1728 1754 1509 1746 1804 1841 1758 1823 1690 1768 1812 1735 1669 1843 1727 1521 1271 1338 1442 1522 1422 1487 1227 1228 1402 1277 2082 1361 1588
139 192 392 347 571 1097 969 1221 1578 1347 1591 1541 1730 1729 1708 1767 1880 1802 1794 1708 1880 1848 1744 1612 1713 1812 1703 1974 1854 1843 1854 1839 1838 1652 1676 1390 1336 1623 2085 2267 1939 1016 1222
60 339 447 821 603 1256 1231 1568 1200 1436 1733 1750 1571 1752 1619 1644 1602 1693 1680 1837 1808 1715 1650 1867 1897 1993 2022 1987 1997 2087 1992 1885 1854 2067 2399 1320 1498 1638 1608 1822 1753 1695 1569
77 218 422 1049 889 1512 1335 1674 1448 1467 1666 1816 1829 1857 1852 1850 1696 1849 1583 1473 1522 1560 1515 1630 1979 2015 1797 1735 1824 1855 1749 1570 1557 1614 1603 1166 930 1916 2122 2077 1895 1727 1832
470 653 672 1172 1065 1676 1533 1785 1516 1598 1734 1805 1614 1556 1531 1762 1768 1982 1683 1633 1618 1778 1842 1800 1801 1960 1891 1673 1848 1890 1648 1650 1871 1771 1124 1203 597 1593 2257 2169 1839 1595 1894
514 564 1200 1413 1556 1836 1745 1687 1681 1600 1550 1560 2000 1842 1771 1441 1384 1848 1846 1789 1848 1919 2029 2504 1929 1799 2109 1737 1586 1471 1391 1396 1833 453 451 538 548 981 982 1064 990 933 959
784 614 1065 1646 1827 1874 1905 1767 1635 1701 1882 1983 2003 1943 1810 1662 1882 1702 1730 1842 1885 2033 2104 2078 1728 1437 1150 1091 1089 1153 904 969 784 654 475 364 552 840 809 826 898 925 924
823 682 929 1906 1841 1971 1953 1843 1826 1835 1806 1836 1865 1857 1823 1939 2159 1556 1502 1748 1731 1785 1838 2175 1995 1892 1627 882 516 548 637 1093 859 1160 784 421 989 740 752 802 884 1002 1182
765 357 557 1039 1796 1911 1942 1916 1999 1921 1936 1909 1999 2102 2003 1800 1731 1355 1233 1510 1563 1676 1704 1824 1970 1963 2082 1722 1130 462 555 795 721 783 483 293 724 619 657 860 1114 1360 1658
548 464 510 633 1034 1314 1757 1749 1967 1985 1950 1975 2008 1950 1957 1500 1252 1240 1912 1283 1303 1408 1587 1673 1806 1815 1918 2106 1852 1564 1499 1334 228 318 274 367 793 697 832 1105 1383 1722 1985
519 444 1343 1276 1593 1727 1540 1869 1951 1945 2146 1943 1838 1999 2201 1364 1395 1379 2074 1570 1344 1105 1229 1376 1574 1620 1728 1941 2243 2363 2324 1240 140 393 234 784 1023 1202 1372 1622 1753 1971 2247
658 817 663 964 1048 1598 1424 1891 1496 1404 1784 969 741 1398 1494 2113 1178 964 1499 1804 1734 1790 2098 2043 1772 1802 1884 2095 2204 2787 2185 707 358 482 297 861 1123 1733 1912 2034 2197 2319 2524
940 733 1256 1352 1422 1380 1797 1592 1479 1206 719 849 1028 2446 1732 1364 1809 1705 1626 1867 1468 1827 1136 1282 1390 1550 1205 1183 804 444 803 584 424 500 376 707 1074 1590 1929 2149 2354 2457 2783
856 848 870 1188 2247 1703 1608 1457 1290 1088 428 580 1401 1707 1861 1291 1382 1574 1091 1334 1381 966 1749 1956 1315 1688 1513 1577 1015 566 447 434 428 585 403 757 949 1328 1610 1878 2092 2346 2781
766 794 930 1229 1789 1857 1083 631 910 834 573 1028 1554 1831 1395 1126 1090 1200 1655 1823 1533 1440 1186 1347 1709 1674 1264 889 943 713 536 549 499 678 803 1170 950 1274 1698 1900 2077 2436 2838
655 893 1118 1263 1493 1458 1179 1000 843 1451 670 670 900 1602 1630 936 1416 1638 1745 1504 1438 1411 1325 1488 2012 1584 844 537 869 699 687 723 882 795 999 917 1391 1444 1599 1738 2045 2310 2436
591 886 1031 1317 1451 1859 1602 1267 1189 715 750 770 1331 1661 1602 1657 2166 3987 1326 2901 1449 1739 2160 1889 1973 1398 602 571 1101 1108 858 725 934 1197 1123 1195 1296 2000 2271 1884 1769 2066 2403
689 851 1004 994 1236 1287 1401 1317 1381 1732 983 2108 1577 1353 1609 2192 2276 2856 1897 2264 1499 2442 1961 1598 1564 1137 554 640 921 906 831 983 1381 1578 1611 1838 1671 1601 1992 2292 2003 2430 3200
707 833 988 1329 1319 1340 1409 1711 1988 1543 1984 1867 1157 1253 1854 1760 1905 3161 1784 2223 3012 2223 2008 1040 1030 965 813 593 751 880 934 1002 1200 1103 1191 1515 1735 2135 2227 2670 2934 2935 3264
764 855 927 1025 2140 1395 1278 1879 2052 1280 1662 960 2110 1674 1845 1734 1816 3167 1289 2675 1758 1930 1760 2744 3183 1480 1400 703 827 614 800 842 840 882 884 993 1463 1941 1893 2262 2725 2973 2909
649 921 1253 2162 1580 1479 1328 1299 1506 1321 1699 1244 1025 1784 1799 1568 1902 2354 2030 1790 1948 2773 3829 2468 2428 2520 1620 1725 1238 833 841 787 758 738 813 799 1246 1623 1747 1903 2260 2038 1562
535 866 1132 1741 1978 1949 2104 2185 1779 1505 972 1228 1555 1468 1643 1536 1837 2041 2411 1945 2599 2514 2904 3058 3227 3485 1550 1689 2378 1211 993 1161 553 595 818 792 1318 1655 1556 1484 1487 1482 1751
447 720 1099 1343 1755 1849 2213 1674 1657 2455 2342 1195 2005 1445 1496 1611 1754 2151 1966 2497 2534 2931 2502 2296 2851 3747 1890 1480 2553 2056 2036 236 31 1080 1769 1349 1566 1144 1123 1072 914 1306 1362
592 550 895 1556 2086 1651 1735 2080 2997 1242 1158 717 851 973 1788 1590 1765 1760 1923 1989 2264 3268 3225 1898 2184 2925 3570 2318 1399 1214 2158 1831 1054 844 998 846 804 590 1026 1188 1033 1617 1978
486 702 795 1380 2405 1803 1646 2070 1514 2328 1590 1382 1559 2789 2084 2801 1910 1642 1924 1999 2255 2001 2818 2410 2162 2591 2638 2012 2495 1346 1744 917 976 800 360 455 1132 677 861 1049 1212 1015 2098
443 595 818 1523 2090 2232 1782 1770 1860 1526 1349 1855 1392 1310 1254 1145 1606 1732 1875 1946 2124 2253 2103 2133 2612 2160 2693 2966 2135 2298 915 885 1148 650 541 836 215 874 243 1436 534 470 377

GFSSE_con_mucape_132.txt.gz
CAPE
26 41 169 219 183 251 439 319 540 854 1104 1460 1542 1787 1876 1661 1637 1564 1764 1968 1847 1972 1789 1599 1726 1672 1487 1166 1198 1167 1370 1266 1347 1297 1170 1267 1574 2399 2263 1422 2195 961 1452
0 45 329 563 773 723 1326 1387 1236 1274 1324 1543 1831 1792 1720 1720 1812 1815 1758 1914 2025 1941 1682 1857 1802 1761 1859 1927 1822 1784 1537 1900 2031 1678 1385 1426 1814 1850 2103 1492 1291 923 1289
19 283 450 1124 1158 1149 1808 1288 1285 1426 1627 1581 1678 1662 1713 1760 1790 1791 1744 1845 1771 1756 1797 1842 1905 1981 1950 1963 1943 1972 1972 1855 1849 1825 2548 850 1428 1567 1821 1704 1567 1452 1631
41 184 510 1725 1633 1287 1993 1891 1532 1724 1753 1792 1716 1672 1867 1781 1798 1675 1567 1662 1714 2244 2020 2120 1952 1860 2033 2073 1929 1749 1564 1573 1387 1719 1633 976 1105 2014 1950 1859 1844 1681 1958
200 386 848 1349 1924 1556 1755 1567 1536 1526 1773 1917 1860 1649 1724 1906 1733 1669 1654 1710 1731 2260 1954 2048 1744 1603 1734 1698 1597 1500 1556 1706 1667 1885 755 837 919 2127 2110 1766 1564 1402 1552
311 433 1355 1644 1741 1633 1637 1585 1639 1866 1910 2134 1958 2093 1835 1985 1893 1800 1806 1875 2019 2193 2238 1926 1967 2124 1507 1500 1377 1394 1510 1482 1695 881 460 674 740 927 917 796 760 777 825
483 653 1043 2413 2110 1798 1482 1592 1517 1686 1862 2041 1878 1701 2372 1780 1902 1802 1940 1949 2058 2046 1969 1428 1197 1247 1168 1085 1109 1097 1003 1432 1790 556 331 376 833 1114 849 897 916 924 959
429 496 964 2227 1954 1937 1634 1720 1820 1899 1935 2219 2274 2212 1824 2463 1562 1723 1838 1839 1872 2079 2092 1918 1834 1427 789 559 531 616 842 1325 1192 706 515 428 1149 966 819 874 984 1123 1315
443 544 964 1407 2096 1896 2019 1831 1917 1905 1899 1875 2364 2163 2102 1843 1364 1376 1748 1739 1731 1732 1929 2033 2016 2048 1760 1271 748 452 737 1038 1434 684 268 449 1131 865 770 958 1223 1478 1803
490 350 864 1100 1096 1518 1613 1968 1950 1842 1707 1919 2006 1924 2295 1550 1133 1215 2180 1977 1578 1623 1624 1774 1797 1896 2132 1922 1840 1446 1421 1609 792 251 233 707 1145 835 955 1204 1517 1785 2036
250 179 257 850 1458 1984 1947 2052 2044 2019 2021 2069 1642 1814 2040 1387 1305 1030 1849 1700 1105 1237 1565 1450 1675 1893 1831 2301 2497 2353 2290 2014 389 190 230 1290 1426 1268 1510 1653 1718 2097 2543
660 249 286 771 1104 1278 781 2163 2085 1488 1376 1398 1720 1538 1062 1850 777 298 1635 2309 1808 1915 2057 2460 2713 2397 1841 1777 1996 2855 2596 1181 427 293 275 1437 1492 1788 1897 2032 2254 2493 2953
434 6 445 64 519 1144 1597 1968 1578 1625 1454 1264 1323 2446 1871 1175 1512 1190 1712 1160 1392 2007 1426 2104 1729 1700 1560 1712 1804 2248 1615 495 391 369 619 1377 1213 1632 1942 2049 2217 2463 2982
945 831 807 443 758 1255 1730 1413 1752 1445 481 622 1220 2583 1818 41 748 1245 1805 2247 2310 1845 1960 1980 2272 2164 1921 1880 1117 404 676 400 492 419 605 1380 1491 1461 1673 1868 2008 2419 2980
963 937 1204 1625 1171 647 1 735 1081 1133 477 1182 1797 763 1375 1962 2368 2183 2506 2020 2916 1820 2093 2504 2528 2390 2004 1456 1177 817 552 735 618 612 477 1713 1722 2072 2001 1971 2168 2498 2828
782 1197 1318 1609 2135 1749 1400 2098 2032 1114 745 942 1920 2289 2600 2406 2383 2576 3048 2158 2102 2144 2708 2785 3063 2870 2504 1079 1283 892 969 966 1316 1159 774 863 1977 2207 2545 2725 2433 2260 2220
943 1263 1521 1491 1992 1129 2388 1792 696 331 1097 1578 1919 2224 2346 2437 2034 3867 2706 2535 3054 2711 2904 3012 2855 3014 1574 1215 1562 1537 998 1087 1164 1363 1790 1047 1088 2276 2445 2571 2249 1984 2499
971 1412 1215 1074 1417 1910 2019 2387 1303 1095 2213 853 1504 2177 1926 2396 2444 3285 2291 1141 906 1357 2430 2955 2686 2427 1434 1398 1647 1510 1289 1693 1909 1961 2124 1595 2087 1381 2252 2679 2541 2445 3100
834 1328 1365 1517 1540 1002 2816 1096 1794 1401 2428 528 1423 1147 2328 2328 2047 2619 638 479 617 385 958 1335 2326 2160 1644 1886 1123 1571 1637 1762 2122 1231 1792 2227 2079 2005 1984 2377 2851 3230 3394
1012 1226 1196 1810 1613 1152 2991 2567 1347 407 1369 2283 1822 1887 2897 2264 1968 678 986 124 0 232 383 2036 3979 3750 2621 1979 675 867 1352 1582 1712 1416 1285 1329 1583 2460 2505 3407 2998 3037 3211
823 958 2249 1929 1950 2400 2745 2406 2366 892 1644 2456 2986 2652 1977 1266 2223 1664 1344 181 97 268 926 3667 3399 3802 3094 2507 1241 600 535 432 366 386 424 561 1284 1541 1960 2266 2654 2465 1532
1008 1097 2087 2756 3045 2802 2879 2601 1825 1371 2490 589 2719 2657 2237 1583 2148 2234 1721 484 226 657 1758 2938 3719 2596 1462 1070 428 0 94 207 76 118 351 314 1295 1678 1912 1857 1465 2360 2014
1042 1602 1709 1998 2833 2884 2341 1678 1362 1862 1998 2805 1975 2539 2182 1672 2133 1583 3055 1582 1523 423 454 2615 2019 1046 136 371 705 238 64 31 0 6 61 41 490 1402 1718 1472 1640 1928 1388
855 1178 2042 2462 2833 2623 3093 2112 2186 1517 1967 1975 951 1296 2199 2514 3008 2174 2529 2988 2595 1495 1158 2428 2576 2033 1564 366 21 429 963 562 204 285 110 177 460 961 1700 1878 1509 1697 1309
566 723 2017 2373 2848 2964 2838 2867 2536 2390 997 643 2471 3089 3270 3116 2646 2985 2502 2543 2870 3122 3101 3023 2806 2965 2938 2679 1928 1062 894 1611 1349 452 1517 558 877 1043 181 1748 466 1531 2056
679 547 1368 2464 2502 2682 2620 2757 2550 1791 426 327 1787 2251 2106 2207 2412 2900 2959 2401 3084 3168 2833 3096 3123 3035 3950 3613 3270 2786 2147 1436 1514 1333 986 760 451 1376 964 1780 369 1293 2068